ftp/pub/palmer/observations_modified/2019/October/original_files/AR191010_BASE.txt
Download
Sample DateTime Unit Id WS Avg 2min WD Avg 2min WGS 10min WGD 10min Air Temp Rel Humidity Dew Point Pyranometer Quantum Air Pressure Snow Level Rainfall PW Current Visibility CBase 1 CBase 2 CBase 3 Vert Vis
2019/10/10 00:00:01 BASE 13.82 28 21.14 17 -4.6 85 -6.7 0 0 970.1 NA 0.0000 9999 2330 0 0 0
2019/10/10 00:01:01 BASE 15.97 26 21.14 17 -4.6 85 -6.7 0 0 970.0 NA 0.0000 9999 2360 0 0 0
2019/10/10 00:02:01 BASE 17.52 26 21.14 17 -4.6 85 -6.7 0 0 970.0 NA 0.0000 9999 2560 0 0 0
2019/10/10 00:03:01 BASE 16.68 27 21.14 17 -4.6 85 -6.7 0 0 970.0 NA 0.0000 9999 2460 0 0 0
2019/10/10 00:04:01 BASE 15.66 27 21.14 17 -4.6 85 -6.7 0 0 970.1 NA 0.0000 9999 2200 0 0 0
2019/10/10 00:05:01 BASE 16.41 28 19.91 27 -4.6 85 -6.7 0 0 970.0 NA 0.0000 9999 2170 0 0 0
2019/10/10 00:06:01 BASE 17.13 28 19.91 27 -4.6 85 -6.7 0 0 970.1 NA 0.0000 9999 2230 0 0 0
2019/10/10 00:07:01 BASE 17.42 28 19.91 27 -4.6 85 -6.7 0 0 970.0 NA 0.0000 9999 2230 0 0 0
2019/10/10 00:08:01 BASE 16.99 28 19.91 27 -4.6 85 -6.7 0 0 970.1 NA 0.0000 9999 2230 0 0 0
2019/10/10 00:09:01 BASE 17.19 26 19.91 27 -4.6 85 -6.7 0 0 970.0 NA 0.0000 9999 2330 0 0 0
2019/10/10 00:10:01 BASE 17.28 25 19.91 27 -4.6 86 -6.6 0 0 970.1 NA 0.0000 9999 2400 0 0 0
2019/10/10 00:11:01 BASE 17.11 27 19.91 27 -4.6 86 -6.6 0 0 970.1 NA 0.0000 9999 2230 0 0 0
2019/10/10 00:12:01 BASE 18.09 25 19.91 27 -4.6 86 -6.6 0 0 970.0 NA 0.0000 9999 2330 0 0 0
2019/10/10 00:13:01 BASE 18.63 24 21.25 22 -4.6 86 -6.6 0 0 970.0 NA 0.0000 9999 2400 0 0 0
2019/10/10 00:14:01 BASE 18.93 25 22.07 18 -4.6 86 -6.6 0 0 970.1 NA 0.0000 9999 2400 0 0 0
2019/10/10 00:15:01 BASE 17.92 27 22.07 18 -4.6 86 -6.6 0 0 970.1 NA 0.0000 9999 2460 0 0 0
2019/10/10 00:16:01 BASE 16.87 28 22.07 18 -4.6 86 -6.6 0 0 970.2 NA 0.0000 9999 2300 0 0 0
2019/10/10 00:17:01 BASE 17.34 30 22.07 18 -4.6 86 -6.6 0 0 970.1 NA 0.0000 9999 2360 0 0 0
2019/10/10 00:18:01 BASE 16.61 30 22.07 18 -4.6 86 -6.6 0 0 970.2 NA 0.0000 9999 2430 0 0 0
2019/10/10 00:19:01 BASE 15.92 27 22.07 18 -4.6 86 -6.6 0 0 970.2 NA 0.0000 9999 2490 0 0 0
2019/10/10 00:20:01 BASE 17.80 24 22.07 18 -4.6 86 -6.5 0 0 970.1 NA 0.0000 9999 2530 0 0 0
2019/10/10 00:21:01 BASE 17.01 26 22.07 18 -4.6 87 -6.5 0 0 970.2 NA 0.0000 9999 2400 0 0 0
2019/10/10 00:22:01 BASE 15.76 27 22.07 18 -4.6 87 -6.5 0 0 970.2 NA 0.0000 9999 2490 0 0 0
2019/10/10 00:23:01 BASE 16.78 24 22.07 18 -4.6 87 -6.4 0 0 970.2 NA 0.0000 9999 2460 0 0 0
2019/10/10 00:24:01 BASE 17.72 23 20.58 22 -4.6 87 -6.4 0 0 970.1 NA 0.0000 9999 2400 0 0 0
2019/10/10 00:25:01 BASE 17.07 26 20.58 22 -4.6 87 -6.4 0 0 970.2 NA 0.0000 9999 2490 0 0 0
2019/10/10 00:26:01 BASE 15.92 28 20.58 22 -4.6 87 -6.4 0 0 970.2 NA 0.0000 9999 2430 0 0 0
2019/10/10 00:27:01 BASE 16.35 27 20.58 22 -4.6 87 -6.4 0 0 970.2 NA 0.0000 9999 2620 0 0 0
2019/10/10 00:28:01 BASE 16.33 25 20.58 22 -4.6 87 -6.4 0 0 970.2 NA 0.0000 9999 2590 0 0 0
2019/10/10 00:29:01 BASE 16.01 26 20.58 22 -4.6 87 -6.4 0 0 970.2 NA 0.0000 9999 2660 0 0 0
2019/10/10 00:30:01 BASE 16.01 29 20.06 23 -4.6 87 -6.4 0 0 970.2 NA 0.0000 9999 2720 0 0 0
2019/10/10 00:31:01 BASE 16.13 28 20.06 23 -4.6 87 -6.4 0 0 970.2 NA 0.0000 9999 2690 0 0 0
2019/10/10 00:32:01 BASE 16.48 26 20.06 23 -4.6 87 -6.4 0 0 970.2 NA 0.0000 9999 2760 0 0 0
2019/10/10 00:33:01 BASE 16.47 27 20.06 23 -4.6 87 -6.4 0 0 970.2 NA 0.0000 9999 2760 0 0 0
2019/10/10 00:34:01 BASE 16.16 27 19.19 28 -4.6 87 -6.4 0 0 970.2 NA 0.0000 9999 2720 0 0 0
2019/10/10 00:35:01 BASE 17.07 26 20.78 25 -4.6 87 -6.4 0 0 970.2 NA 0.0000 9999 2720 0 0 0
2019/10/10 00:36:01 BASE 17.43 25 20.78 25 -4.6 87 -6.4 0 0 970.2 NA 0.0000 9999 2690 0 0 0
2019/10/10 00:37:01 BASE 16.94 27 20.78 25 -4.6 87 -6.4 0 0 970.3 NA 0.0000 9999 2690 0 0 0
2019/10/10 00:38:01 BASE 16.16 29 20.78 25 -4.6 87 -6.4 0 0 970.3 NA 0.0000 9999 2720 0 0 0
2019/10/10 00:39:01 BASE 15.19 30 20.78 25 -4.6 87 -6.4 0 0 970.3 NA 0.0000 9999 2690 0 0 0
2019/10/10 00:40:01 BASE 15.80 28 20.78 25 -4.6 87 -6.4 0 0 970.3 NA 0.0000 9999 2760 0 0 0
2019/10/10 00:41:01 BASE 17.89 27 20.78 25 -4.6 87 -6.5 0 0 970.2 NA 0.0000 9999 2760 0 0 0
2019/10/10 00:42:01 BASE 18.09 26 20.78 25 -4.6 87 -6.5 0 0 970.2 NA 0.0000 9999 2660 0 0 0
2019/10/10 00:43:01 BASE 16.95 27 20.78 25 -4.6 87 -6.5 0 0 970.3 NA 0.0000 9999 2690 0 0 0
2019/10/10 00:44:01 BASE 16.80 27 20.78 25 -4.6 87 -6.5 0 0 970.3 NA 0.0000 9999 2760 0 0 0
2019/10/10 00:45:01 BASE 15.74 26 20.01 27 -4.6 87 -6.5 0 0 970.4 NA 0.0000 9999 2760 0 0 0
2019/10/10 00:46:01 BASE 14.64 29 19.91 31 -4.6 87 -6.5 0 0 970.4 NA 0.0000 9999 2760 0 0 0
2019/10/10 00:47:01 BASE 15.44 31 19.91 31 -4.7 87 -6.5 0 0 970.3 NA 0.0000 9999 2790 0 0 0
2019/10/10 00:48:01 BASE 15.97 31 19.91 31 -4.7 87 -6.5 0 0 970.3 NA 0.0000 9999 2790 0 0 0
2019/10/10 00:49:01 BASE 16.26 30 19.91 31 -4.7 87 -6.5 0 0 970.3 NA 0.0000 9999 2760 0 0 0
2019/10/10 00:50:01 BASE 15.19 28 19.91 31 -4.7 87 -6.5 0 0 970.4 NA 0.0000 9999 2760 0 0 0
2019/10/10 00:51:01 BASE 14.79 30 19.14 32 -4.7 87 -6.5 0 0 970.4 NA 0.0000 9999 2760 0 0 0
2019/10/10 00:52:01 BASE 15.40 32 19.14 32 -4.7 87 -6.5 0 0 970.4 NA 0.0000 9999 2760 0 0 0
2019/10/10 00:53:01 BASE 15.43 31 18.47 23 -4.7 87 -6.5 0 0 970.3 NA 0.0000 9999 2790 0 0 0
2019/10/10 00:54:01 BASE 15.82 28 18.42 30 -4.7 87 -6.5 0 0 970.3 NA 0.0000 9999 2760 0 0 0
2019/10/10 00:55:01 BASE 15.49 26 18.42 30 -4.7 87 -6.5 0 0 970.3 NA 0.0000 9999 2850 0 0 0
2019/10/10 00:56:01 BASE 15.41 28 18.42 30 -4.7 87 -6.5 0 0 970.3 NA 0.0000 9999 2790 0 0 0
2019/10/10 00:57:01 BASE 14.95 29 18.42 30 -4.7 87 -6.5 0 0 970.4 NA 0.0000 9999 2760 0 0 0
2019/10/10 00:58:01 BASE 13.35 26 18.42 30 -4.7 87 -6.5 0 0 970.4 NA 0.0000 9999 2760 0 0 0
2019/10/10 00:59:01 BASE 13.14 25 17.65 34 -4.7 87 -6.5 0 0 970.4 NA 0.0000 9999 2790 0 0 0
2019/10/10 01:00:01 BASE 15.13 27 17.80 27 -4.7 87 -6.5 0 0 970.3 NA 0.0000 9999 2820 0 0 0
2019/10/10 01:01:01 BASE 15.87 26 17.80 27 -4.7 87 -6.5 0 0 970.4 NA 0.0000 9999 2920 0 0 0
2019/10/10 01:02:01 BASE 15.34 25 17.80 27 -4.7 87 -6.5 0 0 970.4 NA 0.0000 9999 2950 7250 0 0
2019/10/10 01:03:01 BASE 14.24 26 17.80 27 -4.7 87 -6.5 0 0 970.4 NA 0.0000 9999 2990 7280 0 0
2019/10/10 01:04:01 BASE 14.28 27 17.80 27 -4.7 87 -6.5 0 0 970.3 NA 0.0000 9999 2950 0 0 0
2019/10/10 01:05:01 BASE 15.07 27 17.80 27 -4.7 87 -6.5 0 0 970.4 NA 0.0000 9999 2950 5220 7350 0
2019/10/10 01:06:01 BASE 15.16 26 17.80 27 -4.7 87 -6.5 0 0 970.4 NA 0.0000 9999 2920 7280 0 0
2019/10/10 01:07:01 BASE 15.56 26 17.80 27 -4.7 87 -6.5 0 0 970.3 NA 0.0000 9999 2950 0 0 0
2019/10/10 01:08:01 BASE 15.17 28 17.80 27 -4.7 87 -6.5 0 0 970.4 NA 0.0000 9999 2950 7250 0 0
2019/10/10 01:09:01 BASE 15.26 29 17.80 27 -4.7 87 -6.5 0 0 970.3 NA 0.0000 9999 2950 7220 0 0
2019/10/10 01:10:01 BASE 15.30 30 17.39 21 -4.7 87 -6.5 0 0 970.4 NA 0.0000 9999 2950 7250 0 0
2019/10/10 01:11:01 BASE 15.56 29 17.75 31 -4.7 87 -6.5 0 0 970.3 NA 0.0000 9999 2950 0 0 0
2019/10/10 01:12:01 BASE 15.31 27 17.75 31 -4.7 87 -6.5 0 0 970.4 NA 0.0000 9999 2950 0 0 0
2019/10/10 01:13:01 BASE 14.27 28 17.75 31 -4.7 87 -6.5 0 0 970.4 NA 0.0000 9999 2920 0 0 0
2019/10/10 01:14:01 BASE 14.65 32 17.75 31 -4.7 87 -6.5 0 0 970.4 NA 0.0000 9999 2920 0 0 0
2019/10/10 01:15:01 BASE 14.91 32 17.75 31 -4.7 87 -6.6 0 0 970.4 NA 0.0000 9999 2920 0 0 0
2019/10/10 01:16:01 BASE 14.50 29 17.75 31 -4.7 87 -6.6 0 0 970.4 NA 0.0000 9999 2890 0 0 0
2019/10/10 01:17:01 BASE 13.94 26 17.75 31 -4.7 86 -6.6 0 0 970.4 NA 0.0000 9999 2890 7090 0 0
2019/10/10 01:18:01 BASE 13.72 24 17.75 31 -4.7 86 -6.7 0 0 970.4 NA 0.0000 9999 2920 7190 0 0
2019/10/10 01:19:01 BASE 13.91 26 17.75 31 -4.7 86 -6.7 0 0 970.4 NA 0.0000 9999 2920 0 0 0
2019/10/10 01:20:01 BASE 14.26 25 17.75 31 -4.7 86 -6.6 0 0 970.4 NA 0.0000 9999 2890 7190 0 0
2019/10/10 01:21:01 BASE 14.52 25 17.13 39 -4.6 86 -6.6 0 0 970.4 NA 0.0000 9999 2890 7250 0 0
2019/10/10 01:22:01 BASE 13.79 28 17.13 39 -4.6 86 -6.6 0 0 970.4 NA 0.0000 9999 2890 7220 0 0
2019/10/10 01:23:01 BASE 12.98 27 17.13 39 -4.6 86 -6.6 0 0 970.4 NA 0.0000 9999 2890 7220 0 0
2019/10/10 01:24:01 BASE 13.35 25 16.41 27 -4.6 86 -6.6 0 0 970.4 NA 0.0000 9999 2890 7150 0 0
2019/10/10 01:25:01 BASE 14.00 25 15.95 25 -4.6 86 -6.6 0 0 970.4 NA 0.0000 9999 2890 0 0 0
2019/10/10 01:26:01 BASE 13.74 24 15.95 25 -4.6 86 -6.6 0 0 970.4 NA 0.0000 9999 2920 0 0 0
2019/10/10 01:27:01 BASE 13.49 23 16.98 18 -4.6 85 -6.7 0 0 970.4 NA 0.0000 9999 2890 0 0 0
2019/10/10 01:28:01 BASE 14.70 22 17.03 15 -4.6 85 -6.7 0 0 970.3 NA 0.0000 9999 2890 0 0 0
2019/10/10 01:29:01 BASE 15.43 20 17.03 15 -4.6 85 -6.8 0 0 970.4 NA 0.0000 9999 2850 0 0 0
2019/10/10 01:30:01 BASE 14.19 22 17.03 15 -4.6 84 -6.8 0 0 970.5 NA 0.0000 9999 2850 0 0 0
2019/10/10 01:31:01 BASE 14.38 23 17.03 15 -4.6 84 -6.9 0 0 970.4 NA 0.0000 9999 2890 0 0 0
2019/10/10 01:32:01 BASE 15.39 24 17.03 15 -4.6 84 -6.9 0 0 970.4 NA 0.0000 9999 2890 0 0 0
2019/10/10 01:33:01 BASE 15.05 23 17.03 15 -4.6 84 -6.9 0 0 970.4 NA 0.0000 9999 2920 0 0 0
2019/10/10 01:34:01 BASE 15.02 23 17.03 15 -4.6 84 -6.9 0 0 970.4 NA 0.0000 9999 2890 0 0 0
2019/10/10 01:35:01 BASE 14.65 23 17.03 15 -4.6 84 -6.9 0 0 970.4 NA 0.0000 9999 2850 0 0 0
2019/10/10 01:36:01 BASE 14.49 21 17.03 15 -4.6 84 -6.9 0 0 970.4 NA 0.0000 9999 2850 0 0 0
2019/10/10 01:37:01 BASE 13.88 22 17.03 15 -4.7 84 -6.9 0 0 970.5 NA 0.0000 9999 2850 0 0 0
2019/10/10 01:38:01 BASE 13.92 24 16.87 26 -4.7 84 -7.0 0 0 970.5 NA 0.0000 9999 2820 0 0 0
2019/10/10 01:39:01 BASE 14.58 23 16.87 26 -4.7 84 -7.0 0 0 970.5 NA 0.0000 9999 2820 0 0 0
2019/10/10 01:40:01 BASE 12.99 24 16.87 26 -4.7 84 -7.0 0 0 970.6 NA 0.0000 9999 2820 0 0 0
2019/10/10 01:41:01 BASE 12.61 23 16.31 22 -4.7 84 -7.0 0 0 970.5 NA 0.0000 9999 2820 0 0 0
2019/10/10 01:42:01 BASE 13.42 22 16.31 22 -4.7 84 -7.0 0 0 970.5 NA 0.0000 9999 2820 0 0 0
2019/10/10 01:43:01 BASE 13.36 20 15.95 20 -4.7 84 -7.0 0 0 970.6 NA 0.0000 9999 2820 0 0 0
2019/10/10 01:44:01 BASE 13.49 21 15.64 21 -4.7 84 -7.0 0 0 970.6 NA 0.0000 9999 2820 0 0 0
2019/10/10 01:45:01 BASE 13.30 23 15.64 21 -4.7 84 -7.0 0 0 970.6 NA 0.0000 9999 2820 0 0 0
2019/10/10 01:46:01 BASE 12.88 23 15.43 24 -4.7 84 -7.0 0 0 970.6 NA 0.0000 9999 2890 0 0 0
2019/10/10 01:47:00 BASE 12.88 24 15.43 24 -4.7 84 -7.0 0 0 970.6 NA 0.0000 9999 2890 0 0 0
2019/10/10 01:48:01 BASE 12.98 24 15.33 13 -4.7 84 -7.0 0 0 970.6 NA 0.0000 9999 2890 0 0 0
2019/10/10 01:49:01 BASE 13.98 21 17.59 22 -4.7 84 -7.0 0 0 970.5 NA 0.0000 9999 2950 7190 0 0
2019/10/10 01:50:01 BASE 15.29 19 17.59 22 -4.7 84 -7.0 0 0 970.5 NA 0.0000 9999 2950 7150 0 0
2019/10/10 01:51:01 BASE 16.23 21 18.67 23 -4.7 84 -7.0 0 0 970.5 NA 0.0000 9999 2950 7190 0 0
2019/10/10 01:52:01 BASE 16.16 23 18.67 23 -4.7 84 -6.9 0 0 970.5 NA 0.0000 9999 7120 0 0 0
2019/10/10 01:53:01 BASE 14.81 22 18.67 23 -4.7 85 -6.9 0 0 970.5 NA 0.0000 9999 2760 7150 0 0
2019/10/10 01:54:01 BASE 14.00 23 18.67 23 -4.7 85 -6.9 0 0 970.6 NA 0.0000 9999 2760 7120 0 0
2019/10/10 01:55:01 BASE 14.84 22 18.67 23 -4.7 85 -6.9 0 0 970.5 NA 0.0000 9999 2790 7150 0 0
2019/10/10 01:56:01 BASE 15.74 23 18.67 23 -4.8 85 -6.9 0 0 970.5 NA 0.0000 9999 2720 7120 0 0
2019/10/10 01:57:01 BASE 14.33 25 18.67 23 -4.8 85 -6.9 0 0 970.6 NA 0.0000 9999 7120 0 0 0
2019/10/10 01:58:01 BASE 13.80 23 18.67 23 -4.8 85 -6.9 0 0 970.6 NA 0.0000 9999 7120 0 0 0
2019/10/10 01:59:01 BASE 14.47 20 18.67 23 -4.8 85 -6.9 0 0 970.6 NA 0.0000 9999 7150 0 0 0
2019/10/10 02:00:01 BASE 14.78 17 18.67 23 -4.8 85 -6.9 0 0 970.5 NA 0.0000 9999 2820 7150 0 0
2019/10/10 02:01:01 BASE 15.29 17 17.65 19 -4.8 85 -6.9 0 0 970.5 NA 0.0000 9999 2820 7150 0 0
2019/10/10 02:02:01 BASE 15.56 20 17.65 19 -4.8 86 -6.8 0 0 970.5 NA 0.0000 9999 2790 7150 0 0
2019/10/10 02:03:01 BASE 14.36 20 17.65 19 -4.8 86 -6.8 0 0 970.6 NA 0.0000 9999 2760 4430 7150 0
2019/10/10 02:04:01 BASE 13.44 21 17.65 19 -4.8 86 -6.8 0 0 970.6 NA 0.0000 9999 2760 7150 0 0
2019/10/10 02:05:01 BASE 14.01 22 17.65 19 -4.8 86 -6.8 0 0 970.6 NA 0.0000 9999 2760 0 0 0
2019/10/10 02:06:01 BASE 14.13 20 17.49 10 -4.8 86 -6.8 0 0 970.5 NA 0.0000 9999 2760 0 0 0
2019/10/10 02:07:01 BASE 13.88 18 17.49 10 -4.8 86 -6.8 0 0 970.5 NA 0.0000 9999 2760 0 0 0
2019/10/10 02:08:01 BASE 13.72 18 17.49 10 -4.8 86 -6.8 0 0 970.5 NA 0.0000 9999 2720 4070 0 0
2019/10/10 02:09:01 BASE 14.09 18 17.49 10 -4.8 86 -6.8 0 0 970.5 NA 0.0000 9999 2720 3610 4330 0
2019/10/10 02:10:01 BASE 14.39 19 16.77 18 -4.8 86 -6.8 0 0 970.5 NA 0.0000 9999 2760 3540 4300 0
2019/10/10 02:11:01 BASE 14.17 19 16.72 21 -4.8 86 -6.8 0 0 970.5 NA 0.0000 9999 3540 3970 7150 0
2019/10/10 02:12:01 BASE 13.78 19 16.46 19 -4.8 86 -6.8 0 0 970.6 NA 0.0000 9999 2620 3870 7220 0
2019/10/10 02:13:01 BASE 14.07 18 16.46 19 -4.8 86 -6.8 0 0 970.5 NA 0.0000 9999 3580 4230 0 0
2019/10/10 02:14:01 BASE 14.13 17 16.46 19 -4.8 86 -6.8 0 0 970.6 NA 0.0000 9999 3580 0 0 0
2019/10/10 02:15:01 BASE 13.64 17 16.46 19 -4.8 86 -6.8 0 0 970.6 NA 0.0000 9999 2660 3380 0 0
2019/10/10 02:16:01 BASE 13.60 20 16.46 19 -4.8 86 -6.8 0 0 970.6 NA 0.0000 9999 3350 0 0 0
2019/10/10 02:17:01 BASE 13.49 21 16.46 19 -4.8 86 -6.8 0 0 970.6 NA 0.0000 9999 3450 0 0 0
2019/10/10 02:18:01 BASE 13.17 21 16.46 19 -4.8 86 -6.8 0 0 970.6 NA 0.0000 9999 3740 0 0 0
2019/10/10 02:19:01 BASE 12.72 24 16.46 19 -4.8 86 -6.8 0 0 970.6 NA 0.0000 9999 2690 3640 0 0
2019/10/10 02:20:01 BASE 11.87 25 16.41 14 -4.8 86 -6.8 0 0 970.6 NA 0.0000 9999 2690 3480 0 0
2019/10/10 02:21:01 BASE 12.44 23 16.41 14 -4.8 86 -6.8 0 0 970.6 NA 0.0000 9999 2690 3250 0 0
2019/10/10 02:22:01 BASE 13.69 22 16.41 14 -4.8 86 -6.8 0 0 970.6 NA 0.0000 9999 2720 3450 0 0
2019/10/10 02:23:01 BASE 13.57 22 15.95 21 -4.8 86 -6.8 0 0 970.6 NA 0.0000 9999 3610 0 0 0
2019/10/10 02:24:01 BASE 13.53 21 15.95 21 -4.8 86 -6.8 0 0 970.6 NA 0.0000 9999 3580 0 0 0
2019/10/10 02:25:01 BASE 13.09 20 15.38 21 -4.8 86 -6.8 0 0 970.6 NA 0.0000 9999 3410 0 0 0
2019/10/10 02:26:01 BASE 13.01 22 15.38 21 -4.8 86 -6.8 0 0 970.6 NA 0.0000 9999 3450 0 0 0
2019/10/10 02:27:01 BASE 12.99 23 15.38 21 -4.8 86 -6.8 0 0 970.6 NA 0.0000 9999 3450 0 0 0
2019/10/10 02:28:01 BASE 12.02 25 15.38 21 -4.8 86 -6.8 0 0 970.7 NA 0.0000 9999 3510 0 0 0
2019/10/10 02:29:01 BASE 12.04 23 15.38 21 -4.8 86 -6.8 0 0 970.6 NA 0.0000 9999 3510 0 0 0
2019/10/10 02:30:01 BASE 12.18 24 15.38 21 -4.8 86 -6.8 0 0 970.6 NA 0.0000 9999 3450 0 0 0
2019/10/10 02:31:00 BASE 12.54 27 15.38 21 -4.8 86 -6.8 0 0 970.6 NA 0.0000 9999 2720 3450 0 0
2019/10/10 02:32:01 BASE 13.11 27 15.38 21 -4.8 86 -6.8 0 0 970.6 NA 0.0000 9999 2720 3410 0 0
2019/10/10 02:33:01 BASE 12.54 26 15.38 21 -4.8 86 -6.8 0 0 970.6 NA 0.0000 9999 3380 0 0 0
2019/10/10 02:34:01 BASE 12.16 24 14.56 24 -4.8 86 -6.8 0 0 970.6 NA 0.0000 9999 3380 0 0 0
2019/10/10 02:35:01 BASE 11.58 24 14.56 24 -4.8 85 -6.9 0 0 970.7 NA 0.0000 9999 3310 0 0 0
2019/10/10 02:36:01 BASE 11.93 27 14.56 24 -4.8 85 -6.9 0 0 970.6 NA 0.0000 9999 3310 0 0 0
2019/10/10 02:37:01 BASE 13.10 29 14.61 27 -4.8 85 -6.9 0 0 970.6 NA 0.0000 9999 3250 0 0 0
2019/10/10 02:38:01 BASE 12.81 26 14.61 27 -4.8 85 -6.9 0 0 970.7 NA 0.0000 9999 3250 0 0 0
2019/10/10 02:39:01 BASE 11.80 24 14.61 27 -4.8 85 -6.9 0 0 970.7 NA 0.0000 9999 3220 0 0 0
2019/10/10 02:40:01 BASE 11.63 25 14.61 27 -4.8 85 -6.9 0 0 970.7 NA 0.0000 9999 3220 0 0 0
2019/10/10 02:41:00 BASE 12.73 24 14.61 27 -4.8 85 -6.9 0 0 970.6 NA 0.0000 9999 3180 0 0 0
2019/10/10 02:42:01 BASE 12.95 23 14.61 27 -4.8 85 -6.9 0 0 970.7 NA 0.0000 9999 3180 0 0 0
2019/10/10 02:43:01 BASE 12.57 24 14.61 27 -4.8 85 -6.9 0 0 970.6 NA 0.0000 9999 3150 0 0 0
2019/10/10 02:44:01 BASE 12.59 24 15.69 20 -4.7 85 -6.9 0 0 970.7 NA 0.0000 9999 3120 0 0 0
2019/10/10 02:45:00 BASE 13.64 24 16.46 24 -4.7 85 -6.9 0 0 970.6 NA 0.0000 9999 3120 0 0 0
2019/10/10 02:46:01 BASE 14.20 23 16.46 24 -4.7 85 -6.9 0 0 970.6 NA 0.0000 9999 3120 0 0 0
2019/10/10 02:47:01 BASE 13.25 23 16.46 24 -4.8 85 -6.9 0 0 970.7 NA 0.0000 9999 3150 0 0 0
2019/10/10 02:48:01 BASE 12.94 25 16.46 24 -4.8 85 -6.9 0 0 970.6 NA 0.0000 9999 3220 0 0 0
2019/10/10 02:49:00 BASE 13.54 25 16.46 24 -4.8 85 -6.9 0 0 970.6 NA 0.0000 9999 3150 0 0 0
2019/10/10 02:50:00 BASE 14.14 26 16.46 24 -4.8 85 -6.9 0 0 970.6 NA 0.0000 9999 3120 0 0 0
2019/10/10 02:51:00 BASE 13.24 27 16.46 24 -4.8 85 -6.9 0 0 970.7 NA 0.0000 9999 2990 0 0 0
2019/10/10 02:52:00 BASE 12.12 26 16.46 24 -4.8 85 -6.9 0 0 970.7 NA 0.0000 9999 2920 3670 0 0
2019/10/10 02:53:00 BASE 12.83 24 16.46 24 -4.8 85 -6.9 0 0 970.7 NA 0.0000 9999 2890 0 0 0
2019/10/10 02:54:00 BASE 13.54 23 16.46 24 -4.8 85 -6.9 0 0 970.7 NA 0.0000 9999 2890 0 0 0
2019/10/10 02:55:00 BASE 12.79 25 15.74 27 -4.8 85 -6.9 0 0 970.7 NA 0.0000 9999 2920 0 0 0
2019/10/10 02:56:01 BASE 11.25 26 15.74 27 -4.8 86 -6.9 0 0 970.8 NA 0.0000 9999 2850 3810 0 0
2019/10/10 02:57:01 BASE 12.32 25 16.67 24 -4.8 86 -6.9 0 0 970.7 NA 0.0000 9999 2890 3810 0 0
2019/10/10 02:58:01 BASE 14.85 23 16.67 24 -4.9 86 -6.9 0 0 970.6 NA 0.0000 9999 2920 0 0 0
2019/10/10 02:59:01 BASE 15.01 22 16.67 24 -4.9 86 -6.9 0 0 970.6 NA 0.0000 9999 2920 0 0 0
2019/10/10 03:00:00 BASE 13.76 22 16.67 24 -4.9 86 -6.9 0 0 970.6 NA 0.0000 9999 2850 0 0 0
2019/10/10 03:01:00 BASE 13.33 23 16.67 24 -4.9 86 -6.9 0 0 970.6 NA 0.0000 9999 2920 0 0 0
2019/10/10 03:02:01 BASE 13.62 23 16.67 24 -4.9 86 -6.9 0 0 970.6 NA 0.0000 9999 2950 3810 0 0
2019/10/10 03:03:01 BASE 13.37 25 16.67 24 -4.9 86 -6.9 0 0 970.6 NA 0.0000 9999 2950 3810 0 0
2019/10/10 03:04:01 BASE 14.02 26 16.67 24 -4.9 86 -6.9 0 0 970.6 NA 0.0000 9999 2950 3770 0 0
2019/10/10 03:05:01 BASE 14.53 23 16.67 24 -4.9 86 -6.9 0 0 970.7 NA 0.0000 9999 2950 3810 0 0
2019/10/10 03:06:01 BASE 13.30 25 16.67 24 -4.9 86 -6.9 0 0 970.7 NA 0.0000 9999 2760 3870 0 0
2019/10/10 03:07:01 BASE 12.03 26 16.10 22 -4.9 86 -6.9 0 0 970.7 NA 0.0000 9999 2660 0 0 0
2019/10/10 03:08:01 BASE 11.90 25 15.64 23 -4.9 85 -6.9 0 0 970.7 NA 0.0000 9999 2590 0 0 0
2019/10/10 03:09:01 BASE 13.10 23 15.74 21 -4.8 85 -7.0 0 0 970.7 NA 0.0000 9999 2590 0 0 0
2019/10/10 03:10:01 BASE 14.01 22 15.74 21 -4.8 85 -7.0 0 0 970.7 NA 0.0000 9999 2590 3900 0 0
2019/10/10 03:11:01 BASE 13.90 24 15.74 21 -4.8 85 -7.0 0 0 970.7 NA 0.0000 9999 2660 3840 0 0
2019/10/10 03:12:01 BASE 14.18 24 15.74 21 -4.8 85 -7.0 0 0 970.7 NA 0.0000 9999 2720 3810 0 0
2019/10/10 03:13:01 BASE 13.52 24 15.74 21 -4.8 84 -7.0 0 0 970.8 NA 0.0000 9999 2690 3770 0 0
2019/10/10 03:14:01 BASE 13.16 23 15.74 21 -4.8 84 -7.1 0 0 970.7 NA 0.0000 9999 2720 3740 0 0
2019/10/10 03:15:01 BASE 14.03 23 15.74 21 -4.8 84 -7.1 0 0 970.7 NA 0.0000 9999 2760 3740 0 0
2019/10/10 03:16:01 BASE 13.55 25 15.74 21 -4.8 84 -7.1 0 0 970.8 NA 0.0000 9999 2760 3740 0 0
2019/10/10 03:17:01 BASE 12.03 27 15.74 21 -4.8 84 -7.1 0 0 970.8 NA 0.0000 9999 2760 3770 0 0
2019/10/10 03:18:01 BASE 11.95 27 15.74 21 -4.8 84 -7.2 0 0 970.8 NA 0.0000 9999 2660 3770 0 0
2019/10/10 03:19:01 BASE 12.36 27 15.38 24 -4.8 84 -7.2 0 0 970.8 NA 0.0000 9999 2620 3810 0 0
2019/10/10 03:20:01 BASE 12.13 28 15.38 24 -4.9 84 -7.2 0 0 970.8 NA 0.0000 9999 2590 0 0 0
2019/10/10 03:21:01 BASE 12.42 28 15.38 24 -4.9 84 -7.2 0 0 970.8 NA 0.0000 9999 2590 3740 0 0
2019/10/10 03:22:01 BASE 12.65 27 14.92 27 -4.9 84 -7.2 0 0 970.8 NA 0.0000 9999 2590 3740 0 0
2019/10/10 03:23:01 BASE 12.38 25 14.92 27 -4.9 84 -7.2 0 0 970.8 NA 0.0000 9999 2690 3710 0 0
2019/10/10 03:24:01 BASE 11.51 25 14.92 27 -4.9 84 -7.2 0 0 970.8 NA 0.0000 9999 3670 0 0 0
2019/10/10 03:25:00 BASE 11.24 27 14.61 23 -4.9 84 -7.1 0 0 970.8 NA 0.0000 9999 3640 0 0 0
2019/10/10 03:26:01 BASE 11.76 28 14.61 23 -4.9 85 -7.1 0 0 970.8 NA 0.0000 9999 2430 3670 0 0
2019/10/10 03:27:00 BASE 11.67 28 14.61 23 -4.9 85 -7.1 0 0 970.8 NA 0.0000 9999 2400 3670 0 0
2019/10/10 03:28:01 BASE 11.69 29 14.35 25 -4.9 85 -7.0 0 0 970.8 NA 0.0000 9999 2460 3710 0 0
2019/10/10 03:29:00 BASE 12.06 29 14.35 25 -4.9 85 -7.0 0 0 970.8 NA 0.0000 9999 2460 3740 0 0
2019/10/10 03:30:01 BASE 12.82 27 14.35 26 -4.9 85 -7.0 0 0 970.8 NA 0.0000 9999 3740 0 0 0
2019/10/10 03:31:01 BASE 13.09 26 14.35 26 -4.9 85 -7.0 0 0 970.8 NA 0.0000 9999 3710 0 0 0
2019/10/10 03:32:01 BASE 12.95 26 14.76 25 -4.9 85 -7.0 0 0 970.8 NA 0.0000 9999 3640 0 0 0
2019/10/10 03:33:00 BASE 12.59 27 14.76 25 -4.9 85 -7.0 0 0 970.8 NA 0.0000 9999 3710 0 0 0
2019/10/10 03:34:01 BASE 12.36 26 14.76 25 -4.9 85 -7.0 0 0 970.8 NA 0.0000 9999 3640 0 0 0
2019/10/10 03:35:01 BASE 12.21 25 14.76 25 -4.9 85 -7.0 0 0 970.8 NA 0.0000 9999 3610 0 0 0
2019/10/10 03:36:01 BASE 11.41 26 14.76 25 -4.9 85 -7.0 0 0 970.8 NA 0.0000 9999 3610 0 0 0
2019/10/10 03:37:00 BASE 11.70 27 14.76 25 -4.9 85 -7.0 0 0 970.8 NA 0.0000 9999 3610 0 0 0
2019/10/10 03:38:01 BASE 12.37 25 14.76 25 -4.9 85 -7.0 0 0 970.8 NA 0.0000 9999 3640 0 0 0
2019/10/10 03:39:00 BASE 11.52 25 14.76 25 -4.9 85 -7.0 0 0 970.9 NA 0.0000 9999 2560 3610 0 0
2019/10/10 03:40:00 BASE 12.21 25 14.76 25 -4.9 85 -7.0 0 0 970.8 NA 0.0000 9999 2490 3610 0 0
2019/10/10 03:41:01 BASE 13.61 23 14.97 24 -4.9 85 -7.0 0 0 970.8 NA 0.0000 9999 2490 3640 0 0
2019/10/10 03:42:01 BASE 13.70 23 14.97 24 -4.9 85 -7.0 0 0 970.8 NA 0.0000 9999 2460 0 0 0
2019/10/10 03:43:00 BASE 12.71 25 14.97 24 -4.9 85 -7.0 0 0 970.9 NA 0.0000 9999 2460 3710 0 0
2019/10/10 03:44:01 BASE 11.70 25 14.97 24 -4.9 85 -7.0 0 0 970.8 NA 0.0000 9999 2430 3640 0 0
2019/10/10 03:45:00 BASE 12.06 25 14.97 24 -4.9 85 -7.0 0 0 970.9 NA 0.0000 9999 2430 3480 0 0
2019/10/10 03:46:00 BASE 11.68 27 14.97 24 -4.9 85 -7.0 0 0 970.9 NA 0.0000 9999 2400 3540 0 0
2019/10/10 03:47:00 BASE 12.06 27 14.97 24 -4.9 85 -7.0 0 0 970.8 NA 0.0000 9999 2400 0 0 0
2019/10/10 03:48:01 BASE 12.85 24 14.97 24 -4.9 85 -7.0 0 0 970.8 NA 0.0000 9999 2400 0 0 0
2019/10/10 03:49:00 BASE 12.93 23 14.97 24 -4.9 85 -7.0 0 0 970.8 NA 0.0000 9999 2360 0 0 0
2019/10/10 03:50:01 BASE 12.68 24 14.97 24 -4.9 85 -7.0 0 0 970.9 NA 0.0000 9999 2360 3580 0 0
2019/10/10 03:51:00 BASE 11.75 24 14.92 23 -4.9 85 -7.0 0 0 970.9 NA 0.0000 9999 2330 0 0 0
2019/10/10 03:52:00 BASE 10.89 23 14.35 22 -4.9 85 -7.0 0 0 970.9 NA 0.0000 9999 2300 0 0 0
2019/10/10 03:53:01 BASE 11.25 25 14.35 22 -4.9 85 -7.1 0 0 970.9 NA 0.0000 9999 2360 3510 0 0
2019/10/10 03:54:00 BASE 12.19 25 14.25 28 -4.9 85 -7.0 0 0 970.9 NA 0.0000 9999 2360 0 0 0
2019/10/10 03:55:00 BASE 12.25 25 14.25 28 -4.9 85 -7.0 0 0 970.9 NA 0.0000 9999 2360 0 0 0
2019/10/10 03:56:00 BASE 11.64 26 14.25 28 -4.9 86 -7.0 0 0 970.9 NA 0.0000 9999 2360 0 0 0
2019/10/10 03:57:00 BASE 11.58 26 14.25 28 -4.9 86 -6.9 0 0 970.9 NA 0.0000 9999 2360 0 0 0
2019/10/10 03:58:00 BASE 12.01 24 14.25 28 -4.9 86 -6.9 0 0 970.9 NA 0.0000 9999 2360 0 0 0
2019/10/10 03:59:00 BASE 11.72 25 13.94 26 -4.9 86 -6.9 0 0 970.9 NA 0.0000 9999 2360 0 0 0
2019/10/10 04:00:01 BASE 11.47 27 13.94 26 -4.9 86 -6.9 0 0 970.9 NA 0.0000 9999 2330 0 0 0
2019/10/10 04:01:00 BASE 11.11 29 13.94 26 -4.9 86 -6.9 0 0 971.0 NA 0.0000 9999 2360 0 0 0
2019/10/10 04:02:00 BASE 11.30 28 13.94 26 -4.9 86 -6.9 0 0 970.9 NA 0.0000 9999 2300 0 0 0
2019/10/10 04:03:00 BASE 11.59 23 13.94 26 -4.9 86 -6.9 0 0 970.9 NA 0.0000 9999 2260 0 0 0
2019/10/10 04:04:01 BASE 10.80 23 13.94 26 -4.9 86 -6.9 0 0 970.9 NA 0.0000 9999 2300 0 0 0
2019/10/10 04:05:00 BASE 10.13 24 13.94 26 -4.9 86 -6.9 0 0 971.0 NA 0.0000 9999 2260 0 0 0
2019/10/10 04:06:01 BASE 10.66 25 13.94 26 -4.9 86 -6.9 0 0 971.0 NA 0.0000 9999 2260 0 0 0
2019/10/10 04:07:01 BASE 11.54 25 13.94 26 -4.9 86 -6.9 0 0 971.0 NA 0.0000 9999 2260 0 0 0
2019/10/10 04:08:01 BASE 11.18 21 12.96 25 -4.9 86 -6.9 0 0 971.0 NA 0.0000 9999 2260 0 0 0
2019/10/10 04:09:00 BASE 11.09 20 12.96 25 -4.9 86 -6.8 0 0 970.9 NA 0.0000 9999 2230 0 0 0
2019/10/10 04:10:01 BASE 10.88 22 12.96 25 -4.9 86 -6.8 0 0 971.0 NA 0.0000 9999 2260 0 0 0
2019/10/10 04:11:01 BASE 10.00 25 12.96 25 -4.9 86 -6.8 0 0 971.0 NA 0.0000 9999 2260 0 0 0
2019/10/10 04:12:01 BASE 10.48 24 12.35 20 -4.9 86 -6.8 0 0 971.0 NA 0.0000 9999 2230 0 0 0
2019/10/10 04:13:00 BASE 11.39 23 12.35 20 -4.9 86 -6.8 0 0 971.0 NA 0.0000 9999 2230 0 0 0
2019/10/10 04:14:01 BASE 10.87 22 12.35 20 -4.9 86 -6.9 0 0 971.0 NA 0.0000 9999 2230 0 0 0
2019/10/10 04:15:01 BASE 9.52 22 12.35 20 -4.9 86 -6.9 0 0 971.0 NA 0.0000 9999 2300 0 0 0
2019/10/10 04:16:01 BASE 8.42 25 12.35 20 -4.9 86 -6.9 0 0 971.0 NA 0.0000 9999 2230 0 0 0
2019/10/10 04:17:01 BASE 8.58 28 12.35 20 -4.9 86 -6.9 0 0 971.0 NA 0.0000 9999 2230 0 0 0
2019/10/10 04:18:01 BASE 9.69 29 12.35 20 -4.9 86 -6.9 0 0 971.0 NA 0.0000 9999 2230 0 0 0
2019/10/10 04:19:00 BASE 10.37 27 12.30 24 -4.9 86 -6.9 0 0 971.0 NA 0.0000 9999 2230 0 0 0
2019/10/10 04:20:01 BASE 10.17 28 12.30 24 -4.9 86 -6.9 0 0 971.0 NA 0.0000 9999 2230 0 0 0
2019/10/10 04:21:00 BASE 9.76 30 12.30 24 -4.9 86 -6.9 0 0 971.0 NA 0.0000 9999 2200 0 0 0
2019/10/10 04:22:01 BASE 9.48 31 12.30 24 -4.9 86 -6.9 0 0 971.0 NA 0.0000 9999 2200 0 0 0
2019/10/10 04:23:01 BASE 9.67 29 12.14 17 -4.9 86 -6.9 0 0 971.0 NA 0.0000 9999 2230 0 0 0
2019/10/10 04:24:01 BASE 10.60 25 12.55 25 -4.9 86 -6.9 0 0 971.0 NA 0.0000 9999 2230 0 0 0
2019/10/10 04:25:01 BASE 10.63 25 12.55 25 -5.0 86 -6.9 0 0 971.0 NA 0.0000 9999 2230 0 0 0
2019/10/10 04:26:01 BASE 9.68 25 12.55 25 -5.0 86 -6.9 0 0 971.0 NA 0.0000 9999 2230 0 0 0
2019/10/10 04:27:00 BASE 9.64 25 12.55 25 -5.0 86 -6.9 0 0 971.0 NA 0.0000 9999 2200 0 0 0
2019/10/10 04:28:01 BASE 10.05 26 12.55 25 -5.0 86 -6.9 0 0 971.0 NA 0.0000 9999 2200 0 0 0
2019/10/10 04:29:00 BASE 9.78 28 12.55 25 -5.0 87 -6.9 0 0 971.0 NA 0.0000 9999 2200 0 0 0
2019/10/10 04:30:01 BASE 9.76 28 12.55 25 -5.0 87 -6.9 0 0 971.0 NA 0.0000 9999 2200 0 0 0
2019/10/10 04:31:00 BASE 9.67 29 12.55 25 -5.0 87 -6.8 0 0 971.0 NA 0.0000 9999 2200 0 0 0
2019/10/10 04:32:01 BASE 9.34 30 12.55 25 -5.0 87 -6.8 0 0 971.0 NA 0.0000 9999 2200 0 0 0
2019/10/10 04:33:00 BASE 9.06 27 12.55 25 -5.0 87 -6.8 0 0 971.0 NA 0.0000 9999 2200 0 0 0
2019/10/10 04:34:01 BASE 8.99 25 11.78 25 -5.0 87 -6.9 0 0 971.0 NA 0.0000 9999 2230 0 0 0
2019/10/10 04:35:01 BASE 9.31 24 11.73 26 -5.0 87 -6.9 0 0 971.0 NA 0.0000 9999 2230 0 0 0
2019/10/10 04:36:01 BASE 9.62 24 11.73 26 -5.0 86 -6.9 0 0 971.0 NA 0.0000 9999 2230 0 0 0
2019/10/10 04:37:00 BASE 10.12 25 11.73 26 -5.0 86 -6.9 0 0 971.0 NA 0.0000 9999 2230 0 0 0
2019/10/10 04:38:01 BASE 9.89 25 10.96 25 -5.0 86 -7.0 0 0 971.0 NA 0.0000 9999 2200 0 0 0
2019/10/10 04:39:00 BASE 8.99 26 10.96 25 -5.0 86 -7.0 0 0 971.1 NA 0.0000 9999 2230 0 0 0
2019/10/10 04:40:01 BASE 9.31 26 11.32 29 -5.0 86 -7.0 0 0 971.0 NA 0.0000 -SN 9999 2200 0 0 0
2019/10/10 04:41:00 BASE 9.79 26 11.32 29 -5.0 86 -7.0 0 0 971.0 NA 0.0000 -SN 9999 2200 0 0 0
2019/10/10 04:42:01 BASE 9.08 26 11.32 29 -5.0 86 -7.0 0 0 971.1 NA 0.0000 -SN 9999 2230 0 0 0
2019/10/10 04:43:00 BASE 8.51 26 11.32 29 -5.0 86 -6.9 0 0 971.1 NA 0.0000 -SN 9999 2200 0 0 0
2019/10/10 04:44:01 BASE 8.60 25 11.32 29 -5.0 86 -6.9 0 0 971.1 NA 0.0000 -SN 9999 2230 0 0 0
2019/10/10 04:45:00 BASE 9.48 27 11.32 29 -5.0 87 -6.9 0 0 971.1 NA 0.0000 -SN 9999 2230 0 0 0
2019/10/10 04:46:01 BASE 9.87 28 11.32 29 -5.0 87 -6.9 0 0 971.1 NA 0.0000 -SN 9999 2230 0 0 0
2019/10/10 04:47:00 BASE 10.08 28 11.32 27 -5.0 87 -6.8 0 0 971.1 NA 0.0000 -SN 9999 2200 0 0 0
2019/10/10 04:48:00 BASE 10.44 28 11.32 27 -5.0 87 -6.8 0 0 971.1 NA 0.0000 -SN 9999 2200 0 0 0
2019/10/10 04:49:01 BASE 9.72 27 11.32 27 -5.0 87 -6.8 0 0 971.1 NA 0.0000 -SN 9999 2230 0 0 0
2019/10/10 04:50:00 BASE 9.66 29 11.32 27 -5.0 87 -6.8 0 0 971.1 NA 0.0000 -SN 9999 2200 0 0 0
2019/10/10 04:51:00 BASE 9.58 30 11.32 27 -5.0 87 -6.8 0 0 971.1 NA 0.0000 -SN 9999 2200 0 0 0
2019/10/10 04:52:00 BASE 8.86 31 11.32 27 -5.0 87 -6.8 0 0 971.1 NA 0.0000 -SN 9999 2200 0 0 0
2019/10/10 04:53:00 BASE 8.91 33 11.32 27 -5.0 87 -6.8 0 0 971.1 NA 0.0000 -SN 9999 2170 0 0 0
2019/10/10 04:54:01 BASE 8.37 35 11.32 27 -5.0 87 -6.8 0 0 971.2 NA 0.0000 -SN 9999 2200 0 0 0
2019/10/10 04:55:01 BASE 7.68 35 11.32 27 -5.0 87 -6.8 0 0 971.2 NA 0.0000 -SN 9999 2230 0 0 0
2019/10/10 04:56:01 BASE 8.09 38 11.32 27 -5.0 87 -6.8 0 0 971.2 NA 0.0000 -SN 9999 2200 0 0 0
2019/10/10 04:57:00 BASE 8.67 38 10.96 30 -5.0 87 -6.8 0 0 971.2 NA 0.0000 -SN 9999 2200 0 0 0
2019/10/10 04:58:00 BASE 8.17 34 10.65 32 -4.9 87 -6.8 0 0 971.2 NA 0.0000 -SN 9999 2230 0 0 0
2019/10/10 04:59:00 BASE 7.23 33 10.65 32 -4.9 87 -6.7 0 0 971.2 NA 0.0000 -SN 9999 2230 0 0 0
2019/10/10 05:00:01 BASE 7.00 34 9.67 41 -4.9 87 -6.7 0 0 971.2 NA 0.0000 -SN 9999 790 0 0 0
2019/10/10 05:01:00 BASE 6.74 36 9.67 41 -4.9 87 -6.7 0 0 971.2 NA 0.0000 -SN 9999 660 0 0 0
2019/10/10 05:02:01 BASE 6.88 35 9.67 41 -4.9 87 -6.7 0 0 971.2 NA 0.0000 -SN 9999 620 0 0 0
2019/10/10 05:03:00 BASE 6.69 33 9.47 33 -4.8 87 -6.7 0 0 971.2 NA 0.0000 -SN 9999 690 0 0 0
2019/10/10 05:04:01 BASE 5.90 35 9.47 33 -4.8 87 -6.7 0 0 971.2 NA 0.0000 -SN 9999 690 0 0 0
2019/10/10 05:05:00 BASE 5.62 38 9.47 33 -4.8 87 -6.7 0 0 971.2 NA 0.0000 -SN 9999 790 0 0 0
2019/10/10 05:06:01 BASE 6.18 36 9.47 33 -4.8 87 -6.7 0 0 971.2 NA 0.0000 -SN 9999 720 0 0 0
2019/10/10 05:07:00 BASE 6.85 35 8.39 36 -4.9 87 -6.7 0 0 971.2 NA 0.0000 -SN 9999 590 0 0 0
2019/10/10 05:08:01 BASE 6.63 33 8.08 40 -4.9 87 -6.7 0 0 971.2 NA 0.0000 -SN 9999 590 0 0 0
2019/10/10 05:09:00 BASE 5.87 31 8.08 40 -4.9 87 -6.7 0 0 971.2 NA 0.0000 -SN 9999 1480 0 0 0
2019/10/10 05:10:00 BASE 5.70 32 8.08 40 -4.9 87 -6.7 0 0 971.2 NA 0.0000 -SN 9999 1840 0 0 0
2019/10/10 05:11:00 BASE 5.93 33 8.08 40 -4.9 87 -6.7 0 0 971.2 NA 0.0000 -SN 9999 430 0 0 0
2019/10/10 05:12:00 BASE 6.22 32 7.72 37 -4.9 88 -6.7 0 0 971.2 NA 0.0000 -SN 9999 360 0 0 0
2019/10/10 05:13:00 BASE 6.55 30 7.72 37 -5.0 88 -6.6 0 0 971.2 NA 0.0000 -SN 9999 330 0 0 0
2019/10/10 05:14:01 BASE 6.28 27 7.72 37 -5.0 88 -6.6 0 0 971.2 NA 0.0000 -SN 9000 330 0 0 0
2019/10/10 05:15:00 BASE 5.71 29 7.72 37 -5.0 89 -6.6 0 0 971.2 NA 0.0000 -SN 9999 300 0 0 0
2019/10/10 05:16:00 BASE 5.69 33 7.46 34 -5.0 89 -6.6 0 0 971.2 NA 0.0000 -SN 7000 300 0 0 0
2019/10/10 05:17:00 BASE 5.78 32 7.46 34 -5.0 89 -6.5 0 0 971.2 NA 0.0000 -SN 7000 2170 0 0 0
2019/10/10 05:18:00 BASE 5.68 31 7.46 34 -5.0 89 -6.5 0 0 971.2 NA 0.0000 -SN BR 8000 260 0 0 0
2019/10/10 05:19:00 BASE 5.67 30 7.46 34 -5.0 89 -6.5 0 0 971.2 NA 0.0000 -SN BR 9999 260 0 0 0
2019/10/10 05:20:00 BASE 6.53 30 7.97 35 -5.0 90 -6.5 0 0 971.2 NA 0.0000 -SN BR 9000 260 0 0 0
2019/10/10 05:21:00 BASE 7.03 31 7.97 35 -5.0 90 -6.4 0 0 971.2 NA 0.0000 -SN BR 5000 230 0 0 0
2019/10/10 05:22:00 BASE 6.58 30 7.97 35 -5.0 90 -6.4 0 0 971.2 NA 0.0000 -SN BR 5000 230 0 0 0
2019/10/10 05:23:00 BASE 6.60 29 7.97 35 -5.1 90 -6.5 0 0 971.2 NA 0.0000 -SN BR 6000 260 0 0 0
2019/10/10 05:24:00 BASE 6.26 31 7.97 35 -5.1 90 -6.4 0 0 971.2 NA 0.0000 -SN BR 7000 260 0 0 0
2019/10/10 05:25:00 BASE 6.16 33 7.97 35 -5.1 90 -6.4 0 0 971.2 NA 0.0000 -SN BR 4800 200 0 0 0
2019/10/10 05:26:01 BASE 6.29 32 7.97 35 -5.1 91 -6.4 0 0 971.2 NA 0.0000 -SN BR 3800 200 0 0 0
2019/10/10 05:27:00 BASE 5.75 30 7.97 35 -5.1 91 -6.4 0 0 971.3 NA 0.0000 -SN BR 4200 0 0 0 2590
2019/10/10 05:28:01 BASE 5.40 32 7.97 35 -5.1 91 -6.3 0 0 971.3 NA 0.0000 -SN BR 3900 0 0 0 2790
2019/10/10 05:29:00 BASE 5.53 33 7.97 35 -5.2 92 -6.3 0 0 971.3 NA 0.0000 -SN BR 4200 0 0 0 2820
2019/10/10 05:30:00 BASE 5.37 34 7.61 28 -5.2 92 -6.3 0 0 971.4 NA 0.0000 -SN BR 3900 0 0 0 2590
2019/10/10 05:31:00 BASE 5.08 35 7.61 28 -5.2 92 -6.3 0 0 971.4 NA 0.0000 -SN BR 3800 0 0 0 2660
2019/10/10 05:32:01 BASE 5.25 32 7.46 32 -5.2 92 -6.2 0 0 971.3 NA 0.0000 -SN BR 3600 0 0 0 2590
2019/10/10 05:33:01 BASE 5.26 29 6.94 29 -5.2 93 -6.2 0 0 971.4 NA 0.0000 -SN BR 3400 0 0 0 2620
2019/10/10 05:34:00 BASE 5.26 32 6.94 29 -5.2 93 -6.2 0 0 971.4 NA 0.0000 -SN BR 3500 230 0 0 0
2019/10/10 05:35:00 BASE 5.20 37 6.84 25 -5.3 93 -6.2 0 0 971.4 NA 0.0000 -SN BR 3500 0 0 0 2590
2019/10/10 05:36:00 BASE 5.12 35 6.17 41 -5.3 94 -6.1 0 0 971.4 NA 0.0000 -SN BR 3900 230 0 0 0
2019/10/10 05:37:00 BASE 5.15 30 6.17 41 -5.3 94 -6.1 0 0 971.4 NA 0.0000 -SN BR 4000 0 0 0 2590
2019/10/10 05:38:00 BASE 4.94 28 6.12 37 -5.3 95 -6.1 0 0 971.4 NA 0.0000 -SN BR 4300 0 0 0 2490
2019/10/10 05:39:00 BASE 4.94 33 6.12 37 -5.3 95 -6.0 0 0 971.4 NA 0.0000 -SN BR 6000 230 0 0 0
2019/10/10 05:40:01 BASE 4.61 30 6.12 37 -5.4 95 -6.0 0 0 971.4 NA 0.0000 -SN BR 5000 230 0 0 0
2019/10/10 05:41:00 BASE 4.20 28 6.12 37 -5.4 95 -6.0 0 0 971.4 NA 0.0000 -SN BR 5000 230 0 0 0
2019/10/10 05:42:00 BASE 4.55 29 6.12 37 -5.4 96 -6.0 0 0 971.4 NA 0.0000 -SN BR 5000 200 0 0 0
2019/10/10 05:43:00 BASE 4.36 24 6.12 37 -5.4 96 -5.9 0 0 971.4 NA 0.0000 -SN BR 5000 0 0 0 2820
2019/10/10 05:44:00 BASE 4.05 22 5.86 38 -5.4 96 -5.9 0 0 971.4 NA 0.0000 -SN BR 3800 0 0 0 2790
2019/10/10 05:45:00 BASE 4.62 25 5.86 38 -5.4 97 -5.9 0 0 971.4 NA 0.0000 -SN BR 4400 0 0 0 2790
2019/10/10 05:46:00 BASE 5.04 28 5.86 38 -5.5 97 -5.9 0 0 971.4 NA 0.0000 -SN BR 4300 0 0 0 2660
2019/10/10 05:47:00 BASE 5.09 29 5.86 38 -5.5 97 -5.8 0 0 971.5 NA 0.0000 -SN BR 3500 0 0 0 2560
2019/10/10 05:48:00 BASE 4.68 25 5.86 38 -5.5 98 -5.8 0 0 971.5 NA 0.0000 -SN BR 3600 0 0 0 2490
2019/10/10 05:49:00 BASE 4.80 23 5.86 38 -5.5 98 -5.8 0 0 971.5 NA 0.0000 -SN BR 3400 0 0 0 2560
2019/10/10 05:50:00 BASE 5.15 22 5.86 38 -5.5 98 -5.8 0 0 971.5 NA 0.0000 -SN BR 3800 0 0 0 2490
2019/10/10 05:51:00 BASE 5.40 21 6.58 22 -5.5 98 -5.7 0 0 971.5 NA 0.0000 -SN BR 4500 0 0 0 2400
2019/10/10 05:52:00 BASE 5.50 18 6.58 22 -5.6 99 -5.7 0 0 971.5 NA 0.0000 -SN BR 5000 0 0 0 2260
2019/10/10 05:53:00 BASE 5.41 16 6.58 22 -5.6 99 -5.7 0 0 971.5 NA 0.0000 -SN BR 4800 0 0 0 2170
2019/10/10 05:54:00 BASE 5.64 16 6.58 22 -5.6 99 -5.7 0 0 971.5 NA 0.0000 -SN BR 4500 0 0 0 2070
2019/10/10 05:55:00 BASE 5.50 16 6.58 22 -5.6 99 -5.7 0 0 971.5 NA 0.0000 -SN BR 3900 0 0 0 2030
2019/10/10 05:56:00 BASE 5.26 15 6.58 22 -5.6 100 -5.7 0 0 971.5 NA 0.0000 -SN BR 2800 0 0 0 1940
2019/10/10 05:57:00 BASE 5.30 16 6.58 22 -5.6 100 -5.7 0 0 971.6 NA 0.0000 -SN BR 3800 0 0 0 1840
2019/10/10 05:58:00 BASE 5.39 17 6.58 22 -5.7 100 -5.7 0 0 971.6 NA 0.0000 -SN BR 3300 0 0 0 1740
2019/10/10 05:59:01 BASE 5.17 15 6.58 22 -5.7 100 -5.7 0 0 971.6 NA 0.0000 -SN BR 3100 0 0 0 1640
2019/10/10 06:00:00 BASE 5.11 14 6.58 22 -5.7 100 -5.7 0 0 971.6 NA 0.0000 -SN BR 3100 0 0 0 1610
2019/10/10 06:01:00 BASE 5.17 14 6.17 17 -5.7 100 -5.7 0 0 971.6 NA 0.0000 -SN BR 2500 0 0 0 1540
2019/10/10 06:02:01 BASE 5.32 13 6.17 17 -5.7 100 -5.7 0 0 971.6 NA 0.0000 -SN BR 2100 0 0 0 1540
2019/10/10 06:03:00 BASE 5.30 12 6.17 17 -5.7 100 -5.7 0 0 971.6 NA 0.0000 -SN BR 2700 0 0 0 1480
2019/10/10 06:04:00 BASE 5.01 14 6.07 12 -5.7 100 -5.7 0 0 971.6 NA 0.0000 -SN BR 2600 0 0 0 1480
2019/10/10 06:05:00 BASE 4.60 16 6.07 12 -5.7 100 -5.7 0 0 971.6 NA 0.0000 -SN BR 2200 0 0 0 1480
2019/10/10 06:06:01 BASE 4.30 17 6.07 12 -5.7 100 -5.7 0 0 971.6 NA 0.0000 -SN BR 1800 0 0 0 1480
2019/10/10 06:07:00 BASE 4.26 18 6.07 12 -5.7 100 -5.7 0 0 971.6 NA 0.0000 -SN BR 1700 0 0 0 1480
2019/10/10 06:08:00 BASE 4.53 17 6.07 12 -5.7 100 -5.7 0 0 971.6 NA 0.0000 -SN BR 2100 0 0 0 1480
2019/10/10 06:09:00 BASE 4.84 16 6.07 12 -5.7 100 -5.7 0 0 971.6 NA 0.0000 -SN BR 2100 0 0 0 1410
2019/10/10 06:10:00 BASE 4.61 14 6.07 12 -5.7 100 -5.7 0 0 971.6 NA 0.0000 -SN BR 2000 0 0 0 1410
2019/10/10 06:11:00 BASE 4.64 10 6.07 12 -5.8 100 -5.8 0 0 971.6 NA 0.0000 -SN BR 2100 0 0 0 1380
2019/10/10 06:12:00 BASE 4.36 4 5.45 15 -5.8 100 -5.8 0 0 971.6 NA 0.0000 -SN BR 2900 0 0 0 1410
2019/10/10 06:13:00 BASE 3.67 1 5.35 19 -5.8 100 -5.8 0 0 971.6 NA 0.0000 -SN BR 2700 0 0 0 1380
2019/10/10 06:14:00 BASE 3.35 359 5.30 19 -5.8 100 -5.8 0 0 971.6 NA 0.0000 -SN BR 2100 0 0 0 1380
2019/10/10 06:15:00 BASE 3.16 352 5.30 19 -5.8 100 -5.8 0 0 971.6 NA 0.0000 -SN BR 2200 0 0 0 1380
2019/10/10 06:16:00 BASE 2.95 350 5.30 19 -5.8 100 -5.8 0 0 971.6 NA 0.0000 -SN BR 2100 0 0 0 1380
2019/10/10 06:17:00 BASE 2.82 352 5.30 19 -5.8 100 -5.8 0 0 971.6 NA 0.0000 -SN BR 1600 0 0 0 1440
2019/10/10 06:18:00 BASE 2.79 354 5.25 19 -5.8 100 -5.8 0 0 971.6 NA 0.0000 -SN BR 2600 0 0 0 1640
2019/10/10 06:19:00 BASE 2.58 1 5.20 18 -5.8 100 -5.8 0 0 971.6 NA 0.0000 -SN BR 2400 0 0 0 1710
2019/10/10 06:20:00 BASE 2.75 12 5.04 1 -5.8 100 -5.8 0 0 971.7 NA 0.0000 -SN BR 2200 0 0 0 1840
2019/10/10 06:21:00 BASE 3.34 16 4.53 7 -5.8 100 -5.8 0 0 971.7 NA 0.0000 -SN BR 1600 0 0 0 1940
2019/10/10 06:22:01 BASE 3.42 15 4.01 17 -5.8 100 -5.8 0 0 971.7 NA 0.0000 -SN BR 2400 0 0 0 2130
2019/10/10 06:23:01 BASE 3.31 13 4.01 17 -5.8 100 -5.8 0 0 971.7 NA 0.0000 -SN BR 2600 0 0 0 2460
2019/10/10 06:24:01 BASE 3.34 13 4.01 17 -5.8 100 -5.8 0 0 971.7 NA 0.0000 -SN BR 2600 0 0 0 2820
2019/10/10 06:25:00 BASE 3.31 16 4.01 17 -5.8 100 -5.8 0 0 971.6 NA 0.0000 -SN BR 2600 0 0 0 2890
2019/10/10 06:26:00 BASE 3.41 14 4.01 17 -5.8 100 -5.8 0 0 971.6 NA 0.0000 -SN BR 3200 0 0 0 2890
2019/10/10 06:27:00 BASE 3.59 7 4.01 17 -5.8 100 -5.8 0 0 971.6 NA 0.0000 -SN BR 3400 0 0 0 2890
2019/10/10 06:28:01 BASE 3.55 2 4.01 17 -5.8 100 -5.8 0 0 971.6 NA 0.0000 -SN BR 3400 980 0 0 0
2019/10/10 06:29:00 BASE 3.49 0 4.12 354 -5.8 100 -5.8 0 0 971.6 NA 0.0000 -SN BR 3600 300 0 0 0
2019/10/10 06:30:00 BASE 3.26 6 4.12 354 -5.8 100 -5.8 0 0 971.7 NA 0.0000 -SN BR 3400 300 0 0 0
2019/10/10 06:31:00 BASE 3.13 6 4.12 354 -5.8 100 -5.8 0 0 971.7 NA 0.0000 -SN BR 3900 300 0 0 0
2019/10/10 06:32:00 BASE 3.61 3 4.22 360 -5.8 100 -5.8 0 0 971.7 NA 0.0000 -SN BR 4400 300 0 0 0
2019/10/10 06:33:00 BASE 4.00 4 4.32 1 -5.8 100 -5.8 0 0 971.7 NA 0.0000 -SN BR 5000 300 0 0 0
2019/10/10 06:34:00 BASE 3.81 2 4.32 1 -5.8 100 -5.8 0 0 971.7 NA 0.0000 -SN BR 5000 300 0 0 0
2019/10/10 06:35:00 BASE 3.59 359 4.32 1 -5.8 100 -5.8 0 0 971.7 NA 0.0000 -SN BR 4000 330 0 0 0
2019/10/10 06:36:00 BASE 3.69 357 4.32 1 -5.8 100 -5.8 0 0 971.7 NA 0.0000 -SN BR 4200 0 0 0 3770
2019/10/10 06:37:00 BASE 3.79 358 4.32 1 -5.8 100 -5.8 0 0 971.7 NA 0.0000 -SN BR 4600 300 0 0 0
2019/10/10 06:38:00 BASE 3.75 1 4.32 1 -5.8 100 -5.8 0 0 971.7 NA 0.0000 -SN BR 4400 330 0 0 0
2019/10/10 06:39:00 BASE 3.72 2 4.32 1 -5.8 100 -5.8 0 0 971.7 NA 0.0000 -SN BR 4000 300 0 0 0
2019/10/10 06:40:00 BASE 3.65 0 4.32 1 -5.8 100 -5.8 0 0 971.7 NA 0.0000 -SN BR 5000 260 0 0 0
2019/10/10 06:41:00 BASE 3.81 358 4.32 1 -5.8 100 -5.8 0 0 971.7 NA 0.0000 -SN BR 5000 330 0 0 0
2019/10/10 06:42:00 BASE 4.22 1 4.58 2 -5.8 100 -5.8 0 0 971.7 NA 0.0000 -SN BR 5000 330 0 0 0
2019/10/10 06:43:00 BASE 4.24 1 4.68 6 -5.8 100 -5.8 0 0 971.7 NA 0.0000 -SN BR 7000 330 0 0 0
2019/10/10 06:44:00 BASE 4.04 1 4.68 6 -5.8 100 -5.8 0 0 971.7 NA 0.0000 -SN BR 5000 330 0 0 0
2019/10/10 06:45:00 BASE 3.70 1 4.68 6 -5.7 100 -5.7 0 0 971.7 NA 0.0000 -SN BR 5000 330 0 0 0
2019/10/10 06:46:00 BASE 3.42 0 4.68 6 -5.7 100 -5.7 0 0 971.7 NA 0.0000 -SN BR 5000 300 0 0 0
2019/10/10 06:47:00 BASE 3.46 2 4.68 6 -5.7 100 -5.7 0 0 971.7 NA 0.0000 -SN BR 7000 300 0 0 0
2019/10/10 06:48:00 BASE 3.65 2 4.68 6 -5.8 100 -5.8 0 0 971.7 NA 0.0000 -SN BR 6000 330 0 0 0
2019/10/10 06:49:00 BASE 3.71 2 4.68 6 -5.8 100 -5.8 0 0 971.7 NA 0.0000 -SN BR 5000 300 0 0 0
2019/10/10 06:50:00 BASE 3.45 1 4.68 6 -5.8 100 -5.8 0 0 971.7 NA 0.0000 -SN BR 7000 330 2030 0 0
2019/10/10 06:51:00 BASE 3.11 2 4.68 6 -5.8 100 -5.8 0 0 971.7 NA 0.0000 -SN BR 4500 330 0 0 0
2019/10/10 06:52:01 BASE 2.87 2 4.68 6 -5.8 100 -5.8 0 0 971.7 NA 0.0000 -SN BR 5000 330 0 0 0
2019/10/10 06:53:00 BASE 2.76 4 4.37 2 -5.8 100 -5.8 0 0 971.7 NA 0.0000 -SN BR 6000 300 1250 0 0
2019/10/10 06:54:00 BASE 2.60 7 3.96 1 -5.8 100 -5.8 0 0 971.7 NA 0.0000 -SN BR 6000 330 1180 0 0
2019/10/10 06:55:00 BASE 2.79 5 3.96 1 -5.8 100 -5.8 0 0 971.7 NA 0.0000 -SN BR 6000 330 1080 0 0
2019/10/10 06:56:00 BASE 3.47 2 4.22 351 -5.8 100 -5.8 0 0 971.7 NA 0.0000 -SN BR 6000 360 1120 0 0
2019/10/10 06:57:00 BASE 3.64 1 4.22 351 -5.8 100 -5.8 0 0 971.7 NA 0.0000 -SN BR 9999 330 0 0 0
2019/10/10 06:58:00 BASE 3.53 359 4.22 351 -5.8 100 -5.8 0 0 971.8 NA 0.0000 -SN BR 8000 330 1050 0 0
2019/10/10 06:59:00 BASE 3.48 356 4.22 351 -5.8 100 -5.8 0 0 971.8 NA 0.0000 -SN BR 7000 330 1050 0 0
2019/10/10 07:00:00 BASE 3.45 356 4.22 351 -5.8 100 -5.8 0 0 971.8 NA 0.0000 -SN BR 9999 300 980 0 0
2019/10/10 07:01:00 BASE 3.55 353 4.22 351 -5.8 100 -5.8 0 0 971.8 NA 0.0000 -SN BR 9999 260 980 0 0
2019/10/10 07:02:00 BASE 3.58 351 4.22 351 -5.8 100 -5.8 0 0 971.8 NA 0.0000 -SN BR 8000 260 1280 0 0
2019/10/10 07:03:00 BASE 3.58 354 4.22 351 -5.8 100 -5.8 0 0 971.8 NA 0.0000 -SN BR 9999 260 1050 0 0
2019/10/10 07:04:00 BASE 3.70 353 4.22 351 -5.8 100 -5.8 0 0 971.8 NA 0.0000 -SN BR 9999 260 1120 0 0
2019/10/10 07:05:00 BASE 3.89 350 4.32 350 -5.8 100 -5.8 0 0 971.8 NA 0.0000 -SN BR 9999 300 1120 0 0
2019/10/10 07:06:00 BASE 4.07 352 4.58 353 -5.8 100 -5.8 0 0 971.8 NA 0.0000 -SN BR 9999 300 1180 0 0
2019/10/10 07:07:00 BASE 4.20 354 4.58 353 -5.8 100 -5.8 0 0 971.8 NA 0.0000 -SN 9999 260 1080 0 0
2019/10/10 07:08:00 BASE 4.19 353 4.58 353 -5.8 100 -5.8 0 0 971.8 NA 0.0000 -SN 9999 260 1150 0 0
2019/10/10 07:09:00 BASE 4.05 351 4.58 353 -5.8 100 -5.8 0 0 971.8 NA 0.0000 -SN 9000 260 1250 0 0
2019/10/10 07:10:00 BASE 3.90 347 4.58 353 -5.9 100 -5.9 0 0 971.8 NA 0.0000 -SN 9999 260 1280 0 0
2019/10/10 07:11:00 BASE 3.57 343 4.58 353 -5.9 100 -5.9 0 0 971.8 NA 0.0000 -SN 9999 260 980 0 0
2019/10/10 07:12:00 BASE 3.16 338 4.58 353 -5.9 100 -5.9 0 0 971.8 NA 0.0000 -SN 9999 260 1250 0 0
2019/10/10 07:13:00 BASE 2.58 326 4.58 353 -5.9 100 -5.9 0 0 971.8 NA 0.0000 -SN 9999 260 1280 0 0
2019/10/10 07:14:00 BASE 1.75 306 4.58 353 -5.9 100 -5.9 0 0 971.8 NA 0.0000 -SN 9999 260 1310 0 0
2019/10/10 07:15:00 BASE 1.59 301 4.58 353 -5.9 100 -5.9 0 0 971.8 NA 0.0000 -SN 8000 260 1350 0 0
2019/10/10 07:16:00 BASE 1.87 316 4.42 351 -6.0 100 -6.0 0 0 971.9 NA 0.0000 -SN 8000 260 1310 0 0
2019/10/10 07:17:00 BASE 1.98 325 4.42 351 -6.0 100 -6.0 0 0 971.9 NA 0.0000 -SN 9999 300 1210 0 0
2019/10/10 07:18:00 BASE 2.09 331 4.37 355 -6.0 100 -6.0 0 0 972.0 NA 0.0000 -SN 9999 260 1120 0 0
2019/10/10 07:19:00 BASE 2.03 340 4.06 350 -6.0 100 -6.0 0 0 972.0 NA 0.0000 -SN 9999 300 2330 0 0
2019/10/10 07:20:01 BASE 1.93 347 3.45 345 -6.0 100 -6.0 0 0 972.0 NA 0.0000 -SN 9999 300 1150 0 0
2019/10/10 07:21:00 BASE 2.26 351 3.19 331 -5.9 100 -5.9 0 0 972.0 NA 0.0000 -SN 9999 300 1080 0 0
2019/10/10 07:22:01 BASE 2.86 356 3.34 352 -5.9 100 -5.9 0 0 972.0 NA 0.0000 -SN 9999 300 1120 0 0
2019/10/10 07:23:00 BASE 3.18 355 3.34 350 -5.9 100 -5.9 0 0 972.0 NA 0.0000 -SN 9999 300 0 0 0
2019/10/10 07:24:00 BASE 3.05 347 3.34 350 -5.9 100 -5.9 0 0 972.0 NA 0.0000 -SN 9999 300 0 0 0
2019/10/10 07:25:00 BASE 2.74 340 3.34 350 -5.9 100 -5.9 0 0 972.0 NA 0.0000 -SN 9999 300 0 0 0
2019/10/10 07:26:00 BASE 2.51 332 3.34 350 -5.9 100 -5.9 0 0 972.1 NA 0.0000 -SN 9999 260 0 0 0
2019/10/10 07:27:00 BASE 2.45 327 3.34 350 -5.9 100 -5.9 0 0 972.1 NA 0.0000 -SN 9999 300 0 0 0
2019/10/10 07:28:00 BASE 2.56 327 3.34 350 -5.9 100 -5.9 0 0 972.1 NA 0.0000 -SN 9999 300 1610 0 0
2019/10/10 07:29:00 BASE 2.69 328 3.34 350 -5.9 100 -5.9 0 0 972.1 NA 0.0000 -SN 9999 300 2430 0 0
2019/10/10 07:30:00 BASE 2.66 328 3.34 350 -5.9 100 -5.9 0 0 972.1 NA 0.0000 -SN 9999 300 0 0 0
2019/10/10 07:31:00 BASE 2.70 328 3.34 350 -5.9 100 -5.9 0 0 972.1 NA 0.0000 -SN 9999 300 2490 0 0
2019/10/10 07:32:00 BASE 2.66 323 3.34 350 -5.9 100 -5.9 0 0 972.1 NA 0.0000 -SN 9999 360 1670 0 0
2019/10/10 07:33:00 BASE 2.40 311 3.04 346 -5.9 100 -5.9 0 0 972.1 NA 0.0000 -SN 9999 360 1640 0 0
2019/10/10 07:34:00 BASE 2.13 301 2.93 330 -5.9 100 -5.9 0 0 972.1 NA 0.0000 -SN 9999 360 0 0 0
2019/10/10 07:35:00 BASE 1.92 297 2.93 330 -6.0 100 -6.0 0 0 972.1 NA 0.0000 -SN 9999 360 0 0 0
2019/10/10 07:36:00 BASE 1.88 300 2.93 330 -6.0 100 -6.0 0 0 972.1 NA 0.0000 -SN 9999 360 0 0 0
2019/10/10 07:37:00 BASE 1.97 309 2.93 330 -6.0 100 -6.0 0 0 972.1 NA 0.0000 -SN 9999 360 2070 0 0
2019/10/10 07:38:00 BASE 2.07 314 2.93 330 -5.9 100 -5.9 0 0 972.1 NA 0.0000 -SN 9999 360 2400 0 0
2019/10/10 07:39:00 BASE 2.09 313 2.93 330 -5.9 100 -5.9 0 0 972.1 NA 0.0000 -SN 9999 360 0 0 0
2019/10/10 07:40:00 BASE 2.08 312 2.93 330 -5.9 100 -5.9 0 0 972.1 NA 0.0000 -SN 9999 360 2400 0 0
2019/10/10 07:41:00 BASE 2.11 312 2.68 321 -5.9 100 -5.9 0 0 972.1 NA 0.0000 -SN 9999 330 2360 0 0
2019/10/10 07:42:00 BASE 2.21 313 2.42 308 -5.9 100 -5.9 0 0 972.1 NA 0.0000 -SN 9999 360 2360 0 0
2019/10/10 07:43:00 BASE 2.23 313 2.37 315 -5.9 100 -5.9 0 0 972.1 NA 0.0000 -SN 9999 360 2360 0 0
2019/10/10 07:44:00 BASE 2.13 311 2.37 315 -5.9 100 -5.9 0 0 972.1 NA 0.0000 -SN 9999 390 2360 0 0
2019/10/10 07:45:00 BASE 2.03 310 2.37 315 -5.9 100 -5.9 0 0 972.2 NA 0.0000 -SN 9999 390 2300 0 0
2019/10/10 07:46:00 BASE 1.86 309 2.37 315 -5.9 100 -5.9 0 0 972.2 NA 0.0000 -SN 9999 390 2330 0 0
2019/10/10 07:47:00 BASE 1.71 308 2.37 315 -5.9 100 -5.9 0 0 972.2 NA 0.0000 -SN 9999 1510 2330 0 0
2019/10/10 07:48:00 BASE 1.65 309 2.37 315 -6.0 100 -6.0 0 0 972.2 NA 0.0000 -SN 9999 1610 2400 0 0
2019/10/10 07:49:00 BASE 1.58 315 2.37 315 -6.0 100 -6.0 0 0 972.2 NA 0.0000 -SN 9999 1480 0 0 0
2019/10/10 07:50:00 BASE 1.53 320 2.37 315 -6.0 100 -6.0 0 0 972.2 NA 0.0000 -SN 9999 1480 0 0 0
2019/10/10 07:51:00 BASE 1.54 322 2.37 315 -5.9 100 -5.9 0 0 972.2 NA 0.0000 -SN 9999 1410 0 0 0
2019/10/10 07:52:01 BASE 1.58 324 2.31 312 -5.9 100 -5.9 0 0 972.2 NA 0.0000 -SN 9999 1410 0 0 0
2019/10/10 07:53:00 BASE 1.55 324 2.16 311 -5.9 100 -5.9 0 0 972.2 NA 0.0000 -SN 9999 620 0 0 0
2019/10/10 07:54:00 BASE 1.54 321 2.11 311 -5.9 100 -5.9 0 0 972.2 NA 0.0000 -SN 9999 390 0 0 0
2019/10/10 07:55:00 BASE 1.57 317 1.80 308 -5.9 100 -5.9 0 0 972.2 NA 0.0000 -SN 9999 390 0 0 0
2019/10/10 07:56:00 BASE 1.61 316 1.75 308 -5.9 100 -5.9 0 0 972.2 NA 0.0000 -SN 9999 390 2430 0 0
2019/10/10 07:57:00 BASE 1.62 320 1.70 325 -5.9 100 -5.9 0 0 972.2 NA 0.0000 -SN 9999 750 1250 0 0
2019/10/10 07:58:00 BASE 1.59 325 1.70 327 -5.9 100 -5.9 0 0 972.2 NA 0.0000 -SN 9999 620 1280 0 0
2019/10/10 07:59:00 BASE 1.59 327 1.70 327 -5.9 100 -5.9 0 0 972.2 NA 0.0000 -SN 9999 590 0 0 0
2019/10/10 08:00:00 BASE 1.60 327 1.70 326 -5.9 100 -5.9 0 0 972.2 NA 0.0000 -SN 9999 620 0 0 0
2019/10/10 08:01:00 BASE 1.54 324 1.70 326 -5.9 100 -5.9 0 0 972.2 NA 0.0000 -SN 9999 390 0 0 0
2019/10/10 08:02:00 BASE 1.44 320 1.70 326 -5.9 100 -5.9 0 0 972.3 NA 0.0000 -SN 9999 390 1380 0 0
2019/10/10 08:03:00 BASE 1.40 318 1.70 326 -5.9 100 -5.9 0 0 972.3 NA 0.0000 -SN 9999 390 0 0 0
2019/10/10 08:04:00 BASE 1.37 317 1.70 326 -5.9 100 -5.9 0 0 972.3 NA 0.0000 -SN 9999 390 1280 0 0
2019/10/10 08:05:00 BASE 1.34 317 1.70 326 -5.9 100 -5.9 0 0 972.3 NA 0.0000 -SN 9999 360 0 0 0
2019/10/10 08:06:00 BASE 1.35 320 1.70 326 -5.9 100 -5.9 0 0 972.3 NA 0.0000 -SN 9999 360 0 0 0
2019/10/10 08:07:00 BASE 1.38 323 1.70 326 -5.9 100 -5.9 0 0 972.3 NA 0.0000 -SN 9999 360 0 0 0
2019/10/10 08:08:00 BASE 1.39 325 1.70 326 -5.9 100 -5.9 0 0 972.3 NA 0.0000 -SN 9999 360 0 0 0
2019/10/10 08:09:00 BASE 1.36 326 1.70 326 -5.9 100 -5.9 0 0 972.3 NA 0.0000 -SN 9999 390 0 0 0
2019/10/10 08:10:00 BASE 1.29 338 1.54 322 -5.9 100 -5.9 0 0 972.3 NA 0.0000 -SN 9999 390 0 0 0
2019/10/10 08:11:00 BASE 1.19 1 1.44 325 -5.9 100 -5.9 0 0 972.3 NA 0.0000 -SN 9999 390 0 0 0
2019/10/10 08:12:00 BASE 1.18 10 1.44 325 -5.9 100 -5.9 0 0 972.3 NA 0.0000 -SN 9999 330 0 0 0
2019/10/10 08:13:00 BASE 1.17 8 1.44 325 -5.9 100 -5.9 0 0 972.3 NA 0.0000 -SN 9999 330 0 0 0
2019/10/10 08:14:00 BASE 0.90 7 1.44 325 -6.0 100 -6.0 0 0 972.3 NA 0.0000 -SN 9999 330 0 0 0
2019/10/10 08:15:00 BASE 0.46 5 1.44 325 -6.0 100 -6.0 0 0 972.3 NA 0.0000 -SN 9999 390 2330 0 0
2019/10/10 08:16:00 BASE 0.50 3 1.44 325 -6.0 100 -6.0 0 0 972.3 NA 0.0000 -SN 9999 390 2300 0 0
2019/10/10 08:17:00 BASE 0.50 4 1.44 325 -6.0 100 -6.0 0 0 972.3 NA 0.0000 -SN 9999 360 1210 0 0
2019/10/10 08:18:00 BASE 0.14 7 1.39 3 -5.9 100 -5.9 0 0 972.3 NA 0.0000 -SN 9000 360 2360 0 0
2019/10/10 08:19:00 BASE 0.00 6 1.39 3 -5.9 100 -5.9 0 0 972.3 NA 0.0000 -SN 8000 390 0 0 0
2019/10/10 08:20:00 BASE 0.00 2 1.39 3 -5.9 100 -5.9 0 0 972.3 NA 0.0000 -SN 7000 460 0 0 0
2019/10/10 08:21:00 BASE 0.00 357 1.39 3 -5.9 100 -5.9 0 0 972.3 NA 0.0000 -SN 9999 430 0 0 0
2019/10/10 08:22:00 BASE 0.00 348 1.34 10 -5.8 100 -5.8 0 0 972.3 NA 0.0000 -SN 9999 430 0 0 0
2019/10/10 08:23:00 BASE 0.00 344 1.23 8 -5.8 100 -5.8 0 0 972.3 NA 0.0000 -SN 9999 430 0 0 0
2019/10/10 08:24:00 BASE 0.00 344 1.18 360 -5.8 100 -5.8 0 0 972.3 NA 0.0000 -SN 9999 390 0 0 0
2019/10/10 08:25:00 BASE 0.00 344 1.18 360 -5.8 100 -5.8 0 0 972.3 NA 0.0000 -SN 9000 660 0 0 0
2019/10/10 08:26:00 BASE 0.00 341 1.18 360 -5.8 100 -5.8 0 0 972.3 NA 0.0000 -SN 9999 430 0 0 0
2019/10/10 08:27:00 BASE 0.00 336 M M -5.8 100 -5.8 0 0 972.3 NA 0.0000 -SN 9999 430 0 0 0
2019/10/10 08:28:00 BASE 0.13 330 1.08 330 -5.8 100 -5.8 0 0 972.3 NA 0.0000 -SN 9999 390 0 0 0
2019/10/10 08:29:00 BASE 0.13 325 1.08 330 -5.8 100 -5.8 0 0 972.3 NA 0.0000 -SN 9999 430 0 0 0
2019/10/10 08:30:00 BASE 0.00 325 1.08 330 -5.8 100 -5.8 0 0 972.3 NA 0.0000 -SN 9999 390 0 0 0
2019/10/10 08:31:00 BASE 0.00 323 1.08 330 -5.9 100 -5.9 0 0 972.3 NA 0.0000 -SN 9999 390 0 0 0
2019/10/10 08:32:00 BASE 0.00 320 1.08 330 -5.9 100 -5.9 0 0 972.3 NA 0.0000 -SN 9999 360 0 0 0
2019/10/10 08:33:00 BASE 0.70 303 1.80 297 -5.9 100 -5.9 0 0 972.3 NA 0.0000 -SN 9999 360 0 0 0
2019/10/10 08:34:00 BASE 1.36 283 1.80 297 -5.9 100 -5.9 0 0 972.3 NA 0.0000 -SN 9999 360 950 0 0
2019/10/10 08:35:00 BASE 0.84 266 1.80 297 -5.8 100 -5.8 0 0 972.3 NA 0.0000 -SN 9999 360 0 0 0
2019/10/10 08:36:00 BASE 0.28 270 1.80 297 -5.8 100 -5.8 0 0 972.3 NA 0.0000 -SN 9999 360 0 0 0
2019/10/10 08:37:00 BASE 0.76 304 1.80 297 -5.8 100 -5.8 0 0 972.3 NA 0.0000 -SN 9999 360 980 0 0
2019/10/10 08:38:00 BASE 1.28 321 1.80 297 -5.8 100 -5.8 0 0 972.3 NA 0.0000 -SN 9000 360 980 0 0
2019/10/10 08:39:00 BASE 1.33 313 2.26 275 -5.8 100 -5.8 0 0 972.4 NA 0.0000 -SN 9999 360 0 0 0
2019/10/10 08:40:00 BASE 1.15 271 2.26 275 -5.9 100 -5.9 0 0 972.4 NA 0.0000 -SN 9000 330 980 0 0
2019/10/10 08:41:00 BASE 0.44 238 2.26 275 -5.8 100 -5.8 0 0 972.4 NA 0.0000 -SN 9000 330 0 0 0
2019/10/10 08:42:00 BASE 0.00 273 2.26 275 -5.8 100 -5.8 0 0 972.4 NA 0.0000 -SN 9000 300 0 0 0
2019/10/10 08:43:00 BASE 0.00 324 2.26 275 -5.8 100 -5.8 0 0 972.4 NA 0.0000 -SN 8000 300 0 0 0
2019/10/10 08:44:00 BASE 0.00 337 2.26 275 -5.8 100 -5.8 0 0 972.4 NA 0.0000 -SN 9999 330 0 0 0
2019/10/10 08:45:00 BASE 0.17 335 2.26 275 -5.8 100 -5.8 0 0 972.4 NA 0.0000 -SN BR 9000 330 0 0 0
2019/10/10 08:46:00 BASE 0.23 343 2.26 275 -5.8 100 -5.8 0 0 972.4 NA 0.0000 -SN BR 9999 300 0 0 0
2019/10/10 08:47:00 BASE 0.61 357 2.26 275 -5.8 100 -5.8 0 0 972.4 NA 0.0000 -SN BR 7000 330 0 0 0
2019/10/10 08:48:00 BASE 1.11 346 2.26 275 -5.8 100 -5.8 0 0 972.4 NA 0.0000 -SN BR 6000 330 0 0 0
2019/10/10 08:49:00 BASE 0.99 325 2.21 264 -5.8 100 -5.8 0 0 972.4 NA 0.0000 -SN BR 6000 330 0 0 0
2019/10/10 08:50:00 BASE 0.83 334 1.70 312 -5.8 100 -5.8 0 0 972.5 NA 0.0000 -SN BR 5000 330 0 0 0
2019/10/10 08:51:00 BASE 0.78 346 1.70 312 -5.8 100 -5.8 1 0 972.5 NA 0.0000 -SN BR 7000 360 0 0 0
2019/10/10 08:52:00 BASE 0.87 359 1.70 312 -5.8 100 -5.8 1 0 972.6 NA 0.0000 -SN BR 6000 360 0 0 0
2019/10/10 08:53:00 BASE 0.73 14 1.70 312 -5.9 100 -5.9 1 0 972.6 NA 0.0000 -SN BR 7000 360 0 0 0
2019/10/10 08:54:00 BASE 0.86 20 1.70 312 -5.9 100 -5.9 1 0 972.6 NA 0.0000 -SN BR 8000 360 0 0 0
2019/10/10 08:55:00 BASE 1.26 22 1.70 312 -5.9 100 -5.9 1 0 972.6 NA 0.0000 -SN BR 8000 360 0 0 0
2019/10/10 08:56:00 BASE 1.35 21 1.70 312 -6.0 100 -6.0 2 0 972.6 NA 0.0000 -SN BR 8000 360 0 0 0
2019/10/10 08:57:00 BASE 1.57 24 1.85 30 -6.0 100 -6.0 2 0 972.6 NA 0.0000 -SN BR 9999 360 0 0 0
2019/10/10 08:58:00 BASE 1.68 27 1.90 28 -6.0 100 -6.0 2 0 972.6 NA 0.0000 -SN BR 7000 330 0 0 0
2019/10/10 08:59:00 BASE 1.71 30 2.06 36 -6.0 100 -6.0 2 0 972.6 NA 0.0000 -SN BR 9999 330 0 0 0
2019/10/10 09:00:00 BASE 1.91 34 2.21 38 -6.0 100 -6.0 2 0 972.6 NA 0.0000 -SN BR 9999 330 0 0 0
2019/10/10 09:01:00 BASE 2.07 37 2.21 35 -6.0 100 -6.0 2 0 972.6 NA 0.0000 -SN BR 6000 330 0 0 0
2019/10/10 09:02:00 BASE 2.02 34 2.21 35 -6.0 100 -6.0 2 0 972.6 NA 0.0000 -SN BR 6000 300 0 0 0
2019/10/10 09:03:01 BASE 1.80 30 2.21 35 -6.0 100 -6.0 2 0 972.6 NA 0.0000 -SN BR 4800 260 0 0 0
2019/10/10 09:04:00 BASE 1.61 32 2.21 35 -6.0 100 -6.0 3 0 972.6 NA 0.0000 -SN BR 6000 260 0 0 0
2019/10/10 09:05:00 BASE 1.27 43 2.21 35 -6.0 100 -6.0 3 0 972.7 NA 0.0000 -SN BR 7000 260 0 0 0
2019/10/10 09:06:00 BASE 0.49 36 2.21 35 -6.0 100 -6.0 3 0 972.7 NA 0.0000 -SN BR 4800 300 0 0 0
2019/10/10 09:07:00 BASE 0.00 201 2.21 35 -6.0 100 -6.0 3 0 972.7 NA 0.0000 -SN BR 3800 330 0 0 0
2019/10/10 09:08:00 BASE 0.09 181 2.21 35 -6.0 100 -6.0 3 0 972.7 NA 0.0000 -SN BR 4800 330 0 0 0
2019/10/10 09:09:00 BASE 0.09 170 2.21 35 -6.0 100 -6.0 4 0 972.6 NA 0.0000 -SN BR 6000 330 0 0 0
2019/10/10 09:10:00 BASE 0.34 159 2.21 35 -6.0 100 -6.0 4 0 972.7 NA 0.0000 -SN BR 6000 460 0 0 0
2019/10/10 09:11:00 BASE 0.43 160 2.06 29 -6.0 100 -6.0 5 0 972.7 NA 0.0000 -SN BR 6000 430 0 0 0
2019/10/10 09:12:00 BASE 0.09 183 1.85 27 -5.9 100 -5.9 5 0 972.7 NA 0.0000 -SN BR 9999 390 0 0 0
2019/10/10 09:13:00 BASE 0.00 194 1.75 31 -5.9 100 -5.9 5 0 972.7 NA 0.0000 -SN BR 8000 390 0 0 0
2019/10/10 09:14:00 BASE 0.00 166 1.29 152 -5.9 100 -5.9 6 0 972.7 NA 0.0000 -SN BR 9999 390 0 0 0
2019/10/10 09:15:00 BASE 0.00 62 1.29 152 -5.8 100 -5.8 7 0 972.7 NA 0.0000 -SN BR 9999 360 2590 0 0
2019/10/10 09:16:00 BASE 0.00 44 1.29 152 -5.8 100 -5.8 7 0 972.7 NA 0.0000 -SN BR 8000 360 0 0 0
2019/10/10 09:17:00 BASE 0.21 25 1.44 291 -5.8 100 -5.8 7 0 972.7 NA 0.0000 -SN BR 7000 360 0 0 0
2019/10/10 09:18:00 BASE 0.94 258 2.83 243 -5.8 100 -5.8 8 0 972.7 NA 0.0000 -SN BR 7000 330 0 0 0
2019/10/10 09:19:00 BASE 2.41 234 3.81 231 -5.7 100 -5.7 8 0 972.7 NA 0.0000 -SN BR 3800 330 0 0 0
2019/10/10 09:20:00 BASE 3.55 233 4.48 244 -5.6 100 -5.6 9 0 972.7 NA 0.0000 -SN BR 3800 300 0 0 0
2019/10/10 09:21:00 BASE 3.78 238 4.48 244 -5.5 100 -5.5 9 0 972.7 NA 0.0000 -SN BR 3100 330 0 0 0
2019/10/10 09:22:00 BASE 3.77 235 4.48 244 -5.4 100 -5.4 9 0 972.7 NA 0.0000 -SN BR 8000 330 0 0 0
2019/10/10 09:23:00 BASE 3.78 235 5.04 231 -5.3 100 -5.3 9 0 972.7 NA 0.0000 -SN BR 3500 300 0 0 0
2019/10/10 09:24:00 BASE 3.17 246 5.04 231 -5.3 100 -5.3 9 0 972.7 NA 0.0000 -SN BR 2900 300 0 0 0
2019/10/10 09:25:00 BASE 2.82 245 5.04 231 -5.3 100 -5.3 10 0 972.8 NA 0.0000 -SN BR 3900 0 0 0 2850
2019/10/10 09:26:00 BASE 3.01 236 5.04 231 -5.3 100 -5.3 10 0 972.8 NA 0.0000 -SN BR 4700 330 0 0 0
2019/10/10 09:27:00 BASE 2.70 238 5.04 231 -5.3 100 -5.3 10 0 972.8 NA 0.0000 -SN BR 4500 330 0 0 0
2019/10/10 09:28:00 BASE 2.75 235 5.04 231 -5.3 100 -5.3 11 0 972.8 NA 0.0000 -SN BR 4100 890 0 0 0
2019/10/10 09:29:00 BASE 3.19 212 5.04 231 -5.3 100 -5.3 11 0 972.8 NA 0.0000 -SN BR 3500 300 0 0 0
2019/10/10 09:30:00 BASE 3.49 193 5.04 231 -5.3 100 -5.3 11 0 972.8 NA 0.0000 -SN BR 2700 300 0 0 0
2019/10/10 09:31:00 BASE 4.17 201 5.20 204 -5.3 100 -5.3 11 0 972.8 NA 0.0000 -SN BR 2800 260 0 0 0
2019/10/10 09:32:00 BASE 4.73 204 5.76 188 -5.3 100 -5.3 12 0 972.8 NA 0.0000 -SN BR 2600 230 0 0 0
2019/10/10 09:33:00 BASE 5.11 190 6.33 183 -5.3 100 -5.3 13 0 972.8 NA 0.0000 -SN BR 2200 260 0 0 0
2019/10/10 09:34:00 BASE 4.15 163 6.33 183 -5.3 100 -5.3 13 0 972.8 NA 0.0000 -SN BR 2000 230 0 0 0
2019/10/10 09:35:00 BASE 2.41 132 6.33 183 -5.3 100 -5.3 13 0 972.8 NA 0.0000 -SN BR 1500 0 0 0 2300
2019/10/10 09:36:00 BASE 1.85 105 6.33 183 -5.4 100 -5.4 13 0 972.9 NA 0.0000 -SN BR 1500 0 0 0 2260
2019/10/10 09:37:00 BASE 2.05 81 6.33 183 -5.5 100 -5.5 14 0 972.9 NA 0.0000 -SN BR 1600 0 0 0 2260
2019/10/10 09:38:00 BASE 2.24 84 6.33 183 -5.6 100 -5.6 14 0 972.9 NA 0.0000 -SN BR 1900 0 0 0 2330
2019/10/10 09:39:00 BASE 2.96 101 6.33 183 -5.6 100 -5.6 15 0 972.9 NA 0.0000 -SN BR 1600 0 0 0 2230
2019/10/10 09:40:00 BASE 3.91 105 6.33 183 -5.6 100 -5.6 15 0 972.9 NA 0.0000 -SN BR 1600 0 0 0 2000
2019/10/10 09:41:00 BASE 4.23 107 6.43 111 -5.6 100 -5.6 16 0 972.9 NA 0.0000 -SN BR 1400 0 0 0 1800
2019/10/10 09:42:00 BASE 4.56 120 6.43 111 -5.5 100 -5.5 16 0 972.9 NA 0.0000 -SN BR 1300 0 0 0 2130
2019/10/10 09:43:00 BASE 5.24 132 6.84 129 -5.5 100 -5.5 16 0 972.9 NA 0.0000 -SN BR 0900 0 0 0 1970
2019/10/10 09:44:00 BASE 6.36 135 7.36 133 -5.4 100 -5.4 17 0 972.9 NA 0.0000 -SN BR 0600 0 0 0 1900
2019/10/10 09:45:00 BASE 6.35 133 7.36 133 -5.4 100 -5.4 18 0 972.9 NA 0.0000 -SN BR 0550 0 0 0 1800
2019/10/10 09:46:00 BASE 5.93 131 7.36 133 -5.3 100 -5.3 19 0 972.9 NA 0.0000 +SN BR 0600 0 0 0 1710
2019/10/10 09:47:00 BASE 6.04 133 7.36 133 -5.3 100 -5.3 20 0 972.9 NA 0.0000 SN FZFG 0500 0 0 0 1670
2019/10/10 09:48:00 BASE 6.20 133 7.36 133 -5.3 100 -5.3 20 0 973.0 NA 0.0000 SN FZFG 0500 0 0 0 1610
2019/10/10 09:49:00 BASE 6.06 126 7.36 133 -5.3 100 -5.3 21 0 973.0 NA 0.0000 SN FZFG 0550 0 0 0 1770
2019/10/10 09:50:00 BASE 6.01 120 7.36 133 -5.3 100 -5.3 21 0 973.0 NA 0.0000 +SN FZFG 0500 0 0 0 1740
2019/10/10 09:51:00 BASE 6.47 121 7.36 133 -5.3 100 -5.3 21 0 973.0 NA 0.0000 +SN FZFG 0450 0 0 0 1740
2019/10/10 09:52:00 BASE 6.44 124 7.36 133 -5.3 100 -5.3 21 0 973.0 NA 0.0000 +SN FZFG 0500 0 0 0 1770
2019/10/10 09:53:00 BASE 6.17 124 7.36 133 -5.4 100 -5.4 21 0 973.0 NA 0.0000 +SN FZFG 0700 0 0 0 1570
2019/10/10 09:54:00 BASE 5.85 123 7.31 123 -5.4 100 -5.4 21 0 973.0 NA 0.0000 +SN FZFG 0650 0 0 0 1150
2019/10/10 09:55:00 BASE 5.75 120 8.64 116 -5.4 100 -5.4 21 0 973.0 NA 0.0000 +SN FZFG 0600 0 0 0 1210
2019/10/10 09:56:00 BASE 7.12 117 9.05 114 -5.4 100 -5.4 22 0 973.0 NA 0.0000 +SN FZFG 0550 0 0 0 1180
2019/10/10 09:57:00 BASE 8.27 114 10.75 110 -5.3 100 -5.3 22 0 973.0 NA 0.0000 +SN FZFG 0600 0 0 0 950
2019/10/10 09:58:00 BASE 8.98 119 10.75 110 -5.3 100 -5.3 23 0 973.0 NA 0.0000 +SN FZFG 0550 0 0 0 1250
2019/10/10 09:59:00 BASE 9.29 128 10.75 110 -5.2 100 -5.2 23 0 973.0 NA 0.0000 +SN FZFG 0600 0 0 0 1410
2019/10/10 10:00:00 BASE 8.11 132 10.75 110 -5.2 100 -5.2 23 0 973.1 NA 0.0000 +SN FZFG 0650 0 0 0 1410
2019/10/10 10:01:00 BASE 7.10 138 10.75 110 -5.1 100 -5.1 24 0 973.1 NA 0.0000 +SN FZFG 0650 0 0 0 1410
2019/10/10 10:02:00 BASE 7.00 143 10.75 110 -5.1 100 -5.1 24 0 973.1 NA 0.0000 +SN FZFG 0650 0 0 0 950
2019/10/10 10:03:00 BASE 7.37 146 10.75 110 -5.0 100 -5.0 25 0 973.1 NA 0.0000 +SN FZFG 0750 0 0 0 1280
2019/10/10 10:04:00 BASE 7.25 147 10.75 110 -5.0 100 -5.0 25 0 973.2 NA 0.0000 +SN FZFG 0750 0 0 0 1480
2019/10/10 10:05:00 BASE 6.68 144 10.75 110 -5.0 100 -5.0 25 0 973.2 NA 0.0000 +SN FZFG 0650 0 0 0 1640
2019/10/10 10:06:00 BASE 6.63 142 10.75 110 -5.0 100 -5.0 25 0 973.2 NA 0.0000 +SN FZFG 0700 0 0 0 1350
2019/10/10 10:07:00 BASE 7.39 143 10.60 121 -5.0 100 -5.0 25 0 973.2 NA 0.0000 +SN FZFG 0750 0 0 0 980
2019/10/10 10:08:00 BASE 7.91 143 10.24 126 -5.0 100 -5.0 25 0 973.3 NA 0.0000 +SN FZFG 0600 0 0 0 920
2019/10/10 10:09:00 BASE 8.00 142 9.36 147 -5.0 100 -5.0 26 0 973.3 NA 0.0000 SN FZFG 0700 0 0 0 920
2019/10/10 10:10:00 BASE 8.65 139 10.08 138 -5.0 100 -5.0 26 0 973.3 NA 0.0000 SN FZFG 0800 0 0 0 950
2019/10/10 10:11:00 BASE 8.69 137 10.08 138 -5.0 100 -5.0 27 0 973.3 NA 0.0000 SN FZFG 0800 0 0 0 890
2019/10/10 10:12:00 BASE 8.16 138 10.08 138 -5.0 100 -5.0 28 0 973.3 NA 0.0000 SN FZFG 0750 0 0 0 1310
2019/10/10 10:13:00 BASE 8.49 138 10.44 145 -5.0 100 -5.0 28 0 973.3 NA 0.0000 SN FZFG 0800 0 0 0 1440
2019/10/10 10:14:00 BASE 8.90 138 10.65 140 -5.1 100 -5.1 29 0 973.3 NA 0.0000 SN FZFG 0650 0 0 0 1180
2019/10/10 10:15:00 BASE 8.92 137 10.65 140 -5.1 100 -5.1 29 0 973.3 NA 0.0000 SN FZFG 0750 0 0 0 1350
2019/10/10 10:16:00 BASE 8.55 135 10.65 140 -5.1 100 -5.1 30 0 973.3 NA 0.0000 SN FZFG 0800 0 0 0 850
2019/10/10 10:17:00 BASE 8.36 135 10.65 140 -5.1 100 -5.1 30 0 973.4 NA 0.0000 SN FZFG 0700 0 0 0 820
2019/10/10 10:18:00 BASE 8.44 131 10.65 140 -5.1 100 -5.1 31 0 973.4 NA 0.0000 SN FZFG 0800 0 0 0 820
2019/10/10 10:19:00 BASE 8.11 127 10.65 140 -5.2 100 -5.2 31 0 973.4 NA 0.0000 SN FZFG 0800 0 0 0 790
2019/10/10 10:20:00 BASE 8.14 125 10.65 140 -5.2 100 -5.2 32 0 973.4 NA 0.0000 SN FZFG 0800 0 0 0 790
2019/10/10 10:21:00 BASE 8.40 122 10.65 140 -5.3 100 -5.3 33 0 973.4 NA 0.0000 SN FZFG 1000 0 0 0 1480
2019/10/10 10:22:00 BASE 8.67 120 10.65 140 -5.3 100 -5.3 34 0 973.4 NA 0.0000 SN FZFG 1200 0 0 0 1800
2019/10/10 10:23:00 BASE 8.68 118 10.65 140 -5.4 100 -5.4 35 0 973.4 NA 0.0000 SN FZFG 1200 0 0 0 1770
2019/10/10 10:24:00 BASE 8.22 119 9.98 134 -5.4 100 -5.4 35 0 973.4 NA 0.0000 SN BR 1100 0 0 0 1800
2019/10/10 10:25:00 BASE 7.48 123 9.21 118 -5.4 100 -5.4 36 0 973.4 NA 0.0000 SN BR 1100 0 0 0 1770
2019/10/10 10:26:00 BASE 7.23 124 9.21 118 -5.4 100 -5.4 37 0 973.4 NA 0.0000 SN BR 1100 0 0 0 1610
2019/10/10 10:27:00 BASE 7.86 123 9.21 118 -5.4 100 -5.4 37 0 973.4 NA 0.0000 SN BR 1000 0 0 0 980
2019/10/10 10:28:00 BASE 8.33 120 9.21 118 -5.4 100 -5.4 38 0 973.4 NA 0.0000 SN BR 0900 0 0 0 950
2019/10/10 10:29:00 BASE 8.14 117 9.21 118 -5.4 100 -5.4 38 0 973.5 NA 0.0000 SN BR 0900 0 0 0 1280
2019/10/10 10:30:00 BASE 7.98 118 9.21 118 -5.4 100 -5.4 39 0 973.5 NA 0.0000 SN BR 1100 0 0 0 1180
2019/10/10 10:31:00 BASE 8.06 121 9.21 118 -5.4 100 -5.4 39 0 973.5 NA 0.0000 SN BR 1000 0 0 0 1120
2019/10/10 10:32:00 BASE 8.05 125 9.00 125 -5.4 100 -5.4 40 0 973.5 NA 0.0000 SN BR 1000 0 0 0 980
2019/10/10 10:33:00 BASE 7.77 126 9.00 125 -5.4 100 -5.4 41 0 973.2 NA 0.0000 SN BR 1000 0 0 0 1020
2019/10/10 10:34:00 BASE 7.47 126 9.00 125 -5.4 100 -5.4 42 0 973.5 NA 0.0000 SN BR 1200 0 0 0 1050
2019/10/10 10:35:00 BASE 7.54 126 9.00 125 -5.4 100 -5.4 43 0 973.5 NA 0.0000 SN BR 1200 0 0 0 1050
2019/10/10 10:36:00 BASE 7.55 124 9.00 125 -5.4 100 -5.4 44 0 973.5 NA 0.0000 SN BR 1200 0 0 0 1120
2019/10/10 10:37:00 BASE 7.18 125 8.75 119 -5.4 100 -5.4 45 0 973.6 NA 0.0000 SN BR 1200 0 0 0 1050
2019/10/10 10:38:00 BASE 6.93 127 8.75 119 -5.4 100 -5.4 45 0 973.3 NA 0.0000 -SN BR 1300 0 0 0 1150
2019/10/10 10:39:00 BASE 7.19 125 8.75 119 -5.4 100 -5.4 46 0 972.9 NA 0.0000 -SN BR 1300 0 0 0 1150
2019/10/10 10:40:00 BASE 7.12 121 8.75 119 -5.4 100 -5.4 47 0 973.6 NA 0.0000 -SN BR 1300 0 0 0 1080
2019/10/10 10:41:00 BASE 7.20 121 8.75 119 -5.4 100 -5.4 48 0 972.8 NA 0.0000 -SN BR 1400 0 0 0 1080
2019/10/10 10:42:00 BASE 7.51 120 8.75 119 -5.3 100 -5.3 49 0 973.6 NA 0.0000 -SN BR 1400 0 0 0 1120
2019/10/10 10:43:00 BASE 7.81 117 8.75 119 -5.3 100 -5.3 50 0 973.6 NA 0.0000 -SN BR 1200 0 0 0 1080
2019/10/10 10:44:00 BASE 8.10 115 8.75 119 -5.3 100 -5.3 50 0 973.6 NA 0.0000 -SN BR 1400 0 0 0 1150
2019/10/10 10:45:00 BASE 8.45 116 9.41 120 -5.3 100 -5.3 51 0 973.6 NA 0.0000 -SN BR 1600 0 0 0 1080
2019/10/10 10:46:00 BASE 8.98 119 10.19 122 -5.3 100 -5.3 51 0 973.6 NA 0.0000 -SN BR 1600 0 0 0 1120
2019/10/10 10:47:00 BASE 8.88 122 10.19 122 -5.3 100 -5.3 51 0 973.3 NA 0.0000 -SN BR 1800 0 0 0 1050
2019/10/10 10:48:00 BASE 8.21 125 10.19 122 -5.2 100 -5.2 51 0 973.3 NA 0.0000 -SN BR 2100 0 0 0 980
2019/10/10 10:49:00 BASE 7.60 126 10.19 122 -5.2 100 -5.2 52 0 973.3 NA 0.0000 -SN BR 2300 0 0 0 1020
2019/10/10 10:50:00 BASE 7.16 130 10.19 122 -5.2 100 -5.2 52 0 973.7 NA 0.0000 -SN BR 2300 0 0 0 1210
2019/10/10 10:51:00 BASE 6.14 130 10.19 122 -5.2 100 -5.2 52 0 973.8 NA 0.0000 -SN BR 2100 0 0 0 1210
2019/10/10 10:52:00 BASE 4.87 125 10.19 122 -5.2 100 -5.2 53 0 973.9 NA 0.0000 -SN BR 2000 0 0 0 1310
2019/10/10 10:53:00 BASE 4.92 121 10.19 122 -5.2 100 -5.2 53 0 973.9 NA 0.0000 -SN BR 2000 0 0 0 1280
2019/10/10 10:54:00 BASE 5.79 113 10.19 122 -5.2 100 -5.2 53 0 973.9 NA 0.0000 -SN BR 2100 0 0 0 1250
2019/10/10 10:55:00 BASE 5.44 101 10.19 122 -5.3 100 -5.3 54 0 973.9 NA 0.0000 -SN BR 2100 0 0 0 1310
2019/10/10 10:56:00 BASE 4.74 88 9.57 125 -5.3 100 -5.3 56 0 973.9 NA 0.0000 -SN BR 2100 0 0 0 1380
2019/10/10 10:57:00 BASE 4.25 82 8.23 127 -5.3 100 -5.3 57 0 973.9 NA 0.0000 -SN BR 2000 0 0 0 1440
2019/10/10 10:58:00 BASE 3.12 84 8.23 127 -5.2 100 -5.2 59 0 973.9 NA 0.0000 -SN BR 2100 0 0 0 1380
2019/10/10 10:59:00 BASE 2.13 77 7.82 96 -5.2 100 -5.2 60 0 973.9 NA 0.0000 -SN BR 2200 230 0 0 0
2019/10/10 11:00:00 BASE 1.23 84 7.82 96 -5.2 100 -5.2 61 0 973.9 NA 0.0000 -SN BR 2300 230 0 0 0
2019/10/10 11:01:00 BASE 0.61 121 7.82 96 -5.2 100 -5.2 62 0 973.9 NA 0.0000 -SN BR 2900 230 0 0 0
2019/10/10 11:02:00 BASE 0.50 146 7.82 96 -5.2 100 -5.2 62 0 973.9 NA 0.0000 -SN BR 2700 260 0 0 0
2019/10/10 11:03:00 BASE 0.93 152 7.82 96 -5.2 100 -5.2 62 0 974.0 NA 0.0000 -SN BR 2400 260 0 0 0
2019/10/10 11:04:00 BASE 1.51 152 6.07 85 -5.2 100 -5.2 62 0 974.0 NA 0.0000 -SN BR 2100 300 0 0 0
2019/10/10 11:05:00 BASE 2.30 148 4.89 82 -5.2 100 -5.2 62 0 974.0 NA 0.0000 -SN BR 2500 260 0 0 0
2019/10/10 11:06:00 BASE 2.78 147 4.17 85 -5.1 100 -5.1 62 0 974.0 NA 0.0000 -SN BR 2300 260 0 0 0
2019/10/10 11:07:00 BASE 2.60 158 3.60 149 -5.1 100 -5.1 63 0 974.0 NA 0.0000 -SN BR 2400 260 0 0 0
2019/10/10 11:08:00 BASE 2.07 185 3.60 149 -5.1 100 -5.1 65 0 974.0 NA 0.0000 -SN BR 2500 260 0 0 0
2019/10/10 11:09:00 BASE 1.36 209 3.60 149 -5.1 100 -5.1 67 0 974.0 NA 0.0000 -SN BR 2300 260 0 0 0
2019/10/10 11:10:00 BASE 1.80 207 3.60 149 -5.1 100 -5.1 69 0 974.0 NA 0.0000 -SN BR 2300 0 0 0 1020
2019/10/10 11:11:00 BASE 2.51 205 3.60 149 -5.1 100 -5.1 69 0 974.0 NA 0.0000 -SN BR 2200 230 0 0 0
2019/10/10 11:12:00 BASE 2.72 214 3.60 149 -5.1 100 -5.1 69 0 974.0 NA 0.0000 -SN BR 3200 300 0 0 0
2019/10/10 11:13:00 BASE 2.88 217 3.60 149 -5.1 100 -5.1 69 0 974.1 NA 0.0000 -SN BR 4400 230 0 0 0
2019/10/10 11:14:00 BASE 2.94 230 3.60 149 -5.1 100 -5.1 70 0 974.1 NA 0.0000 -SN BR 3600 230 1800 0 0
2019/10/10 11:15:00 BASE 3.29 245 4.68 244 -5.1 100 -5.1 71 0 974.1 NA 0.0000 -SN BR 4200 200 0 0 0
2019/10/10 11:16:00 BASE 4.22 249 5.09 251 -5.1 100 -5.1 72 0 974.1 NA 0.0000 -SN BR 4200 260 0 0 0
2019/10/10 11:17:00 BASE 4.68 253 5.09 251 -5.1 100 -5.1 72 0 974.1 NA 0.0000 -SN BR 7000 330 0 0 0
2019/10/10 11:18:00 BASE 4.72 258 5.45 252 -5.1 100 -5.1 72 0 973.9 NA 0.0000 -SN BR 9999 330 0 0 0
2019/10/10 11:19:00 BASE 4.78 260 5.50 262 -5.2 100 -5.2 73 0 973.9 NA 0.0000 -SN BR 8000 330 0 0 0
2019/10/10 11:20:00 BASE 4.58 256 5.50 262 -5.2 100 -5.2 73 0 973.9 NA 0.0000 -SN BR 9999 300 1050 0 0
2019/10/10 11:21:00 BASE 4.43 247 5.50 262 -5.2 100 -5.2 74 0 974.2 NA 0.0000 -SN BR 4300 260 0 0 0
2019/10/10 11:22:00 BASE 4.31 247 5.50 262 -5.2 100 -5.2 75 0 974.2 NA 0.0000 -SN BR 3400 300 0 0 0
2019/10/10 11:23:00 BASE 4.12 249 5.50 262 -5.1 100 -5.1 76 0 974.0 NA 0.0000 -SN BR 4700 260 0 0 0
2019/10/10 11:24:00 BASE 3.93 255 5.50 262 -5.1 100 -5.1 77 0 973.9 NA 0.0000 -SN BR 5000 260 0 0 0
2019/10/10 11:25:00 BASE 3.80 266 5.50 262 -5.1 100 -5.1 78 0 973.6 NA 0.0000 -SN BR 3200 300 0 0 0
2019/10/10 11:26:00 BASE 4.02 266 5.50 268 -5.1 100 -5.1 79 0 973.7 NA 0.0000 -SN BR 3800 300 0 0 0
2019/10/10 11:27:00 BASE 3.92 262 5.50 268 -5.1 100 -5.1 80 0 974.2 NA 0.0000 -SN BR 4000 300 1610 0 0
2019/10/10 11:28:00 BASE 4.41 262 5.76 263 -5.1 100 -5.1 80 0 974.2 NA 0.0000 -SN BR 9999 300 0 0 0
2019/10/10 11:29:00 BASE 5.06 258 5.76 263 -5.1 100 -5.1 81 0 974.2 NA 0.0000 -SN BR 9999 300 1440 0 0
2019/10/10 11:30:00 BASE 4.99 255 5.76 263 -5.1 100 -5.1 81 0 974.2 NA 0.0000 -SN BR 9999 300 0 0 0
2019/10/10 11:31:00 BASE 4.99 253 5.76 263 -5.1 100 -5.1 82 0 974.2 NA 0.0000 -SN BR 9999 260 0 0 0
2019/10/10 11:32:00 BASE 4.83 255 5.76 263 -5.1 100 -5.1 83 0 974.2 NA 0.0000 -SN BR 9999 300 0 0 0
2019/10/10 11:33:00 BASE 4.78 256 5.76 263 -5.1 100 -5.1 84 0 974.2 NA 0.0000 -SN BR 9999 300 0 0 0
2019/10/10 11:34:00 BASE 4.54 258 5.76 263 -5.1 100 -5.1 85 0 974.2 NA 0.0000 -SN BR 8000 300 0 0 0
2019/10/10 11:35:00 BASE 3.85 258 5.76 263 -5.1 100 -5.1 86 0 974.3 NA 0.0000 -SN BR 9999 300 2460 0 0
2019/10/10 11:36:00 BASE 3.26 259 5.76 263 -5.1 100 -5.1 86 0 974.3 NA 0.0000 -SN BR 9999 260 1740 0 0
2019/10/10 11:37:00 BASE 3.18 262 5.76 263 -5.1 100 -5.1 87 0 974.3 NA 0.0000 -SN 9999 300 2460 0 0
2019/10/10 11:38:00 BASE 3.23 265 5.35 251 -5.1 100 -5.1 88 0 974.3 NA 0.0000 -SN 9999 300 2070 0 0
2019/10/10 11:39:00 BASE 2.84 270 5.35 251 -5.1 100 -5.1 88 0 974.3 NA 0.0000 -SN 9999 300 1120 0 0
2019/10/10 11:40:00 BASE 3.02 274 5.30 254 -5.1 100 -5.1 89 0 974.3 NA 0.0000 -SN 9999 300 2130 0 0
2019/10/10 11:41:00 BASE 3.67 277 5.25 251 -5.1 100 -5.1 89 0 974.3 NA 0.0000 -SN 9999 300 0 0 0
2019/10/10 11:42:00 BASE 3.60 278 5.25 251 -5.1 100 -5.1 90 0 974.3 NA 0.0000 -SN 9999 300 1120 0 0
2019/10/10 11:43:00 BASE 3.37 278 5.25 251 -5.0 100 -5.0 91 0 974.3 NA 0.0000 -SN 9999 330 3150 0 0
2019/10/10 11:44:00 BASE 3.58 281 4.99 268 -5.0 100 -5.0 92 0 974.3 NA 0.0000 -SN 9999 330 2850 0 0
2019/10/10 11:45:00 BASE 3.60 278 4.99 268 -5.0 100 -5.0 93 0 974.3 NA 0.0000 -SN 9999 330 2850 0 0
2019/10/10 11:46:00 BASE 3.70 276 4.99 268 -5.0 100 -5.0 92 0 974.3 NA 0.0000 9999 330 2560 0 0
2019/10/10 11:47:00 BASE 3.87 272 4.99 268 -5.0 100 -5.0 92 0 974.3 NA 0.0000 9999 360 2130 0 0
2019/10/10 11:48:00 BASE 3.94 273 5.76 278 -5.0 100 -5.0 92 0 974.3 NA 0.0000 9999 360 2030 0 0
2019/10/10 11:49:00 BASE 3.98 274 5.76 278 -5.1 100 -5.1 92 0 974.3 NA 0.0000 9999 360 1670 0 0
2019/10/10 11:50:00 BASE 4.31 272 5.81 275 -5.1 100 -5.1 92 0 974.3 NA 0.0000 9999 360 1740 0 0
2019/10/10 11:51:00 BASE 4.51 278 5.81 275 -5.1 100 -5.1 92 0 974.3 NA 0.0000 9999 360 1570 0 0
2019/10/10 11:52:00 BASE 3.99 281 5.81 275 -5.1 100 -5.1 92 0 974.3 NA 0.0000 9999 360 2620 0 0
2019/10/10 11:53:00 BASE 3.80 284 5.81 275 -5.0 100 -5.1 92 0 974.4 NA 0.0000 9999 330 1210 0 0
2019/10/10 11:54:00 BASE 3.95 288 5.81 275 -5.1 100 -5.1 90 0 974.4 NA 0.0000 9999 330 2690 0 0
2019/10/10 11:55:00 BASE 3.78 287 5.81 275 -5.1 100 -5.1 88 0 974.5 NA 0.0000 9999 330 1440 0 0
2019/10/10 11:56:00 BASE 3.40 278 5.81 275 -5.1 100 -5.1 84 0 974.5 NA 0.0000 9999 330 1610 0 0
2019/10/10 11:57:00 BASE 3.12 278 5.81 275 -5.1 100 -5.1 82 0 974.5 NA 0.0000 9999 330 1440 0 0
2019/10/10 11:58:00 BASE 3.36 285 5.81 275 -5.1 100 -5.1 80 0 974.5 NA 0.0000 9999 330 1480 0 0
2019/10/10 11:59:00 BASE 3.70 283 5.81 275 -5.1 100 -5.1 78 0 974.5 NA 0.0000 9999 360 1210 0 0
2019/10/10 12:00:00 BASE 3.98 282 6.12 293 -5.1 100 -5.1 77 0 974.5 NA 0.0000 9999 360 1150 0 0
2019/10/10 12:01:00 BASE 4.60 283 6.12 293 -5.1 100 -5.1 77 0 974.5 NA 0.0000 9999 330 0 0 0
2019/10/10 12:02:00 BASE 4.52 285 6.12 293 -5.1 100 -5.1 76 0 974.6 NA 0.0000 9999 360 1610 0 0
2019/10/10 12:03:00 BASE 4.39 282 6.17 272 -5.1 100 -5.1 76 0 974.6 NA 0.0000 9999 330 1610 0 0
2019/10/10 12:04:00 BASE 5.03 278 6.38 281 -5.0 100 -5.0 75 0 974.6 NA 0.0000 9999 330 1640 0 0
2019/10/10 12:05:00 BASE 4.92 280 6.38 281 -5.0 100 -5.0 75 0 974.7 NA 0.0000 9999 330 1310 0 0
2019/10/10 12:06:00 BASE 4.58 284 6.38 281 -5.0 100 -5.0 76 0 974.7 NA 0.0000 9999 330 1640 0 0
2019/10/10 12:07:00 BASE 5.06 287 6.38 281 -5.0 100 -5.0 76 0 974.7 NA 0.0000 9999 330 1440 0 0
2019/10/10 12:08:00 BASE 5.24 282 6.38 281 -5.0 100 -5.0 77 0 974.7 NA 0.0000 9999 300 1380 0 0
2019/10/10 12:09:00 BASE 4.90 284 6.38 281 -5.1 100 -5.1 77 0 974.7 NA 0.0000 9999 360 1440 0 0
2019/10/10 12:10:00 BASE 4.82 287 6.38 281 -5.1 100 -5.1 77 0 974.7 NA 0.0000 9999 330 1410 0 0
2019/10/10 12:11:00 BASE 4.80 285 6.38 281 -5.1 100 -5.1 78 0 974.7 NA 0.0000 9999 330 1570 0 0
2019/10/10 12:12:00 BASE 5.02 286 6.69 305 -5.1 100 -5.1 79 0 974.7 NA 0.0000 9999 330 0 0 0
2019/10/10 12:13:00 BASE 5.68 291 6.69 307 -5.1 100 -5.1 81 0 974.7 NA 0.0000 9999 300 0 0 0
2019/10/10 12:14:00 BASE 5.67 291 6.69 307 -5.1 100 -5.1 83 0 974.7 NA 0.0000 9999 300 1020 0 0
2019/10/10 12:15:00 BASE 5.97 290 7.05 292 -5.1 100 -5.1 84 0 974.7 NA 0.0000 9000 330 0 0 0
2019/10/10 12:16:00 BASE 6.97 291 7.97 289 -5.1 100 -5.1 86 0 974.7 NA 0.0000 9000 330 0 0 0
2019/10/10 12:17:00 BASE 7.17 289 7.97 289 -5.2 100 -5.2 87 0 974.8 NA 0.0000 9000 300 0 0 0
2019/10/10 12:18:00 BASE 6.95 290 7.97 289 -5.2 100 -5.2 88 0 974.8 NA 0.0000 BR 8000 260 0 0 0
2019/10/10 12:19:00 BASE 6.81 291 7.97 289 -5.2 100 -5.2 89 0 974.8 NA 0.0000 BR 7000 260 1350 0 0
2019/10/10 12:20:00 BASE 6.65 290 7.97 289 -5.2 100 -5.2 90 0 974.8 NA 0.0000 BR 7000 260 1440 0 0
2019/10/10 12:21:00 BASE 6.45 289 7.97 289 -5.2 100 -5.2 91 0 974.8 NA 0.0000 BR 6000 300 0 0 0
2019/10/10 12:22:00 BASE 5.98 292 7.97 289 -5.2 100 -5.2 93 0 974.8 NA 0.0000 BR 5000 330 0 0 0
2019/10/10 12:23:00 BASE 6.03 295 7.97 289 -5.2 100 -5.2 94 0 974.8 NA 0.0000 BR 6000 330 0 0 0
2019/10/10 12:24:00 BASE 6.26 294 7.97 289 -5.2 100 -5.2 95 0 974.8 NA 0.0000 -SN BR 5000 260 0 0 0
2019/10/10 12:25:00 BASE 5.98 293 7.97 289 -5.2 100 -5.2 96 0 974.8 NA 0.0000 -SN BR 4900 260 0 0 0
2019/10/10 12:26:00 BASE 5.75 294 7.77 293 -5.2 100 -5.2 96 0 974.8 NA 0.0000 -SN BR 5000 300 0 0 0
2019/10/10 12:27:00 BASE 5.57 291 7.31 299 -5.2 100 -5.2 96 0 974.8 NA 0.0000 -SN BR 5000 300 1610 0 0
2019/10/10 12:28:00 BASE 5.68 290 7.31 299 -5.2 100 -5.2 97 0 974.8 NA 0.0000 -SN BR 6000 330 0 0 0
2019/10/10 12:29:00 BASE 6.25 291 7.31 299 -5.2 100 -5.2 97 0 974.8 NA 0.0000 -SN BR 5000 300 0 0 0
2019/10/10 12:30:00 BASE 6.34 294 7.25 289 -5.2 100 -5.2 98 0 974.8 NA 0.0000 -SN BR 4600 300 1640 0 0
2019/10/10 12:31:00 BASE 6.37 294 7.31 292 -5.2 100 -5.2 100 0 974.8 NA 0.0000 -SN BR 3300 360 1710 0 0
2019/10/10 12:32:00 BASE 6.41 293 7.31 292 -5.2 100 -5.2 101 0 974.8 NA 0.0000 -SN BR 7000 360 0 0 0
2019/10/10 12:33:00 BASE 6.00 291 7.31 292 -5.2 100 -5.2 102 0 974.8 NA 0.0000 -SN BR 5000 360 0 0 0
2019/10/10 12:34:00 BASE 5.96 291 7.31 292 -5.2 100 -5.2 102 0 974.8 NA 0.0000 -SN BR 4400 390 0 0 0
2019/10/10 12:35:00 BASE 5.72 293 7.31 292 -5.2 100 -5.2 102 0 974.9 NA 0.0000 -SN BR 3800 390 0 0 0
2019/10/10 12:36:00 BASE 5.50 293 7.31 292 -5.2 100 -5.2 102 0 974.9 NA 0.0000 -SN BR 5000 390 0 0 0
2019/10/10 12:37:00 BASE 5.46 293 7.31 292 -5.2 100 -5.2 102 0 974.9 NA 0.0000 -SN BR 5000 390 0 0 0
2019/10/10 12:38:00 BASE 5.35 292 7.31 292 -5.2 100 -5.2 101 0 974.9 NA 0.0000 -SN BR 5000 360 0 0 0
2019/10/10 12:39:00 BASE 5.53 291 7.31 292 -5.2 100 -5.2 101 0 974.3 NA 0.0000 -SN BR 5000 330 0 0 0
2019/10/10 12:40:00 BASE 5.59 290 7.31 292 -5.2 100 -5.2 101 0 974.9 NA 0.0000 -SN BR 3600 330 0 0 0
2019/10/10 12:41:00 BASE 5.68 291 7.05 296 -5.2 100 -5.2 101 0 975.1 NA 0.0000 -SN BR 3500 360 0 0 0
2019/10/10 12:42:00 BASE 5.84 293 6.74 290 -5.2 100 -5.2 102 0 975.1 NA 0.0000 -SN BR 3100 330 0 0 0
2019/10/10 12:43:00 BASE 5.73 294 6.74 290 -5.2 100 -5.2 102 0 975.1 NA 0.0000 -SN BR 4100 360 0 0 0
2019/10/10 12:44:00 BASE 5.86 295 6.84 290 -5.2 100 -5.2 103 0 975.1 NA 0.0000 -SN BR 4400 0 0 0 2530
2019/10/10 12:45:00 BASE 5.58 298 6.84 290 -5.2 100 -5.2 104 0 974.3 NA 0.0000 -SN BR 5000 0 0 0 2820
2019/10/10 12:46:00 BASE 5.38 297 6.84 290 -5.2 100 -5.2 105 0 975.1 NA 0.0000 -SN BR 4000 0 0 0 2720
2019/10/10 12:47:00 BASE 5.58 295 6.84 290 -5.2 100 -5.2 107 0 975.1 NA 0.0000 -SN BR 2800 0 0 0 2590
2019/10/10 12:48:00 BASE 5.33 298 6.84 290 -5.2 100 -5.2 108 0 975.2 NA 0.0000 -SN BR 2800 0 0 0 2790
2019/10/10 12:49:00 BASE 5.52 300 6.84 299 -5.2 100 -5.2 109 0 975.2 NA 0.0000 -SN BR 4300 0 0 0 2720
2019/10/10 12:50:00 BASE 5.96 299 6.84 299 -5.2 100 -5.2 109 0 975.2 NA 0.0000 -SN BR 5000 390 0 0 0
2019/10/10 12:51:00 BASE 5.80 298 6.84 299 -5.2 100 -5.2 109 0 975.2 NA 0.0000 -SN BR 3900 360 0 0 0
2019/10/10 12:52:00 BASE 5.26 297 6.84 299 -5.2 100 -5.2 110 0 975.2 NA 0.0000 -SN BR 3500 360 0 0 0
2019/10/10 12:53:00 BASE 4.84 297 6.84 299 -5.2 100 -5.2 110 0 975.2 NA 0.0000 -SN BR 4800 330 0 0 0
2019/10/10 12:54:00 BASE 4.56 296 6.84 299 -5.2 100 -5.2 111 0 975.3 NA 0.0000 -SN BR 4100 360 0 0 0
2019/10/10 12:55:00 BASE 4.27 296 6.84 299 -5.2 100 -5.2 112 0 975.3 NA 0.0000 -SN BR 3200 330 0 0 0
2019/10/10 12:56:00 BASE 4.62 297 6.84 299 -5.2 100 -5.2 113 0 975.3 NA 0.0000 -SN BR 3000 330 0 0 0
2019/10/10 12:57:00 BASE 5.14 293 6.84 299 -5.2 100 -5.2 114 0 975.3 NA 0.0000 -SN BR 2800 300 0 0 0
2019/10/10 12:58:00 BASE 5.04 290 6.84 299 -5.2 100 -5.2 116 0 975.2 NA 0.0000 -SN BR 2500 300 0 0 0
2019/10/10 12:59:00 BASE 5.08 291 6.69 294 -5.1 100 -5.1 117 0 975.3 NA 0.0000 -SN BR 2700 260 0 0 0
2019/10/10 13:00:00 BASE 5.75 292 7.10 294 -5.1 100 -5.1 119 0 975.3 NA 0.0000 -SN BR 2500 300 0 0 0
2019/10/10 13:01:00 BASE 5.84 293 7.10 294 -5.1 100 -5.1 120 0 975.3 NA 0.0000 -SN BR 2600 260 0 0 0
2019/10/10 13:02:00 BASE 5.50 297 7.10 294 -5.1 100 -5.1 121 0 975.3 NA 0.0000 -SN BR 2700 300 0 0 0
2019/10/10 13:03:00 BASE 5.36 298 7.10 294 -5.1 100 -5.1 121 0 975.3 NA 0.0000 -SN BR 3500 300 1710 0 0
2019/10/10 13:04:00 BASE 5.41 297 7.10 294 -5.1 100 -5.1 121 0 975.2 NA 0.0000 -SN BR 4500 300 0 0 0
2019/10/10 13:05:00 BASE 5.51 297 7.10 294 -5.1 100 -5.1 121 0 975.4 NA 0.0000 -SN BR 4100 300 1510 0 0
2019/10/10 13:06:00 BASE 5.52 295 7.10 294 -5.1 100 -5.1 122 0 975.2 NA 0.0000 -SN BR 7000 300 0 0 0
2019/10/10 13:07:00 BASE 5.76 295 7.10 294 -5.1 100 -5.1 123 0 974.6 NA 0.0000 -SN BR 4100 260 0 0 0
2019/10/10 13:08:00 BASE 6.64 294 8.39 294 -5.1 100 -5.1 124 0 974.3 NA 0.0000 -SN BR 3200 0 0 0 2560
2019/10/10 13:09:00 BASE 7.49 295 8.39 294 -5.1 100 -5.1 126 0 975.4 NA 0.0000 -SN BR 4200 260 0 0 0
2019/10/10 13:10:00 BASE 7.15 297 8.39 294 -5.1 100 -5.1 127 0 975.4 NA 0.0000 -SN BR 5000 260 0 0 0
2019/10/10 13:11:00 BASE 6.86 296 8.39 294 -5.1 100 -5.1 129 0 975.4 NA 0.0000 -SN BR 4400 300 0 0 0
2019/10/10 13:12:00 BASE 7.11 295 8.39 294 -5.1 100 -5.1 131 0 975.4 NA 0.0000 -SN BR 7000 0 0 0 2760
2019/10/10 13:13:00 BASE 7.13 295 8.39 294 -5.1 100 -5.1 133 0 975.4 NA 0.0000 -SN BR 6000 0 0 0 3020
2019/10/10 13:14:00 BASE 6.89 294 8.39 294 -5.1 100 -5.1 136 0 975.4 NA 0.0000 -SN BR 4800 0 0 0 3050
2019/10/10 13:15:00 BASE 6.55 294 8.39 294 -5.1 100 -5.1 138 0 975.4 NA 0.0000 -SN BR 3800 0 0 0 3080
2019/10/10 13:16:00 BASE 5.81 292 8.39 294 -5.1 100 -5.1 140 0 975.1 NA 0.0000 -SN BR 3700 0 0 0 3050
2019/10/10 13:17:00 BASE 5.27 292 8.39 294 -5.1 100 -5.1 142 0 974.6 NA 0.0000 -SN BR 3500 0 0 0 2850
2019/10/10 13:18:00 BASE 5.23 294 8.03 298 -5.1 100 -5.1 143 0 974.9 NA 0.0000 -SN BR 3700 0 0 0 2820
2019/10/10 13:19:00 BASE 5.31 294 7.92 292 -5.1 100 -5.1 144 0 975.1 NA 0.0000 -SN BR 4600 330 0 0 0
2019/10/10 13:20:00 BASE 5.32 294 7.92 292 -5.1 100 -5.1 145 0 974.6 NA 0.0000 -SN BR 3900 0 0 0 2790
2019/10/10 13:21:00 BASE 5.46 295 7.92 292 -5.1 100 -5.1 146 0 975.0 NA 0.0000 -SN BR 3100 0 0 0 3120
2019/10/10 13:22:00 BASE 5.70 296 7.82 294 -5.1 100 -5.1 147 0 974.7 NA 0.0000 -SN BR 3500 0 0 0 3180
2019/10/10 13:23:00 BASE 5.61 299 7.82 294 -5.1 100 -5.1 149 0 974.8 NA 0.0000 -SN BR 5000 0 0 0 3220
2019/10/10 13:24:00 BASE 5.79 301 6.58 299 -5.1 100 -5.1 150 0 975.2 NA 0.0000 -SN BR 5000 0 0 0 3020
2019/10/10 13:25:00 BASE 5.96 300 6.58 299 -5.1 100 -5.1 152 0 974.7 NA 0.0000 -SN BR 4900 0 0 0 2920
2019/10/10 13:26:00 BASE 5.48 300 6.58 299 -5.1 100 -5.1 153 0 974.8 NA 0.0000 -SN BR 4400 0 0 0 3020
2019/10/10 13:27:00 BASE 5.02 298 6.58 299 -5.1 100 -5.1 154 0 975.4 NA 0.0000 -SN BR 4900 300 0 0 0
2019/10/10 13:28:00 BASE 5.03 295 6.58 299 -5.1 100 -5.1 156 0 974.9 NA 0.0000 -SN BR 3200 0 0 0 2920
2019/10/10 13:29:00 BASE 5.59 297 7.31 299 -5.1 100 -5.1 157 0 975.3 NA 0.0000 -SN BR 3000 0 0 0 2850
2019/10/10 13:30:00 BASE 6.54 298 7.51 302 -5.1 100 -5.1 157 0 975.3 NA 0.0000 -SN BR 4300 300 0 0 0
2019/10/10 13:31:00 BASE 6.88 298 7.51 302 -5.1 100 -5.1 158 0 975.3 NA 0.0000 -SN BR 4000 980 0 0 0
2019/10/10 13:32:00 BASE 6.20 299 7.51 302 -5.1 100 -5.1 159 0 975.4 NA 0.0000 -SN BR 3400 0 0 0 2990
2019/10/10 13:33:00 BASE 6.17 300 7.51 302 -5.1 100 -5.1 159 0 975.3 NA 0.0000 -SN BR 4300 300 0 0 0
2019/10/10 13:34:00 BASE 6.40 300 7.51 302 -5.1 100 -5.1 160 0 975.6 NA 0.0000 -SN BR 3400 0 0 0 2760
2019/10/10 13:35:00 BASE 6.10 300 7.51 302 -5.1 100 -5.1 160 0 975.6 NA 0.0000 -SN BR 3100 330 0 0 0
2019/10/10 13:36:00 BASE 5.80 301 7.51 302 -5.1 100 -5.1 161 0 975.6 NA 0.0000 -SN BR 2800 920 0 0 0
2019/10/10 13:37:00 BASE 5.92 300 7.51 302 -5.1 100 -5.1 161 0 975.5 NA 0.0000 -SN BR 2900 300 0 0 0
2019/10/10 13:38:00 BASE 5.81 300 7.51 302 -5.1 100 -5.1 161 0 975.5 NA 0.0000 -SN BR 4800 0 0 0 2530
2019/10/10 13:39:00 BASE 5.39 301 7.51 302 -5.1 100 -5.1 161 0 975.7 NA 0.0000 -SN BR 3700 300 0 0 0
2019/10/10 13:40:00 BASE 5.36 301 7.25 299 -5.1 100 -5.1 161 0 975.6 NA 0.0000 -SN BR 3400 300 0 0 0
2019/10/10 13:41:00 BASE 5.11 299 6.94 302 -5.1 100 -5.1 161 0 975.8 NA 0.0000 -SN BR 4000 330 0 0 0
2019/10/10 13:42:00 BASE 5.14 297 6.94 302 -5.1 100 -5.1 161 0 975.8 NA 0.0000 -SN BR 3400 300 0 0 0
2019/10/10 13:43:00 BASE 5.40 298 6.69 299 -5.1 100 -5.1 159 0 975.8 NA 0.0000 -SN BR 3800 330 0 0 0
2019/10/10 13:44:00 BASE 5.25 301 6.69 299 -5.1 100 -5.1 158 0 975.8 NA 0.0000 -SN BR 2700 300 0 0 0
2019/10/10 13:45:00 BASE 5.18 300 6.69 299 -5.1 100 -5.1 156 0 975.8 NA 0.0000 -SN BR 2400 260 0 0 0
2019/10/10 13:46:00 BASE 5.29 300 6.69 299 -5.1 100 -5.1 156 0 975.5 NA 0.0000 -SN BR 4100 260 1480 0 0
2019/10/10 13:47:00 BASE 5.54 301 6.84 297 -5.1 100 -5.1 156 0 975.3 NA 0.0000 -SN BR 3300 230 0 0 0
2019/10/10 13:48:00 BASE 5.31 299 6.84 297 -5.1 100 -5.1 157 0 975.1 NA 0.0000 -SN BR 3700 260 0 0 0
2019/10/10 13:49:00 BASE 5.72 298 7.82 295 -5.1 100 -5.1 157 0 975.3 NA 0.0000 -SN BR 6000 260 0 0 0
2019/10/10 13:50:00 BASE 6.89 300 7.87 304 -5.1 100 -5.1 158 0 975.8 NA 0.0000 -SN BR 4300 230 0 0 0
2019/10/10 13:51:00 BASE 7.02 299 7.87 304 -5.1 100 -5.1 158 0 975.8 NA 0.0000 -SN BR 3700 230 0 0 0
2019/10/10 13:52:00 BASE 6.94 299 7.87 304 -5.1 100 -5.1 159 0 975.8 NA 0.0000 -SN BR 3800 230 0 0 0
2019/10/10 13:53:00 BASE 7.39 301 9.05 305 -5.1 100 -5.1 159 0 975.8 NA 0.0000 -SN BR 4100 260 0 0 0
2019/10/10 13:54:00 BASE 7.55 304 9.05 305 -5.1 100 -5.1 160 0 975.6 NA 0.0000 -SN BR 5000 260 0 0 0
2019/10/10 13:55:00 BASE 7.52 304 9.05 305 -5.1 100 -5.1 160 0 975.7 NA 0.0000 -SN BR 7000 260 0 0 0
2019/10/10 13:56:00 BASE 7.61 301 9.05 305 -5.1 100 -5.1 161 0 975.6 NA 0.0000 -SN BR 5000 300 0 0 0
2019/10/10 13:57:00 BASE 7.54 300 9.05 305 -5.1 100 -5.1 161 0 975.9 NA 0.0000 -SN BR 5000 260 0 0 0
2019/10/10 13:58:00 BASE 7.70 300 9.05 305 -5.1 100 -5.1 163 0 975.8 NA 0.0000 -SN BR 6000 230 0 0 0
2019/10/10 13:59:00 BASE 7.90 300 9.05 305 -5.1 100 -5.1 164 0 975.9 NA 0.0000 -SN BR 6000 0 0 0 2230
2019/10/10 14:00:00 BASE 8.12 299 9.05 305 -5.1 100 -5.1 166 0 975.9 NA 0.0000 -SN BR 5000 230 0 0 0
2019/10/10 14:01:00 BASE 8.32 300 9.05 305 -5.1 100 -5.1 167 0 975.9 NA 0.0000 -SN BR 5000 0 0 0 2000
2019/10/10 14:02:00 BASE 7.93 302 9.05 305 -5.1 100 -5.1 169 0 975.3 NA 0.0000 -SN BR 3800 0 0 0 2170
2019/10/10 14:03:00 BASE 7.50 302 8.80 296 -5.1 100 -5.1 170 0 975.7 NA 0.0000 -SN BR 2900 0 0 0 2260
2019/10/10 14:04:00 BASE 7.13 300 8.80 296 -5.1 100 -5.1 171 0 975.7 NA 0.0000 -SN BR 2700 0 0 0 2360
2019/10/10 14:05:00 BASE 6.94 305 8.80 296 -5.1 100 -5.1 172 0 975.6 NA 0.0000 -SN BR 3200 0 0 0 2230
2019/10/10 14:06:00 BASE 7.04 317 8.80 296 -5.1 100 -5.1 173 0 975.6 NA 0.0000 -SN BR 4000 0 0 0 2100
2019/10/10 14:07:00 BASE 6.43 317 8.80 296 -5.1 100 -5.1 173 0 975.9 NA 0.0000 -SN BR 5000 0 0 0 2000
2019/10/10 14:08:00 BASE 5.85 315 8.80 296 -5.1 100 -5.1 173 0 976.0 NA 0.0000 -SN BR 3200 0 0 0 1940
2019/10/10 14:09:00 BASE 6.02 317 8.80 296 -5.2 100 -5.2 175 0 976.0 NA 0.0000 -SN BR 4500 0 0 0 2070
2019/10/10 14:10:00 BASE 5.74 317 8.69 301 -5.2 100 -5.2 176 0 975.7 NA 0.0000 -SN BR 3500 0 0 0 1480
2019/10/10 14:11:00 BASE 5.24 317 8.13 298 -5.2 100 -5.2 178 0 975.6 NA 0.0000 -SN BR 4000 0 0 0 1840
2019/10/10 14:12:00 BASE 5.22 314 8.03 325 -5.2 100 -5.2 179 0 975.6 NA 0.0000 -SN BR 4300 0 0 0 2170
2019/10/10 14:13:00 BASE 5.50 311 8.03 325 -5.2 100 -5.2 179 0 975.9 NA 0.0000 -SN BR 2800 0 0 0 2070
2019/10/10 14:14:00 BASE 5.97 310 8.03 325 -5.2 100 -5.2 177 0 975.9 NA 0.0000 -SN BR 3800 0 0 0 1870
2019/10/10 14:15:00 BASE 6.47 308 8.03 325 -5.2 100 -5.2 176 0 975.9 NA 0.0000 -SN BR 5000 0 0 0 1480
2019/10/10 14:16:00 BASE 7.14 308 7.82 308 -5.2 100 -5.2 175 0 975.5 NA 0.0000 -SN BR 2400 0 0 0 1510
2019/10/10 14:17:00 BASE 7.06 311 7.82 308 -5.2 100 -5.2 175 0 975.9 NA 0.0000 -SN BR 2600 0 0 0 1510
2019/10/10 14:18:00 BASE 6.70 312 7.82 308 -5.2 100 -5.2 176 0 976.0 NA 0.0000 -SN BR 3600 0 0 0 1670
2019/10/10 14:19:00 BASE 6.46 320 7.82 308 -5.2 100 -5.2 178 0 975.8 NA 0.0000 -SN BR 2600 0 0 0 1670
2019/10/10 14:20:00 BASE 5.11 330 7.82 308 -5.2 100 -5.2 180 0 975.9 NA 0.0000 -SN BR 5000 0 0 0 1840
2019/10/10 14:21:00 BASE 4.65 326 7.82 308 -5.2 100 -5.2 182 0 976.0 NA 0.0000 -SN BR 6000 0 0 0 2260
2019/10/10 14:22:00 BASE 5.17 318 7.82 308 -5.2 100 -5.2 183 0 976.0 NA 0.0000 -SN BR 5000 0 0 0 2130
2019/10/10 14:23:00 BASE 5.23 315 7.82 308 -5.2 100 -5.2 184 0 976.0 NA 0.0000 -SN BR 4600 0 0 0 1970
2019/10/10 14:24:00 BASE 6.20 310 7.87 309 -5.2 100 -5.2 184 0 976.0 NA 0.0000 -SN BR 3300 0 0 0 2200
2019/10/10 14:25:00 BASE 7.15 308 7.92 311 -5.2 100 -5.2 185 0 976.0 NA 0.0000 -SN BR 3600 0 0 0 2130
2019/10/10 14:26:00 BASE 7.36 310 8.08 314 -5.2 100 -5.2 185 0 976.0 NA 0.0000 -SN BR 4500 0 0 0 1970
2019/10/10 14:27:00 BASE 7.24 312 8.08 314 -5.1 100 -5.1 187 0 976.0 NA 0.0000 -SN BR 4600 0 0 0 2070
2019/10/10 14:28:00 BASE 7.35 313 8.23 316 -5.1 100 -5.1 188 0 976.0 NA 0.0000 -SN BR 5000 0 0 0 2230
2019/10/10 14:29:00 BASE 7.55 313 8.23 316 -5.2 100 -5.2 190 0 976.0 NA 0.0000 -SN BR 5000 0 0 0 2170
2019/10/10 14:30:00 BASE 7.74 311 8.49 303 -5.2 100 -5.2 191 0 975.5 NA 0.0000 -SN BR 5000 230 0 0 0
2019/10/10 14:31:00 BASE 7.94 310 8.49 303 -5.2 100 -5.2 192 0 975.3 NA 0.0000 -SN BR 5000 0 0 0 2230
2019/10/10 14:32:00 BASE 7.89 313 8.64 316 -5.2 100 -5.2 193 0 976.1 NA 0.0000 -SN BR 7000 0 0 0 2230
2019/10/10 14:33:00 BASE 7.65 313 8.64 316 -5.2 100 -5.2 193 0 976.2 NA 0.0000 -SN BR 8000 260 0 0 0
2019/10/10 14:34:00 BASE 7.34 311 8.64 316 -5.2 100 -5.2 192 0 976.0 NA 0.0000 -SN BR 6000 0 0 0 2820
2019/10/10 14:35:00 BASE 7.37 309 8.64 316 -5.2 100 -5.2 192 0 976.2 NA 0.0000 -SN BR 5000 260 0 0 0
2019/10/10 14:36:00 BASE 7.40 311 8.64 316 -5.2 100 -5.2 195 0 976.1 NA 0.0000 -SN BR 5000 0 0 0 2400
2019/10/10 14:37:00 BASE 7.26 312 8.64 316 -5.2 100 -5.2 197 0 976.2 NA 0.0000 -SN BR 7000 0 0 0 3120
2019/10/10 14:38:00 BASE 7.18 312 8.64 316 -5.2 100 -5.2 198 0 976.2 NA 0.0000 -SN BR 9999 0 0 0 3280
2019/10/10 14:39:00 BASE 7.31 311 8.64 316 -5.2 100 -5.2 198 0 976.2 NA 0.0000 -SN BR 9999 260 0 0 0
2019/10/10 14:40:00 BASE 7.43 309 8.64 316 -5.2 100 -5.2 198 0 976.2 NA 0.0000 -SN BR 6000 0 0 0 1900
2019/10/10 14:41:00 BASE 7.26 309 8.64 316 -5.2 100 -5.2 200 0 976.2 NA 0.0000 -SN BR 5000 0 0 0 1970
2019/10/10 14:42:00 BASE 6.96 313 8.54 307 -5.2 100 -5.2 202 0 976.2 NA 0.0000 -SN BR 4900 0 0 0 1970
2019/10/10 14:43:00 BASE 6.63 317 8.54 307 -5.2 100 -5.2 204 0 976.2 NA 0.0000 -SN BR 5000 0 0 0 2620
2019/10/10 14:44:00 BASE 6.21 320 8.54 307 -5.2 100 -5.2 207 0 976.2 NA 0.0000 -SN BR 8000 20280 0 0 0
2019/10/10 14:45:00 BASE 6.34 319 8.54 307 -5.2 100 -5.2 208 0 976.0 NA 0.0000 -SN BR 9999 260 0 0 0
2019/10/10 14:46:00 BASE 7.03 313 8.18 312 -5.2 100 -5.2 209 0 976.2 NA 0.0000 -SN BR 9999 300 0 0 0
2019/10/10 14:47:00 BASE 7.20 314 8.18 312 -5.2 100 -5.2 211 0 976.2 NA 0.0000 -SN BR 9999 260 0 0 0
2019/10/10 14:48:00 BASE 7.00 321 8.23 331 -5.3 100 -5.3 213 0 976.2 NA 0.0000 -SN BR 9999 300 0 0 0
2019/10/10 14:49:00 BASE 6.88 331 8.23 331 -5.3 100 -5.3 216 0 976.2 NA 0.0000 -SN BR 9999 330 0 0 0
2019/10/10 14:50:00 BASE 6.61 332 8.23 331 -5.3 100 -5.3 218 0 976.2 NA 0.0000 -SN BR 9999 21060 23000 0 0
2019/10/10 14:51:00 BASE 6.27 329 8.23 331 -5.3 100 -5.3 220 0 976.2 NA 0.0000 -SN BR 9999 0 0 0 3480
2019/10/10 14:52:00 BASE 6.42 325 8.23 331 -5.3 100 -5.3 221 0 976.0 NA 0.0000 -SN 9999 0 0 0 3610
2019/10/10 14:53:00 BASE 6.89 320 8.23 331 -5.3 100 -5.3 224 0 975.9 NA 0.0000 -SN 7000 0 0 0 3610
2019/10/10 14:54:00 BASE 6.75 317 8.23 331 -5.3 100 -5.3 226 0 976.1 NA 0.0000 -SN 9999 19390 0 0 0
2019/10/10 14:55:00 BASE 6.33 316 8.23 331 -5.3 100 -5.3 228 0 976.2 NA 0.0000 -SN 9999 390 0 0 0
2019/10/10 14:56:00 BASE 6.52 318 8.23 331 -5.3 100 -5.3 230 0 976.2 NA 0.0000 -SN 9999 390 0 0 0
2019/10/10 14:57:00 BASE 6.66 320 8.23 331 -5.3 100 -5.3 232 0 976.2 NA 0.0000 -SN 9999 390 0 0 0
2019/10/10 14:58:00 BASE 6.17 321 7.82 336 -5.3 100 -5.3 233 0 976.2 NA 0.0000 -SN 9999 0 0 0 3770
2019/10/10 14:59:00 BASE 6.14 320 7.51 316 -5.3 100 -5.3 234 0 976.2 NA 0.0000 -SN 9999 0 0 0 3710
2019/10/10 15:00:00 BASE 6.73 318 7.97 322 -5.3 100 -5.3 233 0 976.2 NA 0.0000 -SN 9000 330 0 0 0
2019/10/10 15:01:00 BASE 7.05 321 7.97 322 -5.3 100 -5.3 233 0 976.2 NA 0.0000 -SN BR 8000 0 0 0 3740
2019/10/10 15:02:00 BASE 7.00 326 7.97 322 -5.3 100 -5.3 235 0 976.2 NA 0.0000 -SN BR 9000 330 0 0 0
2019/10/10 15:03:00 BASE 6.58 325 7.97 322 -5.3 100 -5.3 238 0 976.3 NA 0.0000 -SN 9999 360 0 0 0
2019/10/10 15:04:00 BASE 6.40 323 7.97 322 -5.3 100 -5.3 239 0 976.4 NA 0.0000 -SN 9999 0 0 0 4130
2019/10/10 15:05:00 BASE 6.48 319 7.97 322 -5.3 100 -5.3 240 0 976.4 NA 0.0000 -SN 9999 0 0 0 3970
2019/10/10 15:06:00 BASE 6.68 316 7.97 322 -5.3 100 -5.3 241 0 976.4 NA 0.0000 -SN 9999 430 0 0 0
2019/10/10 15:07:00 BASE 6.80 316 7.97 322 -5.3 100 -5.3 241 0 976.4 NA 0.0000 -SN 9999 430 0 0 0
2019/10/10 15:08:00 BASE 6.68 319 7.97 322 -5.3 100 -5.3 241 0 976.4 NA 0.0000 -SN 9999 1350 0 0 0
2019/10/10 15:09:00 BASE 6.68 320 7.97 322 -5.3 100 -5.3 242 0 976.4 NA 0.0000 -SN 9999 0 0 0 3900
2019/10/10 15:10:00 BASE 6.57 318 7.72 311 -5.3 100 -5.3 243 0 976.4 NA 0.0000 9999 1250 0 0 0
2019/10/10 15:11:00 BASE 6.22 319 7.72 311 -5.3 100 -5.3 243 0 976.4 NA 0.0000 9999 0 0 0 4690
2019/10/10 15:12:00 BASE 6.04 322 7.72 311 -5.3 100 -5.3 244 0 976.4 NA 0.0000 9999 590 0 0 0
2019/10/10 15:13:00 BASE 6.42 325 7.72 311 -5.4 100 -5.4 245 0 976.4 NA 0.0000 9999 1740 0 0 0
2019/10/10 15:14:00 BASE 6.42 328 7.72 311 -5.3 100 -5.3 246 0 976.4 NA 0.0000 9999 1210 0 0 0
2019/10/10 15:15:00 BASE 5.69 332 7.72 311 -5.3 100 -5.3 246 0 976.4 NA 0.0000 9999 690 0 0 0
2019/10/10 15:16:00 BASE 5.58 335 7.61 320 -5.3 100 -5.3 247 0 976.4 NA 0.0000 9999 620 1770 0 0
2019/10/10 15:17:00 BASE 5.86 337 7.61 320 -5.3 100 -5.3 249 0 976.4 NA 0.0000 9999 360 0 0 0
2019/10/10 15:18:00 BASE 5.96 337 7.61 320 -5.3 100 -5.3 251 0 976.4 NA 0.0000 9999 390 0 0 0
2019/10/10 15:19:00 BASE 5.88 333 7.61 320 -5.3 100 -5.3 253 0 976.4 NA 0.0000 9000 1710 0 0 0
2019/10/10 15:20:00 BASE 5.62 325 7.61 320 -5.3 100 -5.3 254 0 976.5 NA 0.0000 9999 430 0 0 0
2019/10/10 15:21:00 BASE 5.51 321 7.61 320 -5.3 100 -5.3 256 0 976.4 NA 0.0000 9999 1740 0 0 0
2019/10/10 15:22:00 BASE 5.61 319 7.61 320 -5.3 100 -5.3 258 0 976.4 NA 0.0000 9000 1280 0 0 0
2019/10/10 15:23:00 BASE 5.98 322 7.05 328 -5.3 100 -5.3 260 0 976.5 NA 0.0000 9999 1570 0 0 0
2019/10/10 15:24:00 BASE 6.29 327 7.41 324 -5.3 100 -5.3 262 0 976.5 NA 0.0000 9999 1540 23130 0 0
2019/10/10 15:25:00 BASE 6.31 328 7.41 324 -5.2 100 -5.2 264 0 976.5 NA 0.0000 9999 1380 2260 0 0
2019/10/10 15:26:00 BASE 6.17 326 7.41 324 -5.2 100 -5.2 265 0 976.5 NA 0.0000 9000 1540 0 0 0
2019/10/10 15:27:00 BASE 6.19 325 7.41 324 -5.2 100 -5.2 267 0 976.5 NA 0.0000 9999 1970 0 0 0
2019/10/10 15:28:00 BASE 6.42 326 7.41 324 -5.2 100 -5.2 268 0 976.5 NA 0.0000 9999 1870 0 0 0
2019/10/10 15:29:00 BASE 6.58 325 7.41 324 -5.2 100 -5.2 268 0 976.5 NA 0.0000 9999 1440 2030 0 0
2019/10/10 15:30:00 BASE 6.64 323 7.41 324 -5.2 100 -5.2 268 0 976.5 NA 0.0000 9000 1440 2170 0 0
2019/10/10 15:31:00 BASE 6.51 323 7.41 324 -5.2 100 -5.2 269 0 976.5 NA 0.0000 8000 1250 0 0 0
2019/10/10 15:32:00 BASE 5.97 328 7.41 324 -5.3 100 -5.3 272 0 976.5 NA 0.0000 9999 1280 0 0 0
2019/10/10 15:33:00 BASE 5.58 331 7.41 324 -5.3 100 -5.3 276 0 976.5 NA 0.0000 9999 1210 0 0 0
2019/10/10 15:34:00 BASE 5.35 332 7.31 316 -5.3 100 -5.3 279 0 976.5 NA 0.0000 9999 1180 0 0 0
2019/10/10 15:35:00 BASE 4.95 336 7.31 316 -5.3 100 -5.3 282 0 976.5 NA 0.0000 9999 1150 0 0 0
2019/10/10 15:36:00 BASE 5.38 333 7.31 316 -5.3 100 -5.3 284 0 976.5 NA 0.0000 9999 1410 0 0 0
2019/10/10 15:37:00 BASE 6.83 325 8.75 319 -5.2 100 -5.2 285 0 976.5 NA 0.0000 9999 1440 0 0 0
2019/10/10 15:38:00 BASE 8.18 320 9.31 322 -5.2 100 -5.2 286 0 976.5 NA 0.0000 BR 9000 1080 1770 0 0
2019/10/10 15:39:00 BASE 8.78 319 9.62 318 -5.2 100 -5.2 286 0 976.5 NA 0.0000 BR 9999 1150 0 0 0
2019/10/10 15:40:00 BASE 9.06 317 9.62 321 -5.1 100 -5.1 286 0 976.5 NA 0.0000 BR 9000 1080 0 0 0
2019/10/10 15:41:00 BASE 9.21 321 9.77 327 -5.1 100 -5.1 286 0 976.5 NA 0.0000 9000 0 0 0 3480
2019/10/10 15:42:00 BASE 8.53 327 9.77 327 -5.1 100 -5.1 287 0 976.5 NA 0.0000 9999 0 0 0 3610
2019/10/10 15:43:00 BASE 7.55 328 9.77 327 -5.1 100 -5.1 287 0 976.6 NA 0.0000 9999 0 0 0 3480
2019/10/10 15:44:00 BASE 7.02 325 9.77 327 -5.1 100 -5.1 289 0 976.6 NA 0.0000 BR 9000 390 0 0 0
2019/10/10 15:45:00 BASE 6.83 320 9.77 327 -5.1 100 -5.1 290 0 976.6 NA 0.0000 BR 9000 360 0 0 0
2019/10/10 15:46:00 BASE 6.61 318 9.77 327 -5.1 100 -5.1 291 0 976.6 NA 0.0000 BR 7000 18280 19850 0 0
2019/10/10 15:47:00 BASE 6.52 317 9.77 327 -5.1 100 -5.1 292 0 976.6 NA 0.0000 -SN BR 5000 360 0 0 0
2019/10/10 15:48:00 BASE 7.10 316 9.77 327 -5.1 100 -5.1 292 0 976.6 NA 0.0000 -SN BR 5000 0 0 0 3640
2019/10/10 15:49:00 BASE 7.65 317 9.77 327 -5.1 100 -5.1 292 0 976.6 NA 0.0000 -SN BR 6000 0 0 0 3310
2019/10/10 15:50:00 BASE 7.21 319 9.77 327 -5.1 100 -5.1 290 0 976.6 NA 0.0000 -SN BR 7000 360 0 0 0
2019/10/10 15:51:00 BASE 6.94 321 8.28 320 -5.0 100 -5.0 292 0 976.6 NA 0.0000 -SN BR 5000 330 20380 0 0
2019/10/10 15:52:00 BASE 7.45 322 8.33 321 -5.0 100 -5.0 292 0 976.6 NA 0.0000 -SN BR 4700 0 0 0 3410
2019/10/10 15:53:00 BASE 7.42 322 8.33 321 -5.0 100 -5.0 294 0 976.6 NA 0.0000 -SN BR 5000 0 0 0 3150
2019/10/10 15:54:00 BASE 7.03 323 8.33 321 -5.0 100 -5.0 296 0 976.6 NA 0.0000 -SN BR 5000 18110 21880 0 0
2019/10/10 15:55:00 BASE 7.52 325 8.59 328 -5.0 100 -5.0 297 0 976.6 NA 0.0000 -SN BR 6000 360 0 0 0
2019/10/10 15:56:00 BASE 8.09 326 8.59 328 -5.0 100 -5.0 298 0 976.6 NA 0.0000 -SN BR 9000 390 0 0 0
2019/10/10 15:57:00 BASE 7.54 325 8.59 328 -5.0 100 -5.0 299 0 976.6 NA 0.0000 -SN BR 9000 0 0 0 3120
2019/10/10 15:58:00 BASE 7.09 323 8.59 328 -5.0 100 -5.0 300 0 976.6 NA 0.0000 -SN BR 9000 390 0 0 0
2019/10/10 15:59:00 BASE 7.33 320 8.59 328 -5.0 100 -5.0 301 0 976.6 NA 0.0000 -SN BR 8000 360 0 0 0
2019/10/10 16:00:00 BASE 7.32 319 8.59 328 -5.0 100 -5.0 302 0 976.6 NA 0.0000 -SN BR 8000 360 0 0 0
2019/10/10 16:01:00 BASE 7.21 318 8.59 328 -5.1 100 -5.1 303 0 976.6 NA 0.0000 -SN BR 8000 390 0 0 0
2019/10/10 16:02:00 BASE 7.61 317 8.75 315 -5.1 100 -5.1 303 0 976.2 NA 0.0000 -SN BR 9000 430 0 0 0
2019/10/10 16:03:00 BASE 7.88 317 8.75 315 -5.1 100 -5.1 303 0 976.5 NA 0.0000 -SN BR 9999 390 0 0 0
2019/10/10 16:04:00 BASE 7.54 322 8.75 315 -5.1 100 -5.1 303 0 976.6 NA 0.0000 BR 9999 0 0 0 3450
2019/10/10 16:05:00 BASE 6.86 326 8.75 315 -5.1 100 -5.1 303 0 976.0 NA 0.0000 -SN BR 9999 390 0 0 0
2019/10/10 16:06:00 BASE 6.22 323 8.75 315 -5.1 100 -5.1 303 0 976.7 NA 0.0000 -SN 9999 430 0 0 0
2019/10/10 16:07:00 BASE 6.03 321 8.75 315 -5.1 100 -5.1 302 0 976.7 NA 0.0000 -SN 9999 490 0 0 0
2019/10/10 16:08:00 BASE 6.38 324 8.75 315 -5.1 100 -5.1 302 0 976.7 NA 0.0000 -SN 9999 460 0 0 0
2019/10/10 16:09:00 BASE 6.47 332 8.75 315 -5.1 100 -5.1 302 0 976.7 NA 0.0000 -SN 9000 1050 0 0 0
2019/10/10 16:10:00 BASE 5.99 340 8.75 315 -5.1 100 -5.1 302 0 976.7 NA 0.0000 -SN 8000 0 0 0 3510
2019/10/10 16:11:00 BASE 6.24 343 8.75 315 -5.1 100 -5.1 302 0 975.9 NA 0.0000 -SN 6000 0 0 0 3580
2019/10/10 16:12:00 BASE 6.48 339 8.64 318 -5.1 100 -5.1 302 0 976.4 NA 0.0000 -SN 8000 820 0 0 0
2019/10/10 16:13:00 BASE 6.07 334 7.82 328 -5.1 100 -5.1 301 0 976.0 NA 0.0000 -SN 8000 2030 0 0 0
2019/10/10 16:14:00 BASE 5.66 334 7.82 328 -5.1 100 -5.1 300 0 976.6 NA 0.0000 -SN BR 8000 0 0 0 3080
2019/10/10 16:15:00 BASE 5.73 338 7.82 328 -5.1 100 -5.1 299 0 976.4 NA 0.0000 -SN BR 7000 0 0 0 3020
2019/10/10 16:16:00 BASE 5.69 340 7.82 328 -5.1 100 -5.1 299 0 976.7 NA 0.0000 -SN BR 7000 0 0 0 3080
2019/10/10 16:17:00 BASE 5.21 339 7.82 328 -5.2 100 -5.2 299 0 976.3 NA 0.0000 -SN BR 9000 590 0 0 0
2019/10/10 16:18:00 BASE 5.05 337 7.15 340 -5.2 100 -5.2 298 0 975.9 NA 0.0000 -SN BR 9999 790 0 0 0
2019/10/10 16:19:00 BASE 5.07 333 7.15 340 -5.2 100 -5.2 297 0 976.3 NA 0.0000 -SN BR 9999 590 0 0 0
2019/10/10 16:20:00 BASE 4.60 331 7.15 340 -5.2 100 -5.2 296 0 976.6 NA 0.0000 -SN BR 9999 430 0 0 0
2019/10/10 16:21:00 BASE 4.35 333 6.94 340 -5.2 100 -5.2 295 0 976.7 NA 0.0000 -SN BR 6000 0 0 0 3020
2019/10/10 16:22:00 BASE 4.76 331 6.22 343 -5.2 100 -5.2 294 0 976.5 NA 0.0000 -SN BR 9000 0 0 0 2990
2019/10/10 16:23:00 BASE 5.32 324 6.22 343 -5.1 100 -5.1 294 0 976.7 NA 0.0000 -SN BR 9999 0 0 0 3050
2019/10/10 16:24:00 BASE 5.73 320 6.22 343 -5.1 100 -5.1 292 0 976.4 NA 0.0000 -SN BR 9999 1080 0 0 0
2019/10/10 16:25:00 BASE 5.65 324 6.17 321 -5.1 100 -5.1 290 0 976.7 NA 0.0000 -SN BR 9999 1280 0 0 0
2019/10/10 16:26:00 BASE 5.71 323 6.28 324 -5.0 100 -5.0 288 0 976.7 NA 0.0000 -SN 9999 690 0 0 0
2019/10/10 16:27:00 BASE 5.57 317 6.28 324 -5.0 100 -5.0 286 0 976.8 NA 0.0000 -SN 9999 590 0 0 0
2019/10/10 16:28:00 BASE 5.56 312 6.69 297 -5.0 100 -5.0 283 0 976.8 NA 0.0000 -SN 9999 690 0 0 0
2019/10/10 16:29:00 BASE 6.39 311 8.39 325 -5.0 100 -5.0 281 0 976.7 NA 0.0000 -SN 9999 0 0 0 2790
2019/10/10 16:30:00 BASE 7.22 324 8.39 325 -5.0 100 -5.0 278 0 976.8 NA 0.0000 -SN 9999 0 0 0 2820
2019/10/10 16:31:00 BASE 7.41 339 8.39 325 -5.0 100 -5.0 278 0 976.6 NA 0.0000 -SN 8000 330 0 0 0
2019/10/10 16:32:00 BASE 6.64 337 8.39 325 -5.0 100 -5.0 278 0 976.7 NA 0.0000 -SN 9999 300 0 0 0
2019/10/10 16:33:01 BASE 5.82 331 8.39 325 -5.0 100 -5.1 279 0 976.8 NA 0.0000 -SN 9999 390 0 0 0
2019/10/10 16:34:00 BASE 5.85 332 8.39 325 -5.1 100 -5.1 280 0 976.8 NA 0.0000 -SN 9999 390 0 0 0
2019/10/10 16:35:00 BASE 6.10 330 8.39 325 -5.1 100 -5.1 280 0 976.7 NA 0.0000 -SN 9999 890 0 0 0
2019/10/10 16:36:00 BASE 6.36 321 8.85 313 -5.1 100 -5.1 281 0 976.4 NA 0.0000 -SN 9999 2130 0 0 0
2019/10/10 16:37:00 BASE 7.36 316 9.67 318 -5.1 100 -5.1 281 0 976.7 NA 0.0000 -SN 9999 0 0 0 2260
2019/10/10 16:38:00 BASE 8.31 317 9.67 318 -5.1 100 -5.1 281 0 976.7 NA 0.0000 -SN 8000 300 0 0 0
2019/10/10 16:39:00 BASE 8.84 326 9.67 318 -5.1 100 -5.1 282 0 976.8 NA 0.0000 -SN 8000 360 0 0 0
2019/10/10 16:40:00 BASE 8.95 330 9.67 318 -5.1 100 -5.1 281 0 976.8 NA 0.0000 -SN 9999 330 24020 0 0
2019/10/10 16:41:00 BASE 8.39 327 9.67 318 -5.1 100 -5.1 282 0 976.9 NA 0.0000 -SN 9999 330 0 0 0
2019/10/10 16:42:00 BASE 7.55 324 9.67 318 -5.1 100 -5.1 282 0 977.0 NA 0.0000 -SN 9999 330 0 0 0
2019/10/10 16:43:00 BASE 7.61 322 9.67 318 -5.1 100 -5.1 282 0 977.0 NA 0.0000 -SN 9999 360 0 0 0
2019/10/10 16:44:00 BASE 8.17 321 9.67 318 -5.1 100 -5.1 281 0 977.0 NA 0.0000 -SN 9999 360 0 0 0
2019/10/10 16:45:00 BASE 7.91 322 9.67 318 -5.1 100 -5.1 281 0 977.0 NA 0.0000 -SN BR 9999 0 0 0 3480
2019/10/10 16:46:00 BASE 7.41 322 9.67 318 -5.1 100 -5.1 279 0 977.0 NA 0.0000 -SN BR 9999 0 0 0 3540
2019/10/10 16:47:00 BASE 7.40 322 9.57 332 -5.1 100 -5.1 278 0 977.0 NA 0.0000 -SN BR 9999 0 0 0 3220
2019/10/10 16:48:00 BASE 7.52 322 9.57 332 -5.1 100 -5.1 277 0 977.0 NA 0.0000 -SN BR 9000 0 0 0 3220
2019/10/10 16:49:00 BASE 7.40 321 9.31 323 -5.1 100 -5.1 277 0 976.7 NA 0.0000 -SN BR 7000 0 0 0 3150
2019/10/10 16:50:00 BASE 7.24 320 8.64 315 -5.1 100 -5.1 276 0 976.9 NA 0.0000 -SN BR 8000 0 0 0 4000
2019/10/10 16:51:00 BASE 7.64 319 8.80 317 -5.1 100 -5.1 275 0 976.6 NA 0.0000 -SN BR 9000 360 0 0 0
2019/10/10 16:52:00 BASE 8.42 319 9.11 323 -5.1 100 -5.1 275 0 976.7 NA 0.0000 -SN BR 9000 0 0 0 4200
2019/10/10 16:53:00 BASE 8.56 322 9.11 323 -5.0 100 -5.0 275 0 976.6 NA 0.0000 -SN BR 9000 360 0 0 0
2019/10/10 16:54:00 BASE 8.72 321 9.47 322 -5.0 100 -5.0 274 0 976.7 NA 0.0000 -SN BR 9999 360 0 0 0
2019/10/10 16:55:00 BASE 8.49 322 9.47 322 -5.0 100 -5.0 274 0 977.1 NA 0.0000 -SN BR 9000 330 0 0 0
2019/10/10 16:56:00 BASE 7.84 323 9.47 322 -5.0 100 -5.0 274 0 977.1 NA 0.0000 -SN BR 9000 360 0 0 0
2019/10/10 16:57:00 BASE 7.57 321 9.47 322 -5.0 100 -5.0 275 0 977.0 NA 0.0000 -SN BR 9999 0 0 0 3870
2019/10/10 16:58:00 BASE 7.41 322 9.47 322 -5.0 100 -5.0 275 0 977.0 NA 0.0000 -SN BR 9000 360 2170 0 0
2019/10/10 16:59:00 BASE 7.21 325 9.47 322 -5.0 100 -5.0 275 0 977.1 NA 0.0000 -SN BR 9000 390 0 0 0
2019/10/10 17:00:00 BASE 7.44 324 9.47 322 -5.0 100 -5.0 275 0 976.9 NA 0.0000 -SN BR 9000 360 0 0 0
2019/10/10 17:01:00 BASE 7.65 322 9.47 322 -5.0 100 -5.0 276 0 976.9 NA 0.0000 -SN BR 9999 0 0 0 3710
2019/10/10 17:02:00 BASE 7.39 319 9.47 322 -5.0 100 -5.0 276 0 977.1 NA 0.0000 -SN BR 9999 0 0 0 3710
2019/10/10 17:03:00 BASE 6.94 318 9.47 322 -5.0 100 -5.0 275 0 977.2 NA 0.0000 -SN BR 7000 0 0 0 3610
2019/10/10 17:04:00 BASE 6.61 316 8.85 322 -5.0 100 -5.0 274 0 977.2 NA 0.0000 -SN BR 6000 360 0 0 0
2019/10/10 17:05:00 BASE 6.41 315 8.64 321 -5.0 100 -5.0 274 0 977.2 NA 0.0000 -SN BR 7000 0 0 0 3710
2019/10/10 17:06:00 BASE 6.65 316 8.64 321 -5.0 100 -5.0 274 0 977.2 NA 0.0000 -SN BR 9999 360 0 0 0
2019/10/10 17:07:00 BASE 7.41 317 8.64 321 -5.0 100 -5.0 273 0 977.2 NA 0.0000 -SN BR 8000 360 0 0 0
2019/10/10 17:08:00 BASE 7.56 318 8.64 321 -5.1 100 -5.1 273 0 977.2 NA 0.0000 -SN BR 8000 360 0 0 0
2019/10/10 17:09:00 BASE 7.27 318 8.64 321 -5.1 100 -5.1 272 0 977.2 NA 0.0000 -SN BR 8000 330 0 0 0
2019/10/10 17:10:00 BASE 7.05 318 8.18 319 -5.1 100 -5.1 272 0 977.2 NA 0.0000 -SN BR 7000 0 0 0 3580
2019/10/10 17:11:00 BASE 6.82 318 8.18 319 -5.1 100 -5.1 272 0 977.2 NA 0.0000 -SN BR 8000 360 0 0 0
2019/10/10 17:12:00 BASE 6.70 316 8.18 319 -5.1 100 -5.1 272 0 977.2 NA 0.0000 -SN BR 9999 360 22670 0 0
2019/10/10 17:13:00 BASE 6.92 314 8.18 319 -5.1 100 -5.1 272 0 977.2 NA 0.0000 -SN BR 9000 360 0 0 0
2019/10/10 17:14:00 BASE 6.88 316 8.18 319 -5.1 100 -5.1 270 0 977.2 NA 0.0000 -SN BR 8000 360 0 0 0
2019/10/10 17:15:00 BASE 6.76 316 8.18 319 -5.1 100 -5.1 268 0 977.3 NA 0.0000 -SN BR 9999 360 0 0 0
2019/10/10 17:16:00 BASE 7.06 315 8.18 319 -5.1 100 -5.1 267 0 977.3 NA 0.0000 -SN BR 9000 390 0 0 0
2019/10/10 17:17:00 BASE 7.28 316 7.87 318 -5.1 100 -5.1 265 0 977.3 NA 0.0000 -SN BR 9999 390 0 0 0
2019/10/10 17:18:00 BASE 7.61 319 8.54 318 -5.1 100 -5.1 263 0 977.3 NA 0.0000 -SN BR 9000 390 0 0 0
2019/10/10 17:19:00 BASE 7.89 318 9.00 316 -5.1 100 -5.1 261 0 977.3 NA 0.0000 -SN BR 9999 390 0 0 0
2019/10/10 17:20:00 BASE 7.98 317 9.00 316 -5.1 100 -5.1 261 0 977.3 NA 0.0000 -SN BR 8000 360 0 0 0
2019/10/10 17:21:00 BASE 8.05 319 9.00 316 -5.0 100 -5.0 259 0 977.3 NA 0.0000 -SN BR 9999 360 0 0 0
2019/10/10 17:22:00 BASE 8.15 320 9.05 318 -5.0 100 -5.0 257 0 977.3 NA 0.0000 -SN BR 9999 330 0 0 0
2019/10/10 17:23:00 BASE 8.51 320 9.31 315 -5.0 100 -5.0 258 0 977.3 NA 0.0000 -SN BR 8000 330 20180 0 0
2019/10/10 17:24:00 BASE 8.72 318 9.31 315 -5.0 100 -5.0 259 0 977.3 NA 0.0000 -SN BR 8000 330 0 0 0
2019/10/10 17:25:00 BASE 8.54 317 9.31 315 -5.1 100 -5.1 259 0 977.3 NA 0.0000 -SN BR 8000 330 0 0 0
2019/10/10 17:26:00 BASE 8.26 317 9.31 315 -5.1 100 -5.1 259 0 977.3 NA 0.0000 -SN BR 8000 0 0 0 3900
2019/10/10 17:27:00 BASE 7.74 317 9.31 315 -5.1 100 -5.1 259 0 977.3 NA 0.0000 -SN BR 9000 360 0 0 0
2019/10/10 17:28:00 BASE 7.34 318 9.31 315 -5.1 100 -5.1 258 0 977.3 NA 0.0000 -SN BR 9999 360 0 0 0
2019/10/10 17:29:00 BASE 7.47 321 9.31 315 -5.1 100 -5.1 257 0 977.3 NA 0.0000 -SN BR 9000 390 0 0 0
2019/10/10 17:30:00 BASE 7.44 325 9.31 315 -5.1 100 -5.1 256 0 977.2 NA 0.0000 -SN BR 9999 360 0 0 0
2019/10/10 17:31:00 BASE 7.33 326 9.31 315 -5.1 100 -5.1 254 0 977.2 NA 0.0000 -SN BR 9999 360 0 0 0
2019/10/10 17:32:00 BASE 7.56 326 9.31 315 -5.1 100 -5.1 253 0 976.9 NA 0.0000 -SN BR 9999 360 0 0 0
2019/10/10 17:33:00 BASE 7.85 325 9.26 315 -5.1 100 -5.1 251 0 977.2 NA 0.0000 -SN BR 9999 360 0 0 0
2019/10/10 17:34:00 BASE 7.83 323 8.85 315 -5.1 100 -5.1 250 0 977.3 NA 0.0000 -SN 9999 360 0 0 0
2019/10/10 17:35:00 BASE 7.90 319 8.85 313 -5.1 100 -5.1 249 0 977.4 NA 0.0000 -SN 9999 360 0 0 0
2019/10/10 17:36:00 BASE 8.12 315 8.85 313 -5.1 100 -5.1 248 0 977.4 NA 0.0000 -SN 7000 330 0 0 0
2019/10/10 17:37:00 BASE 8.35 315 8.85 314 -5.1 100 -5.1 247 0 977.4 NA 0.0000 -SN BR 6000 1870 0 0 0
2019/10/10 17:38:00 BASE 8.11 315 8.85 314 -5.1 100 -5.1 247 0 977.4 NA 0.0000 -SN BR 6000 330 0 0 0
2019/10/10 17:39:00 BASE 7.96 315 9.11 315 -5.2 100 -5.2 246 0 977.4 NA 0.0000 -SN BR 7000 330 0 0 0
2019/10/10 17:40:00 BASE 7.93 315 9.11 315 -5.2 100 -5.2 246 0 977.4 NA 0.0000 -SN BR 9999 300 0 0 0
2019/10/10 17:41:00 BASE 7.64 316 9.11 315 -5.2 100 -5.2 246 0 977.5 NA 0.0000 -SN BR 9999 300 0 0 0
2019/10/10 17:42:00 BASE 7.22 319 9.11 315 -5.2 100 -5.2 246 0 977.5 NA 0.0000 -SN BR 9999 300 0 0 0
2019/10/10 17:43:00 BASE 6.69 320 9.11 315 -5.2 100 -5.2 247 0 977.6 NA 0.0000 -SN BR 9999 330 0 0 0
2019/10/10 17:44:00 BASE 7.04 319 9.11 315 -5.2 100 -5.2 248 0 977.6 NA 0.0000 -SN BR 9999 330 0 0 0
2019/10/10 17:45:00 BASE 8.04 320 9.36 318 -5.2 100 -5.2 248 0 977.6 NA 0.0000 -SN 9999 0 0 0 3310
2019/10/10 17:46:00 BASE 8.10 320 9.36 318 -5.2 100 -5.2 249 0 977.6 NA 0.0000 -SN 8000 0 0 0 3380
2019/10/10 17:47:00 BASE 7.41 318 9.36 318 -5.2 100 -5.2 249 0 977.6 NA 0.0000 -SN 9000 360 0 0 0
2019/10/10 17:48:00 BASE 7.17 319 9.36 318 -5.1 100 -5.1 249 0 977.6 NA 0.0000 -SN 7000 360 0 0 0
2019/10/10 17:49:00 BASE 7.24 319 9.36 318 -5.1 100 -5.1 248 0 977.6 NA 0.0000 -SN 9999 360 0 0 0
2019/10/10 17:50:00 BASE 6.87 319 9.36 318 -5.1 100 -5.1 247 0 977.6 NA 0.0000 -SN 9999 360 0 0 0
2019/10/10 17:51:00 BASE 6.93 319 9.36 318 -5.1 100 -5.1 246 0 977.7 NA 0.0000 -SN 9999 360 0 0 0
2019/10/10 17:52:00 BASE 7.53 321 9.36 318 -5.1 100 -5.1 245 0 977.7 NA 0.0000 9999 360 0 0 0
2019/10/10 17:53:00 BASE 7.51 319 9.36 318 -5.2 100 -5.2 245 0 977.7 NA 0.0000 9999 330 0 0 0
2019/10/10 17:54:00 BASE 7.61 317 9.36 318 -5.2 100 -5.2 244 0 977.7 NA 0.0000 9999 300 0 0 0
2019/10/10 17:55:00 BASE 7.60 317 8.44 318 -5.2 100 -5.2 244 0 977.7 NA 0.0000 BR 8000 300 0 0 0
2019/10/10 17:56:00 BASE 7.38 318 8.44 318 -5.2 100 -5.2 243 0 977.7 NA 0.0000 BR 8000 300 0 0 0
2019/10/10 17:57:00 BASE 7.47 316 8.44 323 -5.2 100 -5.2 240 0 977.7 NA 0.0000 -SN BR 9000 300 0 0 0
2019/10/10 17:58:00 BASE 7.72 316 9.00 316 -5.2 100 -5.2 237 0 977.7 NA 0.0000 -SN BR 5000 260 0 0 0
2019/10/10 17:59:00 BASE 7.93 317 9.00 316 -5.2 100 -5.2 230 0 977.7 NA 0.0000 -SN BR 6000 0 0 0 3220
2019/10/10 18:00:00 BASE 7.66 318 9.00 316 -5.2 100 -5.2 227 0 977.6 NA 0.0000 -SN BR 9999 0 0 0 1440
2019/10/10 18:01:00 BASE 7.88 319 9.16 322 -5.1 100 -5.1 227 0 977.7 NA 0.0000 -SN BR 9999 0 0 0 2400
2019/10/10 18:02:00 BASE 8.66 318 9.62 318 -5.1 100 -5.1 226 0 977.7 NA 0.0000 -SN BR 9999 230 0 0 0
2019/10/10 18:03:00 BASE 8.68 317 9.62 318 -5.2 100 -5.2 223 0 977.7 NA 0.0000 -SN BR 9999 260 0 0 0
2019/10/10 18:04:00 BASE 8.12 316 9.62 318 -5.2 100 -5.2 221 0 977.7 NA 0.0000 -SN BR 9999 300 0 0 0
2019/10/10 18:05:00 BASE 7.97 316 9.62 318 -5.2 100 -5.2 219 0 977.8 NA 0.0000 -SN 9999 300 0 0 0
2019/10/10 18:06:00 BASE 8.25 315 9.62 318 -5.3 100 -5.3 218 0 977.8 NA 0.0000 -SN BR 5000 260 0 0 0
2019/10/10 18:07:00 BASE 8.14 316 9.62 318 -5.3 100 -5.3 217 0 977.8 NA 0.0000 -SN BR 5000 230 0 0 0
2019/10/10 18:08:00 BASE 7.75 316 9.62 318 -5.3 100 -5.3 215 0 977.8 NA 0.0000 -SN BR 4600 0 0 0 2200
2019/10/10 18:09:00 BASE 7.50 316 9.62 318 -5.3 100 -5.3 212 0 977.8 NA 0.0000 -SN BR 5000 22310 0 0 0
2019/10/10 18:10:00 BASE 7.20 317 9.62 318 -5.3 100 -5.3 207 0 977.8 NA 0.0000 -SN BR 9999 0 0 0 1870
2019/10/10 18:11:00 BASE 7.23 319 9.62 318 -5.3 100 -5.3 203 0 977.8 NA 0.0000 -SN BR 9999 0 0 0 1770
2019/10/10 18:12:00 BASE 7.63 322 9.36 321 -5.3 100 -5.3 198 0 977.8 NA 0.0000 -SN BR 9999 0 0 0 1570
2019/10/10 18:13:00 BASE 7.95 325 8.95 312 -5.3 100 -5.3 195 0 977.8 NA 0.0000 -SN BR 9999 0 0 0 1380
2019/10/10 18:14:00 BASE 7.92 323 8.95 312 -5.3 100 -5.3 194 0 977.8 NA 0.0000 -SN BR 9999 0 0 0 1740
2019/10/10 18:15:00 BASE 7.59 323 8.75 317 -5.3 100 -5.3 193 0 977.9 NA 0.0000 -SN BR 9999 0 0 0 1380
2019/10/10 18:16:00 BASE 7.40 324 8.64 316 -5.3 100 -5.3 194 0 977.9 NA 0.0000 -SN BR 9999 0 0 0 1410
2019/10/10 18:17:00 BASE 7.29 324 8.49 318 -5.3 100 -5.3 198 0 977.1 NA 0.0000 -SN 9999 0 0 0 1210
2019/10/10 18:18:00 BASE 7.00 323 8.49 318 -5.3 100 -5.3 204 0 977.6 NA 0.0000 -SN 9999 0 0 0 1150
2019/10/10 18:19:00 BASE 6.70 322 8.49 318 -5.3 100 -5.3 211 0 977.9 NA 0.0000 -SN 9999 0 0 0 1510
2019/10/10 18:20:00 BASE 6.94 319 8.49 318 -5.3 100 -5.3 214 0 977.3 NA 0.0000 -SN 9999 0 0 0 1640
2019/10/10 18:21:00 BASE 6.73 314 8.39 324 -5.3 100 -5.3 217 0 977.8 NA 0.0000 -SN 9999 0 0 0 1770
2019/10/10 18:22:00 BASE 6.32 304 8.39 324 -5.3 100 -5.3 219 0 977.9 NA 0.0000 -SN 9999 0 0 0 1840
2019/10/10 18:23:00 BASE 5.93 301 8.13 323 -5.3 100 -5.3 222 0 977.9 NA 0.0000 -SN 9999 0 0 0 2070
2019/10/10 18:24:00 BASE 5.42 300 7.97 327 -5.3 100 -5.3 224 0 977.9 NA 0.0000 -SN 9999 0 0 0 1970
2019/10/10 18:25:00 BASE 5.36 297 7.97 327 -5.3 100 -5.3 224 0 977.9 NA 0.0000 -SN 9999 0 0 0 2170
2019/10/10 18:26:00 BASE 5.15 299 7.87 324 -5.3 100 -5.3 224 0 977.9 NA 0.0000 -SN 9999 0 0 0 2170
2019/10/10 18:27:00 BASE 4.70 302 7.82 319 -5.3 100 -5.3 225 0 977.4 NA 0.0000 -SN 9999 0 0 0 1310
2019/10/10 18:28:00 BASE 4.76 302 7.82 319 -5.3 100 -5.3 226 0 977.9 NA 0.0000 -SN 9999 0 0 0 1870
2019/10/10 18:29:00 BASE 5.03 302 7.82 319 -5.3 100 -5.3 227 0 977.9 NA 0.0000 -SN 9999 0 0 0 2360
2019/10/10 18:30:00 BASE 5.24 302 6.94 301 -5.3 100 -5.3 226 0 977.9 NA 0.0000 -SN 9999 260 0 0 0
2019/10/10 18:31:00 BASE 5.24 299 6.94 301 -5.3 100 -5.3 225 0 977.9 NA 0.0000 -SN 8000 230 0 0 0
2019/10/10 18:32:00 BASE 5.22 299 6.33 298 -5.3 100 -5.3 225 0 977.9 NA 0.0000 -SN BR 4700 260 0 0 0
2019/10/10 18:33:00 BASE 5.71 302 7.05 307 -5.3 100 -5.3 226 0 977.9 NA 0.0000 -SN BR 5000 0 0 0 3610
2019/10/10 18:34:00 BASE 6.78 304 8.18 307 -5.2 100 -5.2 226 0 977.9 NA 0.0000 -SN BR 9000 260 0 0 0
2019/10/10 18:35:00 BASE 7.61 306 8.18 307 -5.2 100 -5.2 226 0 977.9 NA 0.0000 -SN BR 9000 0 0 0 4100
2019/10/10 18:36:00 BASE 7.45 307 8.18 307 -5.3 100 -5.3 225 0 977.9 NA 0.0000 -SN BR 9999 260 0 0 0
2019/10/10 18:37:00 BASE 7.17 308 8.18 307 -5.3 100 -5.3 224 0 978.0 NA 0.0000 -SN BR 9999 300 0 0 0
2019/10/10 18:38:00 BASE 6.83 307 8.18 307 -5.3 100 -5.3 223 0 978.0 NA 0.0000 -SN BR 9999 0 0 0 4040
2019/10/10 18:39:00 BASE 6.53 306 8.18 307 -5.4 100 -5.4 223 0 978.1 NA 0.0000 -SN BR 9999 0 0 0 4100
2019/10/10 18:40:00 BASE 6.44 305 8.18 307 -5.4 100 -5.4 221 0 978.0 NA 0.0000 -SN BR 9999 260 20700 0 0
2019/10/10 18:41:00 BASE 6.30 303 8.18 307 -5.4 100 -5.4 219 0 978.1 NA 0.0000 -SN BR 9999 300 0 0 0
2019/10/10 18:42:00 BASE 5.94 302 8.18 307 -5.4 100 -5.4 217 0 977.9 NA 0.0000 -SN BR 8000 260 0 0 0
2019/10/10 18:43:00 BASE 5.72 302 8.18 307 -5.4 100 -5.4 215 0 977.9 NA 0.0000 -SN 8000 230 0 0 0
2019/10/10 18:44:00 BASE 5.79 300 8.13 307 -5.4 100 -5.4 212 0 978.1 NA 0.0000 -SN 9999 200 0 0 0
2019/10/10 18:45:00 BASE 5.52 298 7.61 306 -5.4 100 -5.4 209 0 978.1 NA 0.0000 -SN 9999 200 0 0 0
2019/10/10 18:46:00 BASE 5.82 295 7.61 306 -5.3 100 -5.3 204 0 978.1 NA 0.0000 -SN 9999 260 0 0 0
2019/10/10 18:47:00 BASE 6.58 292 7.15 289 -5.3 100 -5.3 198 0 978.1 NA 0.0000 -SN 9999 0 0 0 2760
2019/10/10 18:48:00 BASE 6.54 293 7.25 293 -5.3 100 -5.3 192 0 978.1 NA 0.0000 -SN 9999 0 0 0 1280
2019/10/10 18:49:00 BASE 6.01 295 7.25 293 -5.3 100 -5.3 188 0 978.2 NA 0.0000 -SN 9999 0 0 0 1080
2019/10/10 18:50:00 BASE 5.78 294 7.25 293 -5.4 100 -5.4 184 0 978.1 NA 0.0000 -SN 9999 0 0 0 1210
2019/10/10 18:51:00 BASE 5.58 296 7.25 293 -5.4 100 -5.4 182 0 978.2 NA 0.0000 -SN 9000 0 0 0 1540
2019/10/10 18:52:00 BASE 5.54 299 7.25 293 -5.4 100 -5.4 180 0 977.3 NA 0.0000 -SN 7000 0 0 0 1670
2019/10/10 18:53:00 BASE 6.08 299 7.25 298 -5.4 100 -5.4 178 0 978.0 NA 0.0000 -SN 8000 21160 0 0 0
2019/10/10 18:54:00 BASE 6.63 299 7.25 298 -5.3 100 -5.3 177 0 978.1 NA 0.0000 -SN BR 4400 0 0 0 1380
2019/10/10 18:55:00 BASE 6.89 300 7.25 303 -5.3 100 -5.3 177 0 978.2 NA 0.0000 -SN BR 1700 0 0 0 1380
2019/10/10 18:56:00 BASE 7.13 302 7.72 300 -5.3 100 -5.3 178 0 978.2 NA 0.0000 -SN BR 1900 0 0 0 1610
2019/10/10 18:57:00 BASE 7.02 303 7.72 300 -5.4 100 -5.4 181 0 978.2 NA 0.0000 -SN BR 2000 0 0 0 1610
2019/10/10 18:58:00 BASE 6.32 304 7.72 300 -5.4 100 -5.4 183 0 978.2 NA 0.0000 -SN BR 2100 0 0 0 1710
2019/10/10 18:59:00 BASE 6.00 303 7.72 300 -5.5 100 -5.5 185 0 978.2 NA 0.0000 -SN BR 2400 0 0 0 2070
2019/10/10 19:00:00 BASE 6.09 301 7.72 300 -5.5 100 -5.5 187 0 978.2 NA 0.0000 -SN BR 2400 0 0 0 1840
2019/10/10 19:01:00 BASE 6.01 302 7.72 300 -5.5 100 -5.5 191 0 978.2 NA 0.0000 -SN BR 2300 0 0 0 1610
2019/10/10 19:02:00 BASE 6.11 303 7.72 300 -5.5 100 -5.5 193 0 978.2 NA 0.0000 -SN BR 2600 0 0 0 1900
2019/10/10 19:03:00 BASE 6.20 303 7.72 300 -5.5 100 -5.5 196 0 978.2 NA 0.0000 -SN BR 9000 0 0 0 2000
2019/10/10 19:04:00 BASE 5.92 305 7.72 300 -5.5 100 -5.5 198 0 978.3 NA 0.0000 -SN BR 9000 0 0 0 2170
2019/10/10 19:05:00 BASE 5.59 304 7.72 300 -5.5 100 -5.5 199 0 978.3 NA 0.0000 -SN BR 9999 230 18830 0 0
2019/10/10 19:06:00 BASE 5.07 303 7.15 302 -5.5 100 -5.5 198 0 978.3 NA 0.0000 -SN BR 9999 0 0 0 2620
2019/10/10 19:07:00 BASE 4.83 302 7.05 294 -5.5 100 -5.5 193 0 978.3 NA 0.0000 -SN BR 9999 260 0 0 0
2019/10/10 19:08:00 BASE 4.81 301 7.05 294 -5.5 100 -5.5 188 0 978.3 NA 0.0000 -SN BR 9000 0 0 0 1440
2019/10/10 19:09:00 BASE 4.56 300 6.94 299 -5.5 100 -5.5 182 0 978.3 NA 0.0000 -SN BR 9000 0 0 0 1640
2019/10/10 19:10:00 BASE 4.45 299 6.94 299 -5.5 100 -5.5 177 0 978.3 NA 0.2540 -SN BR 9999 0 0 0 1510
2019/10/10 19:11:00 BASE 4.75 299 6.94 299 -5.5 100 -5.5 173 0 978.3 NA 0.0000 -SN BR 9999 0 0 0 1180
2019/10/10 19:12:00 BASE 4.79 304 6.48 308 -5.5 100 -5.5 172 0 978.3 NA 0.0000 -SN 9999 18180 0 0 0
2019/10/10 19:13:00 BASE 4.98 311 6.38 304 -5.4 100 -5.4 174 0 978.4 NA 0.0000 -SN 9999 0 0 0 1310
2019/10/10 19:14:00 BASE 5.29 312 6.79 308 -5.4 100 -5.4 176 0 978.4 NA 0.0000 -SN 9999 0 0 0 1510
2019/10/10 19:15:00 BASE 5.38 312 6.79 308 -5.4 100 -5.4 180 0 978.2 NA 0.0000 -SN 9999 0 0 0 1740
2019/10/10 19:16:00 BASE 5.97 309 7.31 311 -5.4 100 -5.4 182 0 978.3 NA 0.0000 -SN 9000 20670 0 0 0
2019/10/10 19:17:00 BASE 6.50 309 7.41 310 -5.4 100 -5.4 184 0 978.3 NA 0.0000 -SN 9999 0 0 0 3020
2019/10/10 19:18:00 BASE 6.45 310 7.41 310 -5.3 100 -5.3 186 0 978.4 NA 0.0000 -SN 9999 24410 0 0 0
2019/10/10 19:19:00 BASE 6.18 310 7.41 310 -5.3 100 -5.3 187 0 978.4 NA 0.0000 -SN 9999 300 0 0 0
2019/10/10 19:20:00 BASE 6.39 309 7.51 316 -5.3 100 -5.3 188 0 978.4 NA 0.0000 -SN 9999 330 0 0 0
2019/10/10 19:21:00 BASE 6.80 308 7.51 316 -5.3 100 -5.3 188 0 978.4 NA 0.0000 -SN 9999 300 0 0 0
2019/10/10 19:22:00 BASE 7.04 308 7.67 308 -5.3 100 -5.3 187 0 978.4 NA 0.0000 -SN 9999 260 0 0 0
2019/10/10 19:23:00 BASE 7.23 309 7.72 308 -5.4 100 -5.4 187 0 978.4 NA 0.0000 -SN 9999 260 0 0 0
2019/10/10 19:24:00 BASE 7.36 309 7.92 307 -5.4 100 -5.4 186 0 978.4 NA 0.0000 -SN 9999 330 19720 0 0
2019/10/10 19:25:00 BASE 7.24 309 7.92 307 -5.5 100 -5.5 185 0 978.4 NA 0.0000 -SN 9999 330 0 0 0
2019/10/10 19:26:00 BASE 6.78 310 7.92 307 -5.5 100 -5.5 184 0 978.4 NA 0.0000 -SN 9999 330 1180 0 0
2019/10/10 19:27:00 BASE 6.31 311 7.92 307 -5.5 100 -5.5 183 0 978.4 NA 0.0000 9999 330 0 0 0
2019/10/10 19:28:00 BASE 6.17 311 7.92 307 -5.5 100 -5.5 182 0 978.4 NA 0.0000 9999 300 0 0 0
2019/10/10 19:29:00 BASE 6.12 310 7.92 307 -5.5 100 -5.5 181 0 978.4 NA 0.0000 9999 300 0 0 0
2019/10/10 19:30:00 BASE 6.01 308 7.92 307 -5.5 100 -5.5 181 0 978.4 NA 0.0000 9999 330 0 0 0
2019/10/10 19:31:00 BASE 5.72 306 7.92 307 -5.5 100 -5.5 180 0 978.5 NA 0.0000 9999 330 0 0 0
2019/10/10 19:32:00 BASE 5.38 305 7.92 307 -5.5 100 -5.5 179 0 978.5 NA 0.0000 9999 360 0 0 0
2019/10/10 19:33:00 BASE 5.26 303 7.92 307 -5.5 100 -5.5 179 0 978.5 NA 0.0000 9999 300 0 0 0
2019/10/10 19:34:00 BASE 5.15 301 7.77 310 -5.5 100 -5.5 178 0 978.5 NA 0.0000 9999 330 0 0 0
2019/10/10 19:35:00 BASE 5.15 298 6.89 310 -5.5 100 -5.5 178 0 978.5 NA 0.0000 9999 330 0 0 0
2019/10/10 19:36:00 BASE 4.95 297 6.69 311 -5.5 100 -5.5 177 0 978.5 NA 0.0000 9999 330 2820 0 0
2019/10/10 19:37:00 BASE 4.79 297 6.69 311 -5.5 100 -5.5 176 0 978.5 NA 0.0000 9999 260 1510 0 0
2019/10/10 19:38:00 BASE 4.73 295 6.38 313 -5.4 100 -5.4 176 0 978.5 NA 0.0000 -SN 9999 0 0 0 5970
2019/10/10 19:39:00 BASE 4.62 295 6.28 306 -5.4 100 -5.4 175 0 978.5 NA 0.0000 -SN 9999 200 1800 0 0
2019/10/10 19:40:00 BASE 4.76 295 6.07 307 -5.4 100 -5.4 174 0 978.5 NA 0.0000 -SN 9999 230 1640 0 0
2019/10/10 19:41:00 BASE 4.99 295 5.71 291 -5.4 100 -5.4 173 0 978.4 NA 0.0000 -SN 9999 260 1540 0 0
2019/10/10 19:42:00 BASE 5.12 297 5.71 291 -5.4 100 -5.4 172 0 978.5 NA 0.0000 -SN 9999 0 0 0 6560
2019/10/10 19:43:00 BASE 5.13 298 5.71 291 -5.4 100 -5.4 172 0 978.5 NA 0.0000 -SN 9999 0 0 0 6500
2019/10/10 19:44:00 BASE 5.04 300 5.71 291 -5.4 100 -5.4 171 0 978.5 NA 0.0000 -SN 9999 0 0 0 6630
2019/10/10 19:45:00 BASE 4.96 302 5.50 292 -5.4 100 -5.4 170 0 978.5 NA 0.0000 -SN 9999 0 0 0 6860
2019/10/10 19:46:00 BASE 4.93 304 5.50 292 -5.4 100 -5.4 168 0 978.5 NA 0.0000 -SN 9999 0 0 0 6660
2019/10/10 19:47:00 BASE 4.64 303 5.50 292 -5.5 100 -5.5 167 0 978.5 NA 0.0000 -SN 9999 0 0 0 6530
2019/10/10 19:48:00 BASE 4.35 303 5.50 292 -5.5 100 -5.5 166 0 978.5 NA 0.0000 -SN 9999 0 0 0 6430
2019/10/10 19:49:00 BASE 4.39 305 5.50 292 -5.5 100 -5.5 164 0 978.5 NA 0.0000 -SN 9999 0 0 0 6690
2019/10/10 19:50:00 BASE 4.60 303 5.50 292 -5.5 100 -5.5 163 0 978.5 NA 0.0000 -SN 9999 300 1770 0 0
2019/10/10 19:51:00 BASE 4.56 303 5.45 303 -5.5 100 -5.5 161 0 978.5 NA 0.0000 -SN 9999 330 2260 0 0
2019/10/10 19:52:00 BASE 4.25 306 5.45 303 -5.5 100 -5.5 160 0 978.5 NA 0.0000 -SN 9999 330 1840 0 0
2019/10/10 19:53:00 BASE 4.14 307 5.45 303 -5.5 100 -5.5 158 0 978.5 NA 0.0000 9999 360 2170 0 0
2019/10/10 19:54:00 BASE 4.22 307 5.45 303 -5.5 100 -5.5 156 0 978.5 NA 0.0000 9999 360 0 0 0
2019/10/10 19:55:00 BASE 4.21 306 5.20 299 -5.5 100 -5.5 155 0 978.5 NA 0.0000 9999 360 0 0 0
2019/10/10 19:56:00 BASE 4.01 303 5.04 295 -5.5 100 -5.5 153 0 978.6 NA 0.0000 9999 390 2330 0 0
2019/10/10 19:57:00 BASE 3.82 302 4.99 296 -5.5 100 -5.5 151 0 978.6 NA 0.0000 9999 300 0 0 0
2019/10/10 19:58:00 BASE 3.71 303 4.99 296 -5.5 100 -5.5 150 0 978.6 NA 0.0000 9999 300 0 0 0
2019/10/10 19:59:00 BASE 3.77 306 4.99 296 -5.5 100 -5.5 148 0 978.6 NA 0.0000 -SN 9999 0 0 0 6790
2019/10/10 20:00:00 BASE 3.89 308 4.68 303 -5.5 100 -5.5 146 0 978.6 NA 0.0000 -SN 9999 0 0 0 6760
2019/10/10 20:01:00 BASE 4.06 307 4.48 303 -5.5 100 -5.5 145 0 978.6 NA 0.0000 -SN 9999 230 2400 0 0
2019/10/10 20:02:00 BASE 4.25 307 4.58 313 -5.5 100 -5.5 143 0 978.6 NA 0.0000 -SN 9999 330 2400 0 0
2019/10/10 20:03:00 BASE 4.50 308 4.99 309 -5.5 100 -5.5 142 0 978.6 NA 0.0000 -SN 9999 330 0 0 0
2019/10/10 20:04:00 BASE 4.75 311 4.99 309 -5.5 100 -5.5 141 0 978.6 NA 0.0000 -SN 9999 300 1970 0 0
2019/10/10 20:05:00 BASE 4.78 314 5.04 319 -5.5 100 -5.5 139 0 978.6 NA 0.0000 -SN 9999 330 1900 0 0
2019/10/10 20:06:00 BASE 4.57 316 5.04 319 -5.5 100 -5.5 138 0 978.6 NA 0.0000 -SN 9999 260 1250 0 0
2019/10/10 20:07:00 BASE 4.52 317 5.71 324 -5.5 100 -5.5 137 0 978.7 NA 0.0000 -SN 9999 0 0 0 4920
2019/10/10 20:08:00 BASE 5.12 317 6.43 313 -5.5 100 -5.5 136 0 978.7 NA 0.0000 -SN 9999 0 0 0 4890
2019/10/10 20:09:00 BASE 5.78 317 6.43 313 -5.5 100 -5.5 134 0 978.7 NA 0.0000 9999 0 0 0 6200
2019/10/10 20:10:00 BASE 6.03 320 6.94 320 -5.5 100 -5.5 132 0 978.7 NA 0.0000 9999 0 0 0 5480
2019/10/10 20:11:00 BASE 6.42 323 7.82 315 -5.5 100 -5.5 130 0 978.7 NA 0.0000 9999 0 0 0 4920
2019/10/10 20:12:00 BASE 6.93 320 7.82 312 -5.5 100 -5.5 127 0 978.7 NA 0.0000 9999 0 0 0 4460
2019/10/10 20:13:00 BASE 7.21 316 7.82 316 -5.4 100 -5.4 124 0 978.6 NA 0.0000 9000 0 0 0 3540
2019/10/10 20:14:00 BASE 7.03 316 7.82 316 -5.4 100 -5.4 122 0 978.7 NA 0.0000 BR 9000 0 0 0 1540
2019/10/10 20:15:00 BASE 6.56 316 7.82 316 -5.4 100 -5.4 120 0 978.7 NA 0.0000 BR 9000 0 0 0 1280
2019/10/10 20:16:00 BASE 5.91 310 7.82 316 -5.5 100 -5.5 119 0 978.7 NA 0.0000 -SN BR 8000 0 0 0 1180
2019/10/10 20:17:00 BASE 5.98 305 7.82 316 -5.5 100 -5.5 118 0 978.7 NA 0.0000 -SN BR 7000 0 0 0 1120
2019/10/10 20:18:00 BASE 5.75 304 7.82 316 -5.4 100 -5.4 118 0 978.7 NA 0.0000 -SN BR 5000 0 0 0 1180
2019/10/10 20:19:00 BASE 4.82 302 7.82 316 -5.4 100 -5.4 118 0 978.7 NA 0.0000 -SN BR 4000 0 0 0 1180
2019/10/10 20:20:00 BASE 4.24 289 7.82 316 -5.4 100 -5.4 118 0 978.7 NA 0.0000 -SN BR 4000 0 0 0 1350
2019/10/10 20:21:00 BASE 3.53 277 7.82 316 -5.3 100 -5.3 117 0 978.8 NA 0.0000 -SN BR 4200 0 0 0 1350
2019/10/10 20:22:00 BASE 3.58 272 7.82 316 -5.3 100 -5.3 117 0 978.8 NA 0.0000 -SN BR 3100 0 0 0 1480
2019/10/10 20:23:00 BASE 3.72 262 7.61 315 -5.3 100 -5.3 117 0 978.9 NA 0.0000 -SN BR 3900 0 0 0 1280
2019/10/10 20:24:00 BASE 3.51 245 6.89 306 -5.3 100 -5.3 117 0 978.9 NA 0.0000 -SN BR 3800 0 0 0 1670
2019/10/10 20:25:00 BASE 3.48 231 6.89 306 -5.3 100 -5.3 116 0 978.9 NA 0.0000 -SN BR 2800 0 0 0 4040
2019/10/10 20:26:00 BASE 3.42 228 6.89 306 -5.3 100 -5.3 116 0 978.9 NA 0.0000 -SN BR 2300 0 0 0 1770
2019/10/10 20:27:00 BASE 3.46 226 6.12 306 -5.3 100 -5.3 115 0 978.9 NA 0.0000 -SN BR 2400 0 0 0 1380
2019/10/10 20:28:00 BASE 3.64 224 5.09 280 -5.4 100 -5.4 114 0 978.9 NA 0.0000 -SN BR 2600 0 0 0 1570
2019/10/10 20:29:00 BASE 3.91 224 4.68 226 -5.4 100 -5.4 112 0 978.3 NA 0.0000 -SN BR 2600 0 0 0 2950
2019/10/10 20:30:00 BASE 4.28 224 4.68 220 -5.4 100 -5.4 108 0 978.9 NA 0.0000 -SN BR 3300 0 0 0 1770
2019/10/10 20:31:00 BASE 4.35 223 4.68 220 -5.4 100 -5.4 105 0 978.9 NA 0.0000 -SN BR 4300 0 0 0 1020
2019/10/10 20:32:00 BASE 4.23 223 4.68 220 -5.5 100 -5.5 103 0 978.9 NA 0.0000 -SN BR 3500 0 0 0 1020
2019/10/10 20:33:00 BASE 4.07 220 4.68 220 -5.5 100 -5.5 102 0 978.9 NA 0.0000 -SN BR 3700 0 0 0 1080
2019/10/10 20:34:00 BASE 3.86 217 4.68 220 -5.5 100 -5.5 102 0 978.9 NA 0.0000 -SN BR 3400 230 0 0 0
2019/10/10 20:35:00 BASE 3.67 218 4.68 220 -5.5 100 -5.5 102 0 978.9 NA 0.0000 -SN BR 3100 230 0 0 0
2019/10/10 20:36:00 BASE 3.47 218 4.68 220 -5.5 100 -5.5 103 0 978.9 NA 0.0000 -SN BR 3000 260 1310 0 0
2019/10/10 20:37:00 BASE 3.29 218 4.68 220 -5.5 100 -5.5 103 0 978.9 NA 0.0000 -SN BR 3400 260 1900 0 0
2019/10/10 20:38:00 BASE 3.19 220 4.68 220 -5.5 100 -5.5 103 0 978.9 NA 0.0000 -SN BR 3600 260 1940 0 0
2019/10/10 20:39:00 BASE 3.10 222 4.68 220 -5.5 100 -5.5 104 0 978.9 NA 0.0000 -SN BR 4000 200 1840 0 0
2019/10/10 20:40:00 BASE 2.98 219 4.68 220 -5.5 100 -5.6 105 0 978.9 NA 0.0000 -SN BR 4000 0 0 0 2300
2019/10/10 20:41:00 BASE 2.97 216 4.48 229 -5.6 100 -5.6 105 0 979.0 NA 0.0000 -SN BR 3500 200 1180 0 0
2019/10/10 20:42:00 BASE 2.77 215 4.37 220 -5.6 100 -5.6 105 0 979.0 NA 0.0000 -SN BR 3900 230 0 0 0
2019/10/10 20:43:00 BASE 2.38 214 4.01 223 -5.6 100 -5.6 105 0 979.0 NA 0.0000 -SN BR 4300 0 0 0 4560
2019/10/10 20:44:00 BASE 2.15 217 3.91 219 -5.6 100 -5.6 105 0 979.0 NA 0.0000 -SN BR 4600 0 0 0 3480
2019/10/10 20:45:00 BASE 2.21 220 3.65 221 -5.6 100 -5.6 104 0 979.0 NA 0.0000 -SN BR 5000 0 0 0 2590
2019/10/10 20:46:00 BASE 2.31 220 3.45 214 -5.6 100 -5.6 104 0 979.0 NA 0.0000 -SN BR 6000 0 0 0 3670
2019/10/10 20:47:00 BASE 2.17 220 3.34 218 -5.6 100 -5.6 104 0 979.0 NA 0.0000 -SN BR 7000 0 0 0 3740
2019/10/10 20:48:00 BASE 2.00 219 3.29 215 -5.6 100 -5.6 104 0 979.1 NA 0.0000 -SN BR 6000 0 0 0 4100
2019/10/10 20:49:00 BASE 1.90 221 3.24 216 -5.6 100 -5.6 103 0 979.1 NA 0.0000 -SN BR 5000 0 0 0 2360
2019/10/10 20:50:00 BASE 1.80 231 3.24 216 -5.6 100 -5.6 102 0 979.1 NA 0.0000 -SN BR 5000 0 0 0 1940
2019/10/10 20:51:00 BASE 1.67 244 2.88 217 -5.6 100 -5.6 102 0 979.1 NA 0.0000 -SN BR 5000 0 0 0 2330
2019/10/10 20:52:00 BASE 1.64 250 2.62 213 -5.6 100 -5.6 101 0 979.1 NA 0.0000 -SN BR 8000 0 0 0 2850
2019/10/10 20:53:00 BASE 1.75 245 2.62 213 -5.6 100 -5.6 101 0 979.1 NA 0.0000 -SN BR 7000 0 0 0 1610
2019/10/10 20:54:00 BASE 2.19 247 3.14 255 -5.6 100 -5.6 101 0 979.1 NA 0.0000 -SN BR 7000 0 0 0 2070
2019/10/10 20:55:00 BASE 2.78 258 3.24 264 -5.6 100 -5.6 101 0 979.1 NA 0.0000 -SN BR 8000 0 0 0 1510
2019/10/10 20:56:00 BASE 2.92 262 3.24 264 -5.6 100 -5.6 101 0 979.1 NA 0.0000 -SN BR 9000 0 0 0 2330
2019/10/10 20:57:00 BASE 3.00 263 3.65 261 -5.5 100 -5.5 101 0 979.1 NA 0.0000 -SN BR 9000 0 0 0 4860
2019/10/10 20:58:00 BASE 3.14 259 3.65 261 -5.5 100 -5.5 102 0 979.1 NA 0.0000 -SN BR 9999 230 1670 0 0
2019/10/10 20:59:00 BASE 2.77 257 3.65 261 -5.5 100 -5.5 100 0 979.1 NA 0.0000 -SN BR 9999 230 1310 0 0
2019/10/10 21:00:00 BASE 2.57 259 3.65 261 -5.5 100 -5.5 99 0 979.1 NA 0.0000 -SN BR 9999 260 1480 0 0
2019/10/10 21:01:00 BASE 2.55 255 3.65 261 -5.5 100 -5.5 97 0 979.1 NA 0.0000 -SN BR 9000 260 0 0 0
2019/10/10 21:02:00 BASE 2.36 255 3.65 261 -5.5 100 -5.5 95 0 979.2 NA 0.0000 -SN BR 8000 0 0 0 1250
2019/10/10 21:03:00 BASE 2.26 258 3.65 261 -5.5 100 -5.5 94 0 979.2 NA 0.0000 -SN BR 8000 230 0 0 0
2019/10/10 21:04:00 BASE 2.38 259 3.65 261 -5.5 100 -5.5 93 0 979.2 NA 0.0000 -SN BR 7000 0 0 0 3940
2019/10/10 21:05:00 BASE 2.87 262 3.65 261 -5.5 100 -5.5 91 0 979.2 NA 0.0000 -SN BR 7000 200 0 0 0
2019/10/10 21:06:00 BASE 3.06 262 3.65 261 -5.5 100 -5.5 90 0 979.2 NA 0.0000 -SN BR 8000 0 0 0 2360
2019/10/10 21:07:00 BASE 2.94 263 3.65 261 -5.5 100 -5.5 88 0 979.2 NA 0.0000 -SN BR 7000 200 0 0 0
2019/10/10 21:08:00 BASE 2.64 268 3.45 265 -5.5 100 -5.5 88 0 979.2 NA 0.0000 -SN BR 7000 0 0 0 1250
2019/10/10 21:09:00 BASE 2.56 267 3.45 265 -5.5 100 -5.5 87 0 979.2 NA 0.0000 -SN BR 7000 260 1310 0 0
2019/10/10 21:10:00 BASE 2.48 264 3.45 265 -5.5 100 -5.5 87 0 979.2 NA 0.0000 -SN BR 8000 260 0 0 0
2019/10/10 21:11:00 BASE 2.16 268 3.45 265 -5.5 100 -5.5 86 0 979.2 NA 0.0000 -SN BR 8000 0 0 0 5840
2019/10/10 21:12:00 BASE 1.99 272 3.45 265 -5.5 100 -5.5 84 0 979.2 NA 0.0000 -SN BR 9000 230 1670 0 0
2019/10/10 21:13:00 BASE 2.08 270 3.45 265 -5.5 100 -5.5 83 0 979.2 NA 0.0000 -SN BR 9999 0 0 0 6690
2019/10/10 21:14:00 BASE 2.58 264 3.45 265 -5.5 100 -5.5 82 0 979.2 NA 0.0000 -SN BR 9999 0 0 0 5320
2019/10/10 21:15:00 BASE 2.34 267 3.45 265 -5.5 100 -5.5 80 0 979.2 NA 0.0000 -SN BR 9999 0 0 0 4590
2019/10/10 21:16:00 BASE 1.81 274 3.45 265 -5.5 100 -5.5 79 0 979.2 NA 0.0000 -SN BR 9999 0 0 0 5870
2019/10/10 21:17:00 BASE 1.83 272 3.14 258 -5.5 100 -5.5 78 0 979.2 NA 0.0000 -SN BR 9000 200 1770 0 0
2019/10/10 21:18:00 BASE 1.90 275 3.14 258 -5.5 100 -5.5 76 0 979.2 NA 0.0000 -SN BR 8000 230 1510 0 0
2019/10/10 21:19:00 BASE 1.85 279 3.14 258 -5.5 100 -5.5 75 0 979.2 NA 0.0000 -SN BR 9999 0 0 0 6760
2019/10/10 21:20:00 BASE 1.89 279 3.14 258 -5.5 100 -5.5 73 0 979.2 NA 0.0000 -SN BR 9999 0 0 0 6690
2019/10/10 21:21:00 BASE 2.07 275 3.14 258 -5.5 100 -5.5 71 0 979.2 NA 0.0000 -SN BR 9999 0 0 0 6760
2019/10/10 21:22:00 BASE 1.89 270 3.14 258 -5.5 100 -5.5 68 0 979.3 NA 0.0000 -SN BR 9999 0 0 0 5090
2019/10/10 21:23:00 BASE 2.12 269 3.24 271 -5.5 100 -5.5 65 0 979.3 NA 0.0000 -SN BR 9000 0 0 0 1640
2019/10/10 21:24:00 BASE 2.80 269 3.65 260 -5.5 100 -5.6 63 0 979.3 NA 0.0000 -SN BR 7000 0 0 0 1310
2019/10/10 21:25:00 BASE 2.97 272 3.65 260 -5.5 100 -5.6 61 0 979.3 NA 0.0000 -SN BR 4900 0 0 0 1080
2019/10/10 21:26:00 BASE 2.83 277 3.65 260 -5.5 100 -5.5 60 0 979.3 NA 0.0000 -SN BR 3800 0 0 0 1180
2019/10/10 21:27:00 BASE 2.71 276 3.65 260 -5.5 100 -5.5 60 0 979.3 NA 0.0000 -SN BR 2600 0 0 0 1280
2019/10/10 21:28:01 BASE 2.97 279 3.65 260 -5.5 100 -5.5 60 0 979.3 NA 0.0000 -SN BR 3800 0 0 0 2560
2019/10/10 21:29:00 BASE 3.11 281 3.65 260 -5.5 100 -5.5 60 0 979.3 NA 0.0000 -SN BR 4900 230 0 0 0
2019/10/10 21:30:00 BASE 2.79 277 3.65 260 -5.5 100 -5.5 59 0 979.3 NA 0.0000 -SN BR 5000 200 1410 0 0
2019/10/10 21:31:00 BASE 2.47 272 3.65 260 -5.5 100 -5.5 58 0 979.3 NA 0.0000 -SN BR 5000 0 0 0 4560
2019/10/10 21:32:00 BASE 2.35 268 3.65 260 -5.5 100 -5.5 57 0 979.4 NA 0.0000 -SN BR 3800 0 0 0 4790
2019/10/10 21:33:00 BASE 2.46 265 3.65 260 -5.5 100 -5.5 56 0 979.5 NA 0.0000 -SN BR 3200 0 0 0 5020
2019/10/10 21:34:00 BASE 2.58 264 3.45 276 -5.5 100 -5.5 54 0 979.5 NA 0.0000 -SN BR 4300 0 0 0 4040
2019/10/10 21:35:00 BASE 2.78 266 3.65 261 -5.5 100 -5.5 53 0 979.5 NA 0.0000 -SN BR 3600 0 0 0 4170
2019/10/10 21:36:00 BASE 2.91 269 3.65 261 -5.5 100 -5.5 52 0 979.5 NA 0.0000 -SN BR 2700 0 0 0 4130
2019/10/10 21:37:00 BASE 2.71 271 3.65 261 -5.6 100 -5.6 51 0 979.5 NA 0.0000 -SN BR 2600 0 0 0 4200
2019/10/10 21:38:00 BASE 2.55 269 3.65 261 -5.6 100 -5.6 50 0 979.5 NA 0.0000 -SN BR 2400 0 0 0 3970
2019/10/10 21:39:00 BASE 2.38 267 3.65 261 -5.6 100 -5.6 50 0 979.5 NA 0.0000 -SN BR 2800 0 0 0 4630
2019/10/10 21:40:00 BASE 1.98 271 3.65 261 -5.6 100 -5.6 49 0 979.5 NA 0.0000 -SN BR 3600 0 0 0 5250
2019/10/10 21:41:00 BASE 1.60 274 3.65 261 -5.6 100 -5.6 48 0 979.5 NA 0.0000 -SN BR 5000 0 0 0 4890
2019/10/10 21:42:00 BASE 1.69 271 3.65 261 -5.6 100 -5.6 47 0 979.5 NA 0.0000 -SN BR 5000 200 0 0 0
2019/10/10 21:43:00 BASE 2.20 268 3.65 261 -5.6 100 -5.6 47 0 979.5 NA 0.0000 -SN BR 5000 230 2070 0 0
2019/10/10 21:44:00 BASE 2.24 274 3.65 261 -5.6 100 -5.6 46 0 979.5 NA 0.0000 -SN BR 5000 260 0 0 0
2019/10/10 21:45:00 BASE 1.99 280 3.55 260 -5.6 100 -5.6 45 0 979.5 NA 0.0000 -SN BR 5000 230 0 0 0
2019/10/10 21:46:00 BASE 2.36 282 3.34 285 -5.6 100 -5.6 45 0 979.5 NA 0.0000 -SN BR 6000 230 0 0 0
2019/10/10 21:47:00 BASE 2.70 286 3.34 285 -5.6 100 -5.6 44 0 979.5 NA 0.0000 -SN BR 5000 200 0 0 0
2019/10/10 21:48:00 BASE 3.00 287 3.81 287 -5.6 100 -5.6 43 0 979.3 NA 0.0000 -SN BR 4300 0 0 0 4000
2019/10/10 21:49:00 BASE 3.03 280 3.81 287 -5.6 100 -5.6 42 0 979.4 NA 0.0000 -SN BR 5000 0 0 0 3580
2019/10/10 21:50:00 BASE 2.68 273 3.81 287 -5.6 100 -5.6 42 0 979.5 NA 0.0000 -SN BR 5000 0 0 0 4040
2019/10/10 21:51:00 BASE 2.81 282 3.81 287 -5.6 100 -5.6 41 0 979.5 NA 0.0000 -SN BR 4500 0 0 0 1800
2019/10/10 21:52:00 BASE 2.98 288 3.81 287 -5.6 100 -5.6 40 0 979.5 NA 0.0000 -SN BR 4400 230 1210 0 0
2019/10/10 21:53:00 BASE 2.90 289 3.81 287 -5.6 100 -5.6 39 0 979.5 NA 0.0000 -SN BR 5000 230 0 0 0
2019/10/10 21:54:00 BASE 2.91 289 3.81 287 -5.6 100 -5.6 39 0 979.5 NA 0.0000 -SN BR 6000 230 1250 0 0
2019/10/10 21:55:00 BASE 2.96 290 3.81 287 -5.6 100 -5.6 38 0 979.5 NA 0.0000 -SN BR 7000 200 0 0 0
2019/10/10 21:56:00 BASE 3.00 292 3.81 287 -5.6 100 -5.6 36 0 979.5 NA 0.0000 -SN BR 7000 200 1050 0 0
2019/10/10 21:57:00 BASE 2.98 289 3.81 287 -5.6 100 -5.6 35 0 979.5 NA 0.0000 -SN BR 5000 200 1510 0 0
2019/10/10 21:58:00 BASE 2.61 281 3.55 274 -5.7 100 -5.7 34 0 979.5 NA 0.0000 -SN BR 5000 0 0 0 4360
2019/10/10 21:59:00 BASE 2.28 274 3.45 283 -5.7 100 -5.7 33 0 979.5 NA 0.0000 -SN BR 5000 0 0 0 4270
2019/10/10 22:00:00 BASE 2.08 274 3.45 283 -5.7 100 -5.7 32 0 979.5 NA 0.0000 -SN BR 5000 0 0 0 4130
2019/10/10 22:01:00 BASE 2.20 281 3.45 283 -5.7 100 -5.7 32 0 979.5 NA 0.0000 -SN BR 5000 0 0 0 4100
2019/10/10 22:02:00 BASE 2.58 285 3.24 290 -5.7 100 -5.7 31 0 979.5 NA 0.0000 -SN BR 4700 0 0 0 4040
2019/10/10 22:03:00 BASE 2.54 283 3.24 290 -5.7 100 -5.7 30 0 979.3 NA 0.0000 -SN BR 3500 0 0 0 3840
2019/10/10 22:04:00 BASE 2.50 285 3.24 290 -5.7 100 -5.7 29 0 979.2 NA 0.0000 -SN BR 3300 0 0 0 3970
2019/10/10 22:05:00 BASE 2.69 286 3.19 296 -5.7 100 -5.7 29 0 979.5 NA 0.0000 -SN BR 3500 0 0 0 3940
2019/10/10 22:06:00 BASE 2.57 286 3.19 296 -5.7 100 -5.7 28 0 979.5 NA 0.0000 -SN BR 3300 0 0 0 3870
2019/10/10 22:07:00 BASE 2.22 282 3.19 296 -5.7 100 -5.7 28 0 979.6 NA 0.0000 -SN BR 4000 0 0 0 3810
2019/10/10 22:08:00 BASE 2.17 272 3.19 296 -5.7 100 -5.7 27 0 979.6 NA 0.0000 -SN BR 3900 0 0 0 3770
2019/10/10 22:09:00 BASE 2.10 267 3.19 296 -5.7 100 -5.7 27 0 979.6 NA 0.0000 -SN BR 3700 0 0 0 3710
2019/10/10 22:10:00 BASE 2.03 269 3.19 296 -5.7 100 -5.7 26 0 979.6 NA 0.0000 -SN BR 3600 0 0 0 3870
2019/10/10 22:11:00 BASE 2.15 272 3.19 296 -5.7 100 -5.7 25 0 979.6 NA 0.0000 -SN BR 4000 0 0 0 3740
2019/10/10 22:12:00 BASE 2.05 274 3.19 296 -5.7 100 -5.7 25 0 979.6 NA 0.0000 -SN BR 3900 0 0 0 2950
2019/10/10 22:13:00 BASE 1.97 276 3.19 296 -5.7 100 -5.7 24 0 979.6 NA 0.0000 -SN BR 3300 0 0 0 3410
2019/10/10 22:14:00 BASE 1.90 276 3.19 296 -5.7 100 -5.7 23 0 979.6 NA 0.0000 -SN BR 2900 0 0 0 3740
2019/10/10 22:15:00 BASE 1.85 278 2.88 263 -5.7 100 -5.7 23 0 979.6 NA 0.0000 -SN BR 2900 0 0 0 3840
2019/10/10 22:16:00 BASE 1.94 278 2.88 263 -5.7 100 -5.7 22 0 979.6 NA 0.0000 -SN BR 3200 0 0 0 3870
2019/10/10 22:17:00 BASE 1.97 274 2.88 263 -5.7 100 -5.7 22 0 979.6 NA 0.0000 -SN BR 3600 0 0 0 3770
2019/10/10 22:18:00 BASE 1.97 274 2.88 263 -5.7 100 -5.7 21 0 979.6 NA 0.0000 -SN BR 4200 0 0 0 3810
2019/10/10 22:19:00 BASE 2.02 271 2.88 263 -5.7 100 -5.7 20 0 979.6 NA 0.0000 -SN BR 4600 0 0 0 3940
2019/10/10 22:20:00 BASE 2.06 270 2.88 263 -5.7 100 -5.7 20 0 979.7 NA 0.0000 -SN BR 4100 0 0 0 4130
2019/10/10 22:21:00 BASE 2.12 272 2.52 265 -5.7 100 -5.7 19 0 979.7 NA 0.0000 -SN BR 4100 0 0 0 3810
2019/10/10 22:22:00 BASE 2.49 270 3.24 272 -5.7 100 -5.7 19 0 979.7 NA 0.0000 -SN BR 4500 0 0 0 3870
2019/10/10 22:23:00 BASE 2.73 270 3.24 269 -5.7 100 -5.7 18 0 979.7 NA 0.0000 -SN BR 3700 0 0 0 3940
2019/10/10 22:24:00 BASE 2.35 278 3.24 269 -5.7 100 -5.7 17 0 979.7 NA 0.0000 -SN BR 3600 0 0 0 4100
2019/10/10 22:25:00 BASE 2.20 283 3.29 274 -5.7 100 -5.7 17 0 979.7 NA 0.0000 -SN BR 4000 0 0 0 4360
2019/10/10 22:26:00 BASE 2.58 272 3.29 274 -5.7 100 -5.7 16 0 979.8 NA 0.0000 -SN BR 4800 0 0 0 4230
2019/10/10 22:27:00 BASE 2.86 264 3.34 270 -5.8 100 -5.8 16 0 979.8 NA 0.0000 -SN BR 6000 0 0 0 4400
2019/10/10 22:28:00 BASE 2.90 269 3.40 265 -5.8 100 -5.8 15 0 979.8 NA 0.0000 -SN BR 5000 0 0 0 4360
2019/10/10 22:29:00 BASE 2.83 272 3.40 265 -5.8 100 -5.8 15 0 979.8 NA 0.0000 -SN BR 6000 0 0 0 4560
2019/10/10 22:30:00 BASE 2.53 276 3.40 265 -5.8 100 -5.8 14 0 979.8 NA 0.0000 -SN BR 6000 0 0 0 4430
2019/10/10 22:31:00 BASE 2.44 278 3.40 265 -5.8 100 -5.8 14 0 979.8 NA 0.0000 -SN BR 6000 0 0 0 4490
2019/10/10 22:32:00 BASE 2.64 276 3.40 278 -5.8 100 -5.8 13 0 979.8 NA 0.0000 -SN BR 7000 0 0 0 4560
2019/10/10 22:33:00 BASE 2.98 279 3.76 276 -5.8 100 -5.8 13 0 979.8 NA 0.0000 -SN BR 8000 0 0 0 4430
2019/10/10 22:34:00 BASE 3.30 282 3.76 276 -5.8 100 -5.8 12 0 979.8 NA 0.0000 -SN BR 8000 0 0 0 4270
2019/10/10 22:35:00 BASE 3.33 285 3.76 276 -5.8 100 -5.8 12 0 979.8 NA 0.0000 -SN BR 9000 0 0 0 4400
2019/10/10 22:36:00 BASE 3.15 287 3.76 276 -5.8 100 -5.8 12 0 979.8 NA 0.0000 -SN BR 8000 0 0 0 4400
2019/10/10 22:37:00 BASE 2.93 285 3.76 276 -5.8 100 -5.8 11 0 979.8 NA 0.0000 -SN BR 7000 0 0 0 4490
2019/10/10 22:38:00 BASE 2.76 280 3.76 276 -5.8 100 -5.8 11 0 979.8 NA 0.0000 -SN BR 8000 0 0 0 4690
2019/10/10 22:39:00 BASE 2.52 274 3.76 276 -5.8 100 -5.8 10 0 979.8 NA 0.0000 -SN BR 8000 0 0 0 4360
2019/10/10 22:40:00 BASE 2.39 270 3.76 276 -5.8 100 -5.8 10 0 979.6 NA 0.0000 -SN BR 6000 0 0 0 4400
2019/10/10 22:41:00 BASE 2.32 265 3.76 276 -5.8 100 -5.8 10 0 979.3 NA 0.0000 -SN BR 6000 0 0 0 4860
2019/10/10 22:42:00 BASE 2.59 262 3.76 276 -5.8 100 -5.8 9 0 979.7 NA 0.0000 -SN BR 6000 0 0 0 4230
2019/10/10 22:43:00 BASE 2.87 262 3.76 276 -5.8 100 -5.8 9 0 979.8 NA 0.0000 -SN BR 8000 0 0 0 4070
2019/10/10 22:44:00 BASE 2.88 264 3.50 288 -5.8 100 -5.8 9 0 979.8 NA 0.0000 -SN BR 6000 0 0 0 4200
2019/10/10 22:45:00 BASE 2.74 270 3.34 262 -5.8 100 -5.8 8 0 979.9 NA 0.0000 -SN BR 6000 0 0 0 4040
2019/10/10 22:46:00 BASE 2.47 276 3.34 262 -5.9 100 -5.9 8 0 979.9 NA 0.0000 -SN BR 6000 0 0 0 4100
2019/10/10 22:47:00 BASE 2.69 272 3.40 270 -5.9 100 -5.9 8 0 979.9 NA 0.0000 -SN BR 6000 0 0 0 4000
2019/10/10 22:48:00 BASE 2.54 270 3.40 270 -5.9 100 -5.9 8 0 979.9 NA 0.0000 -SN BR 5000 0 0 0 3940
2019/10/10 22:49:00 BASE 2.31 273 3.40 270 -5.9 100 -5.9 7 0 979.9 NA 0.0000 -SN BR 4900 0 0 0 3940
2019/10/10 22:50:00 BASE 2.74 271 3.45 262 -5.9 100 -5.9 7 0 979.9 NA 0.0000 -SN BR 4200 0 0 0 3840
2019/10/10 22:51:00 BASE 2.97 264 3.45 262 -5.9 100 -5.9 7 0 979.9 NA 0.0000 -SN BR 4300 0 0 0 3970
2019/10/10 22:52:00 BASE 3.10 263 3.65 261 -5.9 100 -5.9 6 0 979.9 NA 0.0000 -SN BR 4100 0 0 0 4070
2019/10/10 22:53:00 BASE 3.10 265 3.70 266 -5.9 100 -5.9 6 0 979.9 NA 0.0000 -SN BR 4800 0 0 0 4100
2019/10/10 22:54:00 BASE 2.98 263 3.70 266 -5.9 100 -5.9 6 0 979.9 NA 0.0000 -SN BR 5000 0 0 0 4130
2019/10/10 22:55:00 BASE 2.98 261 3.70 266 -5.9 100 -5.9 5 0 979.9 NA 0.0000 -SN BR 5000 0 0 0 4230
2019/10/10 22:56:00 BASE 3.01 261 3.70 266 -5.9 100 -5.9 5 0 980.0 NA 0.0000 -SN BR 6000 0 0 0 4430
2019/10/10 22:57:00 BASE 3.11 261 3.81 261 -5.9 100 -5.9 5 0 980.0 NA 0.0000 -SN BR 6000 0 0 0 4330
2019/10/10 22:58:00 BASE 3.28 261 3.81 261 -6.0 100 -6.0 5 0 980.1 NA 0.0000 -SN BR 7000 0 0 0 4300
2019/10/10 22:59:00 BASE 3.33 261 3.81 261 -6.0 100 -6.0 4 0 980.1 NA 0.0000 -SN BR 6000 0 0 0 4130
2019/10/10 23:00:00 BASE 3.38 263 3.86 263 -6.0 100 -6.0 4 0 980.1 NA 0.0000 -SN BR 5000 0 0 0 4000
2019/10/10 23:01:00 BASE 3.56 265 3.86 263 -6.0 100 -6.0 4 0 980.1 NA 0.0000 -SN BR 5000 0 0 0 4130
2019/10/10 23:02:00 BASE 3.33 266 3.86 263 -6.0 100 -6.0 3 0 980.1 NA 0.0000 -SN BR 6000 0 0 0 4100
2019/10/10 23:03:00 BASE 3.23 263 3.86 263 -6.0 100 -6.0 3 0 980.1 NA 0.0000 -SN BR 7000 0 0 0 3970
2019/10/10 23:04:00 BASE 3.48 260 3.96 257 -6.0 100 -6.0 3 0 980.1 NA 0.0000 -SN BR 5000 0 0 0 4000
2019/10/10 23:05:00 BASE 3.68 257 3.96 252 -6.1 100 -6.1 3 0 980.1 NA 0.0000 -SN BR 5000 0 0 0 4400
2019/10/10 23:06:00 BASE 3.50 259 3.96 252 -6.1 100 -6.1 2 0 980.1 NA 0.0000 -SN BR 6000 0 0 0 4270
2019/10/10 23:07:00 BASE 2.98 265 3.96 252 -6.1 100 -6.1 2 0 980.1 NA 0.0000 -SN BR 8000 0 0 0 4170
2019/10/10 23:08:00 BASE 2.55 266 3.96 252 -6.1 100 -6.1 2 0 980.1 NA 0.0000 -SN BR 6000 0 0 0 4300
2019/10/10 23:09:00 BASE 2.44 266 3.96 252 -6.1 100 -6.1 2 0 980.1 NA 0.0000 -SN BR 6000 0 0 0 4460
2019/10/10 23:10:00 BASE 2.92 265 3.96 252 -6.1 100 -6.1 1 0 980.2 NA 0.0000 -SN BR 7000 0 0 0 4920
2019/10/10 23:11:00 BASE 3.25 263 3.96 252 -6.1 100 -6.1 1 0 980.2 NA 0.0000 -SN BR 8000 0 0 0 5220
2019/10/10 23:12:00 BASE 3.51 258 4.17 254 -6.1 100 -6.1 1 0 980.2 NA 0.0000 -SN BR 7000 0 0 0 5380
2019/10/10 23:13:00 BASE 3.85 255 4.22 254 -6.1 100 -6.1 1 0 980.2 NA 0.0000 -SN BR 8000 0 0 0 5380
2019/10/10 23:14:00 BASE 3.93 257 4.22 254 -6.1 100 -6.1 1 0 980.2 NA 0.0000 -SN BR 9999 0 0 0 5410
2019/10/10 23:15:00 BASE 3.65 260 4.22 254 -6.2 100 -6.2 1 0 980.2 NA 0.0000 -SN BR 9999 0 0 0 5480
2019/10/10 23:16:00 BASE 3.81 261 4.37 261 -6.2 100 -6.2 1 0 980.2 NA 0.0000 -SN BR 9999 0 0 0 5480
2019/10/10 23:17:00 BASE 4.21 262 4.37 265 -6.2 100 -6.2 1 0 980.2 NA 0.0000 -SN BR 9999 0 0 0 5450
2019/10/10 23:18:00 BASE 3.99 264 4.37 265 -6.2 100 -6.2 0 0 980.2 NA 0.0000 -SN BR 9999 0 0 0 5450
2019/10/10 23:19:00 BASE 3.81 266 4.37 265 -6.2 100 -6.2 0 0 980.2 NA 0.0000 -SN BR 9000 0 0 0 5450
2019/10/10 23:20:00 BASE 3.88 268 4.37 265 -6.2 100 -6.2 0 0 980.2 NA 0.0000 -SN BR 9000 0 0 0 5450
2019/10/10 23:21:00 BASE 3.82 268 4.37 265 -6.2 100 -6.2 0 0 980.3 NA 0.0000 -SN BR 9000 0 0 0 5450
2019/10/10 23:22:00 BASE 3.22 274 4.37 265 -6.2 100 -6.2 0 0 980.3 NA 0.0000 BR 9000 0 0 0 5410
2019/10/10 23:23:00 BASE 2.77 280 4.37 265 -6.2 100 -6.2 0 0 980.3 NA 0.0000 BR 8000 0 0 0 5480
2019/10/10 23:24:00 BASE 3.19 284 4.37 265 -6.2 100 -6.2 0 0 980.3 NA 0.0000 BR 8000 0 0 0 5450
2019/10/10 23:25:00 BASE 3.48 287 4.37 265 -6.2 100 -6.2 0 0 980.3 NA 0.0000 BR 8000 0 0 0 5380
2019/10/10 23:26:00 BASE 3.33 284 4.37 265 -6.2 100 -6.2 0 0 980.3 NA 0.0000 BR 8000 0 0 0 5450
2019/10/10 23:27:00 BASE 3.51 283 4.58 281 -6.2 100 -6.2 0 0 980.3 NA 0.0000 BR 7000 0 0 0 5410
2019/10/10 23:28:00 BASE 3.79 285 4.58 281 -6.2 100 -6.2 0 0 980.3 NA 0.0000 BR 7000 0 0 0 5450
2019/10/10 23:29:00 BASE 3.72 287 4.58 281 -6.2 100 -6.2 0 0 980.3 NA 0.0000 BR 7000 0 0 0 5480
2019/10/10 23:30:00 BASE 3.54 289 4.58 281 -6.2 100 -6.2 0 0 980.3 NA 0.0000 BR 7000 0 0 0 5540
2019/10/10 23:31:00 BASE 3.26 286 4.58 281 -6.2 100 -6.2 0 0 980.3 NA 0.0000 BR 6000 0 0 0 5940
2019/10/10 23:32:00 BASE 2.99 284 4.58 281 -6.2 100 -6.2 0 0 980.3 NA 0.0000 BR 6000 0 0 0 6230
2019/10/10 23:33:00 BASE 2.96 280 4.58 281 -6.2 100 -6.2 0 0 980.3 NA 0.0000 BR 6000 0 0 0 6230
2019/10/10 23:34:00 BASE 2.81 275 4.58 281 -6.2 100 -6.2 0 0 980.3 NA 0.0000 BR 6000 0 0 0 6230
2019/10/10 23:35:00 BASE 2.44 278 4.58 281 -6.2 100 -6.2 0 0 980.3 NA 0.0000 BR 6000 0 0 0 6430
2019/10/10 23:36:00 BASE 2.47 282 4.58 281 -6.2 100 -6.2 0 0 980.3 NA 0.0000 BR 5000 0 0 0 6500
2019/10/10 23:37:00 BASE 2.81 283 4.37 285 -6.2 100 -6.2 0 0 980.3 NA 0.0000 BR 5000 0 0 0 6200
2019/10/10 23:38:00 BASE 3.12 286 4.32 282 -6.2 100 -6.2 0 0 980.3 NA 0.0000 BR 7000 0 0 0 5540
2019/10/10 23:39:00 BASE 3.41 288 4.12 279 -6.2 100 -6.2 0 0 980.4 NA 0.0000 BR 7000 0 0 0 5510
2019/10/10 23:40:00 BASE 3.44 291 3.81 293 -6.2 100 -6.2 0 0 980.4 NA 0.0000 BR 7000 0 0 0 5480
2019/10/10 23:41:00 BASE 3.50 293 3.81 294 -6.2 100 -6.2 0 0 980.4 NA 0.0000 BR 7000 0 0 0 6370
2019/10/10 23:42:00 BASE 3.81 292 4.58 289 -6.2 100 -6.2 0 0 980.4 NA 0.0000 BR 7000 0 0 0 6200
2019/10/10 23:43:00 BASE 3.76 291 4.58 289 -6.2 100 -6.2 0 0 980.4 NA 0.0000 BR 7000 0 0 0 6170
2019/10/10 23:44:00 BASE 3.52 290 4.58 289 -6.2 100 -6.2 0 0 980.4 NA 0.0000 BR 7000 0 0 0 6040
2019/10/10 23:45:00 BASE 3.54 289 4.58 289 -6.2 100 -6.2 0 0 980.4 NA 0.0000 BR 6000 0 0 0 6040
2019/10/10 23:46:00 BASE 3.14 282 4.58 289 -6.2 100 -6.2 0 0 980.4 NA 0.0000 BR 6000 0 0 0 6000
2019/10/10 23:47:00 BASE 2.80 281 4.58 289 -6.2 100 -6.2 0 0 980.4 NA 0.0000 BR 6000 0 0 0 6270
2019/10/10 23:48:00 BASE 3.22 285 4.58 289 -6.3 100 -6.3 0 0 980.4 NA 0.0000 BR 6000 0 0 0 6300
2019/10/10 23:49:00 BASE 3.45 286 4.58 289 -6.3 100 -6.3 0 0 980.4 NA 0.0000 BR 6000 0 0 0 6270
2019/10/10 23:50:00 BASE 3.52 286 4.58 289 -6.3 100 -6.3 0 0 980.4 NA 0.0000 BR 6000 0 0 0 6230
2019/10/10 23:51:00 BASE 3.94 288 4.68 282 -6.3 100 -6.3 0 0 980.4 NA 0.0000 BR 6000 0 0 0 6170
2019/10/10 23:52:00 BASE 4.10 287 4.68 282 -6.3 100 -6.3 0 0 980.4 NA 0.0000 BR 6000 0 0 0 6140
2019/10/10 23:53:00 BASE 3.98 285 4.68 282 -6.3 100 -6.3 0 0 980.4 NA 0.0000 BR 6000 0 0 0 5380
2019/10/10 23:54:00 BASE 3.97 288 4.68 292 -6.3 100 -6.3 0 0 980.4 NA 0.0000 BR 6000 0 0 0 5320
2019/10/10 23:55:00 BASE 4.21 292 4.99 288 -6.3 100 -6.3 0 0 980.4 NA 0.0000 BR 6000 0 0 0 6070
2019/10/10 23:56:00 BASE 4.34 291 4.99 288 -6.3 100 -6.3 0 0 980.4 NA 0.0000 BR 5000 0 0 0 5410
2019/10/10 23:57:00 BASE 4.20 291 4.99 288 -6.3 100 -6.3 0 0 980.4 NA 0.0000 BR 5000 0 0 0 5350
2019/10/10 23:58:00 BASE 4.06 293 4.99 288 -6.3 100 -6.3 0 0 980.4 NA 0.0000 BR 6000 0 0 0 5320
2019/10/10 23:59:00 BASE 3.83 295 4.99 288 -6.3 100 -6.3 0 0 980.4 NA 0.0000 -SN BR 6000 0 0 0 5320